[[[{"header":{"parameterUnit":"kt","parameterCategory":2,"dx":1,"dy":1,"la1":29.285339999999998,"la2":30.599998999999997,"lo1":-89.70041500000002,"lo2":-87.6738589999976,"nx":112,"ny":82,"refTime":"2022-09-28T12:00:00:Z","depth":0,"parameterNumber":1,"parameterNumberName":"U-component_of_WINDS"},"data":[5.2038,5.2185,0.0,4.9519,4.9602,0.0,4.676,4.5632,4.4851,4.37,4.2897,4.2828,4.4274,4.3692,4.3658,4.5572,4.5555,4.6111,0.0,5.1811,0.0,0.0,6.1788,6.733,7.1578,0.0,0.0,0.0,0.0,0.0,0.0,0.0,9.1609,9.2198,9.2217,9.2341,9.273,9.208,9.1653,9.1653,9.1653,9.1653,9.1653,9.1419,9.112,9.112,9.112,9.112,9.1246,9.2725,9.3553,9.4005,9.3175,9.2393,9.1392,8.8219,8.5923,8.4197,8.1739,8.0401,7.9664,7.9254,7.9118,7.9118,7.9118,7.9118,7.92,7.9636,7.9445,7.8838,7.8004,7.7052,7.5501,7.3239,7.2463,7.2047,7.1452,7.0602,7.0005,7.0636,6.9436,6.8067,6.7661,6.7929,6.8018,6.7706,6.7929,6.8487,6.9446,6.9558,6.9803,7.0428,7.0495,7.0495,7.0495,7.0495,7.0495,7.0495,7.0495,7.0495,7.0495,7.0495,7.045,7.0105,7.0428,7.045,7.0105,7.045,7.0495,7.0495,7.0495,7.0495,0.0,0.0,4.9997,4.7205,0.0,4.8116,4.5529,4.4627,4.4187,4.312,4.3447,4.3809,4.3796,4.4465,4.5486,4.6957,4.7076,4.7972,0.0,5.3726,0.0,0.0,0.0,0.0,0.0,0.0,0.0,0.0,0.0,0.0,0.0,9.0328,9.1466,9.164,9.1853,9.2121,9.2501,9.1531,9.112,9.112,9.112,9.112,9.112,9.112,9.112,9.112,9.112,9.1403,9.197,9.2802,9.3323,9.3593,9.2534,9.147,9.02,8.6886,8.4962,8.3651,8.1603,8.0101,7.9118,7.9118,7.9118,7.9118,7.9118,7.9118,7.9118,7.9118,7.8562,7.7834,7.6562,7.5327,7.357,7.1125,7.0048,6.9336,6.8747,6.8335,6.8056,6.8849,6.8284,6.7616,6.7079,6.7081,6.7125,6.7125,6.7683,6.8353,6.8955,6.9335,6.9781,7.0428,7.0495,7.0495,7.0495,7.0495,7.0495,7.0495,7.0495,7.0495,7.0495,7.0495,7.0495,7.0495,7.0495,7.0495,7.0495,7.0495,7.0495,7.0495,7.0495,7.0495,5.016,4.7926,4.6298,4.6841,4.6515,4.6127,4.6931,4.6515,4.5916,4.6343,4.5853,4.543,4.5751,4.5953,4.694,4.9734,4.93,0.0,0.0,5.723,0.0,0.0,0.0,0.0,0.0,0.0,0.0,0.0,0.0,0.0,8.8535,8.8599,8.9386,9.1187,9.0801,9.096,9.1975,9.1478,9.112,9.112,9.112,9.112,9.112,9.112,9.112,9.112,9.112,9.197,9.328,9.2942,9.2751,9.2662,9.1038,8.9538,8.808,8.5497,8.376,8.2531,8.1302,8.0101,7.9118,7.9118,7.9118,7.9118,7.9118,7.9118,7.909,7.909,7.7665,7.6218,7.602,7.3239,7.06,7.0417,6.8982,6.7691,6.7691,6.7312,6.721,6.8204,6.7608,6.7161,6.8178,6.7124,6.6054,6.6054,6.7706,6.8955,6.9,6.9848,7.0473,7.0495,7.0495,7.0495,7.0495,7.0495,7.0495,7.0495,7.0495,7.0495,7.0495,7.0495,7.0495,7.0495,7.0495,7.0495,7.0495,7.0495,7.0495,7.0495,7.0495,7.0495,4.8162,4.7777,4.8385,4.7033,4.7391,4.7978,4.7242,4.6351,4.5959,4.7019,4.7379,0.0,0.0,0.0,5.3119,5.4994,0.0,5.7218,0.0,6.1419,0.0,0.0,0.0,0.0,0.0,0.0,0.0,0.0,0.0,0.0,8.9354,9.0565,9.1717,9.2853,9.3022,9.3158,9.3528,9.1924,9.112,9.112,9.112,9.112,9.112,9.112,9.112,9.112,9.112,9.1635,9.232,9.2298,9.2143,9.19,9.0336,8.8131,8.5525,8.484,8.3214,8.1357,8.1002,8.0101,7.9118,7.9118,7.8198,7.7298,7.8729,7.8198,7.6931,7.6931,7.6562,7.5501,7.2882,7.1307,7.0232,6.8772,6.8068,6.7691,6.7691,6.7502,6.7405,6.7302,6.6795,6.633,6.6235,6.5665,6.5072,6.5072,6.6121,6.717,6.7929,6.8866,6.9714,7.0428,7.0495,7.0495,7.0495,7.0495,7.0495,7.0495,7.0495,7.0495,7.0495,7.0495,7.0495,7.0495,7.0495,7.0495,7.0495,7.0495,7.0495,7.0495,7.0495,7.0495,4.9058,4.8804,4.9179,4.9665,5.0492,5.1085,5.0365,4.972,4.9537,5.0437,0.0,0.0,0.0,0.0,0.0,0.0,6.1167,0.0,0.0,0.0,0.0,0.0,0.0,0.0,0.0,0.0,0.0,0.0,0.0,8.8716,8.9765,9.0664,9.1391,9.1862,9.2365,9.2462,9.2462,9.1599,9.112,9.112,9.112,9.112,9.112,9.112,9.112,9.112,9.0276,9.044,9.1203,9.0117,8.9901,8.9926,8.8681,8.6732,8.4498,8.4006,8.2559,8.0811,8.0319,7.9691,7.9118,7.9118,7.7834,7.6218,7.6642,7.5926,7.503,7.503,7.4478,7.3417,7.1125,6.9863,6.8959,6.788,6.7691,6.7691,6.7691,6.7502,6.7312,6.6932,6.6406,6.5853,6.5468,6.5081,6.4693,6.4693,6.5853,6.6969,6.7572,6.8821,6.987,7.045,7.0495,7.0495,7.0495,7.0495,7.0495,7.0495,7.0495,7.0495,7.0495,7.0495,7.0495,7.0495,7.0495,7.0495,7.0495,7.0495,7.0495,7.0495,7.0495,7.0495,5.198,5.0612,4.969,5.3616,5.4606,5.4781,5.4857,0.0,5.5066,5.5508,0.0,0.0,6.0108,0.0,0.0,0.0,0.0,0.0,0.0,0.0,0.0,0.0,0.0,0.0,0.0,0.0,8.5509,8.6587,8.8599,8.983,8.9842,8.9842,8.9939,9.0166,9.051,9.0682,9.0682,9.102,9.112,9.112,9.112,9.112,9.112,9.112,9.112,9.0986,8.9139,8.8993,8.9805,8.7468,8.7002,8.7579,8.668,8.5508,8.4225,8.316,8.1876,8.0538,7.95,7.9118,7.9118,7.8923,7.7665,7.5847,7.3824,7.3137,7.3137,7.3137,7.1852,7.06,7.0232,6.8959,6.7691,6.7691,6.7691,6.7691,6.7502,6.7123,6.6932,6.6742,6.6022,6.5468,6.5468,6.5081,6.4738,6.4849,6.6456,6.7683,6.7795,6.9379,7.0495,7.0495,7.0495,7.0495,7.0495,7.0495,7.0495,7.0495,7.0495,7.0495,7.0495,7.0495,7.0495,7.0495,7.0495,7.0495,7.0495,7.0495,7.0495,7.0495,7.0495,7.0495,5.3775,5.3357,5.3632,5.5705,5.6135,5.6457,0.0,0.0,0.0,0.0,0.0,0.0,0.0,0.0,0.0,0.0,0.0,0.0,0.0,0.0,0.0,0.0,0.0,0.0,0.0,8.178,8.3525,8.7129,8.821,8.9133,9.0197,9.0386,9.0964,9.212,9.2185,9.2313,9.2313,9.1526,9.112,9.112,9.112,9.112,9.112,9.112,9.112,9.0986,8.9139,8.8591,8.9156,8.6827,8.6193,8.6806,8.6349,8.5017,8.3078,8.2859,8.1357,7.9418,7.92,7.9118,7.8923,7.7298,7.6562,7.5501,7.2189,7.1149,7.1149,7.1149,7.0784,7.0232,6.8608,6.788,6.7691,6.7691,6.7691,6.7502,6.7123,6.6932,6.6765,6.6406,6.5853,6.5468,6.4887,6.4693,6.4961,6.572,6.688,6.7929,6.8688,6.9781,7.0495,7.0495,7.0495,7.0495,7.0495,7.0495,7.0495,7.0495,7.0495,7.0495,7.0495,7.0495,7.0495,7.0495,7.0495,7.0495,7.0495,7.0495,7.0495,7.0495,7.0495,7.0495,5.7069,5.6869,5.7082,5.9306,5.9763,0.0,0.0,6.2254,6.254,6.5418,6.6392,0.0,0.0,0.0,0.0,0.0,0.0,0.0,0.0,0.0,0.0,0.0,0.0,0.0,0.0,8.3552,8.5303,8.8254,8.9603,9.0725,9.1577,9.1641,9.1737,9.1917,9.1948,9.1948,9.1948,9.1387,9.112,9.112,9.112,9.112,9.1151,9.0413,8.9834,8.9557,8.6695,8.5594,8.5593,8.4695,8.4382,8.4812,8.5798,8.4853,8.2777,8.2777,8.122,7.9118,7.9118,7.9118,7.8729,7.676,7.5527,7.4303,7.1489,6.9888,6.9145,6.9145,6.9145,6.8772,6.788,6.7691,6.7691,6.7691,6.7691,6.7525,6.6932,6.6765,6.6406,6.6045,6.5468,6.5081,6.4693,6.4693,6.5028,6.5965,6.6992,6.7973,6.8911,6.9893,7.0495,7.0495,7.0495,7.0495,7.0495,7.0495,7.0495,7.0495,7.0495,7.0495,7.0495,7.0495,7.0495,7.0495,7.0495,7.0495,7.0495,7.0495,7.0495,7.0495,7.0495,7.0495,6.037,6.034,6.034,6.301,6.3946,0.0,6.7273,6.7152,6.7434,0.0,0.0,0.0,0.0,0.0,0.0,0.0,0.0,0.0,0.0,0.0,0.0,0.0,0.0,0.0,0.0,8.5444,8.745,8.938,9.114,9.2193,9.2375,9.2471,9.208,9.112,9.112,9.112,9.112,9.112,9.112,9.112,9.112,9.0986,9.0684,8.9418,8.8372,8.7627,8.4299,8.265,8.2244,8.2738,8.2777,8.2996,8.5153,8.4662,8.2777,8.2777,8.122,7.909,7.8729,7.8562,7.8198,7.5873,7.4126,7.2599,7.06,6.8959,6.7691,6.7691,6.7691,6.7691,6.7691,6.7691,6.7691,6.7691,6.7691,6.7525,6.6955,6.6597,6.6045,6.5468,6.5081,6.4693,6.4693,6.4693,6.5095,6.6233,6.7103,6.8063,6.9178,7.0026,7.0495,7.0495,7.0495,7.0495,7.0495,7.0495,7.0495,7.0495,7.0495,7.0495,7.0495,7.0495,7.0495,7.0495,7.0495,7.0495,7.0495,7.0495,7.0495,7.0495,7.0495,7.0495,6.1831,6.2812,6.3757,6.5502,6.7361,0.0,7.0928,7.2332,7.3446,0.0,0.0,0.0,0.0,0.0,0.0,0.0,0.0,0.0,0.0,0.0,0.0,0.0,0.0,0.0,0.0,8.4443,8.739,9.0269,9.1371,9.1789,9.1324,9.1419,9.1254,9.112,9.112,9.112,9.112,9.112,9.112,9.112,9.112,9.0413,8.9108,8.8968,8.774,8.5898,8.3684,8.265,8.2244,8.2738,8.2777,8.2914,8.4225,8.3924,8.2777,8.2777,8.122,7.8923,7.7128,7.6562,7.5873,7.2369,7.1125,7.06,6.8608,6.788,6.7691,6.7691,6.7691,6.7691,6.7691,6.7691,6.7691,6.7691,6.7691,6.7336,6.6597,6.6237,6.6045,6.5081,6.4693,6.4693,6.4693,6.4693,6.534,6.7192,6.7572,6.8308,7.0116,7.0428,7.0495,7.0495,7.0495,7.0495,7.0495,7.0495,7.0495,7.0495,7.0495,7.0495,7.0495,7.0495,7.0495,7.0495,7.0495,7.0495,7.0495,7.0495,7.0495,7.0495,7.0495,7.0495,6.5714,6.6573,6.7438,6.9587,0.0,0.0,7.5752,7.6414,0.0,0.0,0.0,0.0,0.0,0.0,0.0,0.0,0.0,0.0,0.0,0.0,0.0,0.0,0.0,0.0,0.0,8.518,8.7802,9.0727,9.113,9.1445,9.1984,9.1552,9.112,9.112,9.112,9.112,9.112,9.112,9.0684,8.9834,8.9834,8.8968,8.7398,8.6136,8.5059,8.3964,8.183,8.0789,8.0467,8.1288,8.2094,8.2886,8.4088,8.4252,8.3611,8.2462,8.0576,7.8195,7.6219,7.5071,7.4152,7.1489,7.06,7.0232,6.8233,6.7691,6.7691,6.7691,6.7691,6.7691,6.7691,6.7691,6.7502,6.7312,6.7123,6.6955,6.6045,6.5853,6.566,6.4887,6.4693,6.4693,6.4693,6.4693,6.5362,6.7349,6.7639,6.833,7.025,7.0495,7.0495,7.0495,7.0495,7.0495,7.0495,7.0495,7.0495,7.0495,7.0495,7.0495,7.0495,7.0495,7.0495,7.0495,7.0495,7.0495,7.0495,6.9197,6.7867,6.6267,6.6267,6.6267,6.8737,0.0,0.0,0.0,0.0,0.0,7.9471,7.9851,8.0733,8.5548,0.0,0.0,0.0,0.0,0.0,0.0,0.0,0.0,0.0,0.0,0.0,0.0,0.0,0.0,0.0,0.0,0.0,0.0,8.956,9.0424,9.1481,9.1373,9.112,9.112,9.112,9.112,9.112,9.0684,8.9971,8.8827,8.8403,8.7398,8.5778,8.408,8.2993,8.2045,8.0491,7.9561,7.9172,8.0046,8.133,8.2859,8.3733,8.4252,8.4347,8.2226,7.999,7.7835,7.5145,7.3502,7.2394,7.0417,6.9702,6.9517,6.8068,6.7691,6.7691,6.7691,6.7691,6.7691,6.7691,6.7502,6.7312,6.6765,6.6765,6.6383,6.566,6.5468,6.5081,6.4887,6.4693,6.4693,6.4693,6.4693,6.5362,6.7349,6.7639,6.833,7.025,7.0495,7.0495,7.0495,7.0495,7.0495,7.0495,7.0495,7.0495,7.0495,7.0495,7.0495,7.0495,7.0495,7.0495,7.0495,7.0495,7.0283,6.9624,6.7197,6.5196,6.3394,6.3394,6.3394,0.0,0.0,0.0,7.4576,7.6865,7.9091,8.1102,8.2723,8.4418,8.6586,0.0,0.0,0.0,0.0,0.0,0.0,0.0,0.0,0.0,0.0,0.0,0.0,0.0,0.0,0.0,0.0,0.0,0.0,8.6351,8.8562,8.8594,9.0263,9.112,9.112,9.112,9.112,9.112,8.9695,8.8827,8.8827,8.7253,8.5778,8.4292,8.3616,8.242,8.0467,7.9891,7.9561,7.9118,7.9145,8.0592,8.2777,8.2804,8.3515,8.4347,8.2226,7.999,7.7659,7.3652,7.1479,7.0232,6.8421,6.7691,6.7691,6.7691,6.7691,6.7691,6.7691,6.7691,6.7691,6.7691,6.7312,6.6742,6.6406,6.6237,6.6237,6.566,6.5081,6.4693,6.4693,6.4693,6.4693,6.4693,6.4693,6.5362,6.7349,6.7639,6.833,7.025,7.0495,7.0495,7.0495,7.0495,7.0495,7.0495,7.0495,7.0495,7.0495,7.0495,7.0495,7.0495,7.0495,7.0495,7.0495,7.0495,6.9411,6.724,6.4758,6.3394,6.3394,6.3394,6.3394,7.2784,7.3978,7.5586,7.9153,8.0578,8.2004,8.5153,8.543,8.6152,9.0007,0.0,0.0,0.0,0.0,0.0,0.0,0.0,0.0,0.0,0.0,0.0,0.0,0.0,0.0,0.0,0.0,0.0,0.0,0.0,0.0,8.8677,8.9462,9.0176,9.1088,9.112,9.0684,8.9695,8.774,8.6254,8.5239,8.4481,8.3305,8.1708,8.114,8.0654,7.9891,7.9588,7.9257,7.9118,7.9118,7.9802,8.0702,8.0702,8.1122,8.1311,7.9154,7.7166,7.491,7.2111,7.0054,6.8608,6.788,6.7691,6.7691,6.7691,6.7691,6.7691,6.7691,6.7691,6.7691,6.7691,6.7312,6.6742,6.6022,6.5853,6.566,6.5081,6.4887,6.4693,6.4693,6.4693,6.4693,6.4693,6.4693,6.5362,6.7349,6.7639,6.833,7.025,7.0495,7.0049,6.8318,6.9624,6.9859,6.8318,6.9624,7.0495,7.0495,6.9197,6.8318,6.8318,6.8318,6.7435,6.5831,6.7414,6.633,6.2363,6.1448,6.0324,5.8774,5.8774,5.8774,7.5621,7.6978,7.8494,8.1867,8.2686,8.3517,8.643,8.6791,8.7318,9.0385,0.0,0.0,0.0,0.0,0.0,0.0,0.0,0.0,0.0,0.0,0.0,0.0,0.0,0.0,0.0,0.0,0.0,0.0,0.0,8.4007,8.6682,8.8224,8.9452,9.0365,9.0299,8.9834,8.8827,8.6254,8.4452,8.3461,8.2363,8.1491,8.0467,7.9891,7.9699,7.9699,7.8534,7.803,7.803,7.803,7.8102,7.8221,7.8482,7.904,7.9372,7.7619,7.5872,7.4116,7.1659,6.9654,6.8182,6.7831,6.7691,6.7691,6.7691,6.7691,6.7691,6.7691,6.7691,6.7691,6.7691,6.7312,6.6742,6.6191,6.566,6.5274,6.4887,6.4693,6.4693,6.4693,6.4693,6.4693,6.4693,6.4693,6.5362,6.7349,6.7639,6.833,7.025,6.9836,6.8769,6.724,6.7629,6.7392,6.5873,6.7176,6.8039,6.8039,6.6526,6.5655,6.5655,6.5655,6.4977,6.3394,6.4977,6.3434,5.8565,5.8565,5.7916,5.6341,5.6341,5.6341,7.8197,7.9575,8.0733,8.2845,8.3277,8.3733,8.5297,8.6823,8.8021,8.8273,0.0,0.0,0.0,0.0,0.0,0.0,0.0,0.0,0.0,0.0,0.0,0.0,0.0,0.0,0.0,0.0,0.0,0.0,8.0984,8.2811,8.2968,8.6682,8.8885,8.888,8.8752,8.8594,8.8514,8.5089,8.3305,8.3149,8.1358,8.0467,8.0467,7.9726,7.9506,7.9175,7.7075,7.6046,7.6046,7.6046,7.5653,7.517,7.6179,7.7294,7.8027,7.7175,7.6112,7.4845,7.1871,7.0099,6.907,6.8042,6.7691,6.7691,6.7691,6.7691,6.7691,6.7691,6.7691,6.7691,6.7691,6.7312,6.6932,6.6932,6.6191,6.5274,6.4887,6.4693,6.4693,6.4499,6.4476,6.4282,6.4282,6.4499,6.5144,6.7057,6.7391,6.8103,6.9972,6.8297,6.6785,6.6785,6.4758,6.3394,6.3173,6.3394,6.3394,6.3394,6.3173,6.3173,6.3173,6.3173,6.3173,6.2951,6.2951,6.0755,5.6341,5.6341,5.6341,5.6341,5.6341,5.6341,7.9906,8.1728,8.2845,8.4479,8.4936,8.538,8.7044,8.6805,8.721,9.0795,9.1228,0.0,0.0,0.0,0.0,0.0,0.0,0.0,0.0,0.0,0.0,0.0,0.0,0.0,0.0,0.0,0.0,0.0,8.0852,8.2244,8.4321,8.5423,8.6226,8.6784,8.7107,8.6453,8.4786,8.3897,8.2492,8.0626,7.9891,7.945,7.945,7.7807,7.6417,7.5056,7.4354,7.4178,7.4178,7.4178,7.3744,7.3033,7.4118,7.4262,7.3971,7.4438,7.3975,7.2911,7.1302,7.0099,6.907,6.8042,6.7691,6.7691,6.7691,6.7691,6.7691,6.7691,6.7691,6.7691,6.7691,6.7312,6.6742,6.6597,6.6045,6.5274,6.4887,6.4693,6.4282,6.2627,6.1,5.98,5.98,6.1199,6.262,6.3824,6.4576,6.5437,6.6619,6.5413,6.3656,6.1916,6.2769,6.2749,6.0999,6.2303,6.3394,6.3394,6.1653,6.0794,6.0794,6.0794,5.9891,5.8108,5.8108,5.7668,5.6341,5.6341,5.6341,5.6341,5.6341,5.6341,8.0541,8.2845,8.4443,8.5322,8.5539,8.5802,8.6741,8.6769,8.7147,8.9094,8.9505,0.0,0.0,0.0,0.0,0.0,0.0,0.0,0.0,0.0,0.0,0.0,0.0,0.0,0.0,0.0,0.0,0.0,8.1363,8.2127,8.3007,8.3661,8.3847,8.3638,8.4143,8.3794,8.2624,8.2293,8.0951,7.8507,7.7155,7.6984,7.7834,7.59,7.4504,7.3494,7.2599,7.2214,7.2214,7.2214,7.131,7.0361,7.1871,7.2068,7.1805,7.3277,7.3464,7.2763,7.1267,7.0379,6.9654,6.8182,6.7691,6.7691,6.7691,6.7691,6.7691,6.7691,6.7691,6.7691,6.7691,6.7502,6.7146,6.6574,6.6214,6.566,6.4887,6.4693,6.4065,6.1794,5.9578,5.8163,5.8163,5.9175,6.0291,6.1204,6.2096,6.3009,6.3921,6.2651,6.1224,5.991,6.0117,5.9645,5.8355,5.9438,6.0305,6.0305,5.9002,5.8355,5.8355,5.8355,5.7687,5.6341,5.6341,5.6341,5.6341,5.6341,5.6341,5.6341,5.6341,5.6341,8.0815,8.3236,8.543,8.5755,8.5827,8.5827,8.5864,8.6787,8.7264,8.5839,8.7289,8.9012,0.0,0.0,0.0,0.0,0.0,0.0,0.0,0.0,0.0,0.0,0.0,0.0,0.0,0.0,0.0,0.0,8.2154,8.1917,8.0719,8.1694,8.1605,8.0262,8.0768,8.1087,8.128,8.0251,7.8899,7.6984,7.4556,7.4354,7.57,7.3621,7.2779,7.2599,7.0967,7.0232,7.0232,7.0232,6.9145,6.7901,6.9958,7.0776,7.101,7.3067,7.3838,7.3558,7.1641,7.087,7.0449,6.8532,6.7808,6.7691,6.7691,6.7691,6.7691,6.7691,6.7691,6.7502,6.7312,6.7312,6.7312,6.6551,6.5785,6.5036,6.4065,6.3869,6.326,6.0979,5.8953,5.7553,5.7349,5.7553,5.8016,5.8962,5.9714,6.0613,6.1393,6.0196,5.9475,5.9475,5.7687,5.6341,5.6341,5.6341,5.6341,5.6341,5.6341,5.6341,5.6341,5.6341,5.6341,5.6341,5.6341,5.6341,5.6341,5.6341,5.6341,5.6341,5.6341,5.6341,8.168,8.3255,8.4792,8.7033,8.76,8.7612,8.7616,8.6678,8.5983,8.6642,8.8679,8.9987,8.8634,0.0,0.0,0.0,0.0,0.0,0.0,0.0,0.0,0.0,0.0,0.0,0.0,0.0,0.0,0.0,0.0,8.0974,8.0719,7.9733,7.8993,7.8292,7.8352,7.8553,7.8973,7.7097,7.6363,7.6984,7.4556,7.3672,7.3824,7.0232,6.8608,6.8608,6.8233,6.8068,6.8068,6.8068,6.788,6.7901,6.9958,7.0776,7.101,7.3067,7.3838,7.3651,7.2459,7.1478,7.0566,6.9351,6.8392,6.7691,6.7691,6.7691,6.7691,6.7691,6.7691,6.7312,6.5525,6.6123,6.6528,6.4193,6.1773,5.9959,5.9377,5.9196,5.8569,5.6305,5.5687,5.4879,5.3094,5.4294,5.5539,5.5673,5.6804,5.7856,5.8009,5.7413,5.7015,5.7015,5.6554,5.6341,5.6341,5.6341,5.6341,5.6341,5.6341,5.6341,5.6341,5.6341,5.6341,5.6341,5.6341,5.6341,5.6341,5.6341,5.6341,5.6341,5.6341,5.6341,8.2361,8.3142,8.4227,8.7311,8.8552,8.905,8.9008,8.8265,8.7667,8.7479,8.8249,8.8616,8.7517,8.8531,0.0,0.0,0.0,0.0,0.0,0.0,0.0,0.0,0.0,0.0,0.0,0.0,0.0,0.0,0.0,8.0012,7.8459,7.7753,7.6833,7.5693,7.5222,7.4869,7.5003,7.4064,7.3259,7.2755,7.3189,7.2419,7.0417,6.8421,6.7691,6.7691,6.7691,6.7691,6.7691,6.7691,6.7691,6.7901,6.9958,7.0776,7.101,7.3067,7.3838,7.3675,7.2646,7.1968,7.1091,6.8504,6.7288,6.6592,6.4887,6.4343,6.4343,6.4343,6.4343,6.4126,6.2715,6.289,6.3107,6.1355,5.9557,5.8346,5.8163,5.8163,5.7553,5.5274,5.486,5.4066,5.2077,5.2481,5.3286,5.3286,5.4432,5.5459,5.5459,5.6023,5.6341,5.6341,5.6341,5.6341,5.6341,5.6341,5.6341,5.6341,5.6341,5.6341,5.6341,5.6341,5.6341,5.6341,5.6341,5.6341,5.6341,5.6341,5.6341,5.6341,5.6341,5.6341,8.2394,8.2881,8.3737,8.7181,8.9001,9.0081,9.0349,9.0366,9.0003,8.8601,8.813,8.7748,8.7144,8.776,8.8398,0.0,0.0,0.0,0.0,0.0,0.0,0.0,0.0,0.0,0.0,0.0,0.0,0.0,0.0,0.0,7.6755,7.6154,7.5214,7.3581,7.2665,7.2272,7.2035,7.1603,7.0666,0.0,7.1274,7.06,6.7691,6.7691,6.7691,6.7691,6.7123,6.6909,6.6909,6.6528,6.6528,6.7117,6.8734,6.9316,6.9568,7.1585,7.2341,7.2203,7.1424,7.0989,7.0304,6.6679,6.5369,6.4596,6.1851,6.0958,6.0958,6.0958,6.0958,6.0758,5.9897,5.9897,5.9696,5.7717,5.694,5.6755,5.6755,5.6755,5.6138,5.4483,5.4066,5.3667,5.2095,5.1689,5.1689,5.1689,5.299,5.397,5.397,5.5361,5.6341,5.6341,5.6341,5.6341,5.6341,5.6341,5.6341,5.6341,5.6341,5.6341,5.6341,5.6341,5.6341,5.6341,5.6341,5.6341,5.6341,5.6341,5.6341,5.6341,5.6341,5.6341,8.1414,8.2212,8.348,8.6968,8.8941,9.0435,9.1917,9.2253,9.1758,8.999,8.9873,8.9661,8.8332,8.8568,8.8836,8.8296,0.0,0.0,0.0,0.0,0.0,0.0,0.0,0.0,0.0,0.0,0.0,0.0,0.0,0.0,0.0,7.5554,7.4113,7.3136,7.251,7.2514,7.3069,7.0464,6.9502,7.0454,6.8911,6.8068,6.7691,6.7691,6.7691,6.7502,6.5717,6.473,6.473,6.2759,6.3151,6.4738,6.4843,6.4736,6.4971,6.6901,6.7608,6.7587,6.7501,6.6666,6.5747,6.414,6.3046,6.1978,6.0409,5.9897,5.9897,5.9897,5.9897,5.9315,5.7329,5.792,5.792,5.3495,5.2288,5.2288,5.2288,5.2288,5.2306,5.2095,5.2095,5.1883,5.1689,5.1689,5.1689,5.1689,5.299,5.397,5.397,5.5361,5.6341,5.6341,5.6341,5.6341,5.6341,5.6341,5.6341,5.6341,5.6341,5.6341,5.6341,5.6341,5.6341,5.6341,5.6341,5.6341,5.6341,5.6341,5.6341,5.6341,5.6341,5.6341,8.0975,8.1644,8.2778,8.645,8.7741,8.884,9.2068,9.2292,9.148,9.0241,8.9518,8.8901,8.8365,8.8023,8.7645,8.7469,8.6938,0.0,0.0,0.0,0.0,0.0,0.0,0.0,0.0,0.0,0.0,0.0,0.0,0.0,0.0,7.4927,7.3219,7.3146,7.0782,6.9581,6.9579,6.7917,6.7441,6.7845,6.7763,6.6314,6.3954,6.3954,6.3954,6.3954,6.2955,6.2759,6.2562,6.1773,6.197,6.2757,6.3824,6.4115,6.4348,6.6259,6.696,6.696,6.696,6.6323,6.5135,6.2334,6.0845,5.9537,5.6578,5.5707,5.5707,5.5707,5.5707,5.5519,5.4502,5.4502,5.4502,5.2288,5.1689,5.1689,5.1689,5.1689,5.1689,5.1689,5.1689,5.1689,5.1689,5.1689,5.1689,5.1689,5.2206,5.2937,5.3863,5.5361,5.6341,5.6341,5.6341,5.6341,5.6341,5.6341,5.6341,5.6341,5.6341,5.6341,5.6341,5.6341,5.6341,5.6341,5.6341,5.6341,5.6341,5.6341,5.611,5.5896,5.5896,5.5646,8.0651,8.1058,8.2049,8.4932,8.6223,8.7585,9.0633,9.0559,8.9772,8.9951,8.9164,8.8466,8.8296,8.7574,8.7085,8.6872,8.6144,8.5475,0.0,0.0,0.0,0.0,0.0,0.0,0.0,0.0,0.0,0.0,0.0,0.0,0.0,7.44,7.2862,7.2243,6.9684,6.817,6.7715,6.6997,6.6243,6.5659,6.6373,6.4924,6.1376,6.1079,6.1121,6.1376,6.0779,6.038,6.038,6.038,6.038,6.0568,6.1764,6.2257,6.2484,6.3883,6.4538,6.4558,6.4318,6.3889,6.2939,5.9679,5.8079,5.6978,5.3846,5.271,5.271,5.271,5.271,5.2692,5.227,5.227,5.2059,5.1883,5.1689,5.1689,5.1689,5.1689,5.1689,5.1689,5.1689,5.1689,5.1689,5.1689,5.1689,5.1689,5.1689,5.2242,5.3774,5.4951,5.5824,5.6287,5.6341,5.6341,5.6341,5.6341,5.6341,5.6341,5.6341,5.6341,5.6341,5.6341,5.6341,5.6341,5.6341,5.6341,5.6341,5.611,5.5896,5.5449,5.5199,5.4949,8.0015,8.0563,8.1283,8.2214,8.4731,8.7035,8.745,8.6768,8.6884,8.928,8.9393,8.8836,8.8398,8.7887,8.7474,8.6979,8.6144,8.5249,0.0,0.0,0.0,0.0,0.0,0.0,0.0,0.0,0.0,0.0,0.0,0.0,0.0,7.4309,7.2986,6.992,6.9616,6.9144,6.881,6.8063,6.6505,6.4537,6.4537,6.3564,6.1355,6.04,6.0485,6.1376,5.9175,5.8163,5.8163,5.8163,5.8163,5.814,5.7653,5.7697,5.7689,5.8685,5.9077,5.9058,5.8392,5.8163,5.7887,5.5602,5.4854,5.4564,5.2366,5.1689,5.1689,5.1689,5.1689,5.1689,5.1689,5.1689,5.1689,5.1689,5.1689,5.1689,5.1689,5.1689,5.1689,5.1689,5.1689,5.1689,5.1689,5.1689,5.1689,5.1689,5.1689,5.2242,5.3774,5.3988,5.4594,5.6163,5.6341,5.6341,5.6341,5.6341,5.6341,5.6341,5.6341,5.6341,5.6341,5.6341,5.6341,5.6341,5.6341,5.6341,5.6341,5.5664,5.5449,5.5432,5.4716,5.4466,7.9327,8.0015,8.062,8.163,8.2858,8.3751,8.3495,8.4094,8.4905,8.5634,8.6017,8.6168,8.6308,8.5779,8.5185,8.5103,8.4329,8.3535,8.3295,0.0,0.0,0.0,0.0,0.0,0.0,0.0,0.0,0.0,0.0,0.0,0.0,7.2082,7.0842,7.0272,6.9004,6.7504,6.5954,6.5749,6.4537,6.2365,6.0325,5.8274,5.6314,5.6038,5.6191,5.6999,5.6383,5.599,5.599,5.5558,5.5558,5.5523,5.617,5.6609,5.7034,5.8027,5.8621,5.8983,5.7727,5.6948,5.6323,5.4583,5.3658,5.3133,5.2044,5.1689,5.1689,5.1689,5.1689,5.1689,5.1689,5.1689,5.1689,5.1689,5.1689,5.1689,5.1689,5.1689,5.1689,5.1689,5.1689,5.1689,5.1689,5.1689,5.1689,5.1689,5.1689,5.2242,5.3774,5.397,5.4576,5.6163,5.6341,5.6341,5.6341,5.6341,5.6341,5.6341,5.6341,5.6341,5.6341,5.6341,5.6341,5.6341,5.6341,5.611,5.5664,5.5432,5.4949,5.3982,5.3982,5.3514,7.7974,7.9068,7.998,8.0646,8.0566,8.0414,8.0689,8.1553,8.2383,8.2914,8.3662,8.4384,8.4722,8.4406,8.418,8.418,8.3415,8.2597,8.2072,8.1917,0.0,0.0,0.0,0.0,0.0,0.0,0.0,0.0,0.0,0.0,7.2252,7.0141,6.87,6.8303,6.6268,6.473,6.3347,6.3347,6.1799,5.8484,5.6098,5.4513,5.3759,5.3456,5.393,5.4993,5.4993,5.4993,5.4785,5.435,5.4141,5.4063,5.4974,5.5879,5.6821,5.7458,5.8163,5.8318,5.7121,5.6184,5.5402,5.4128,5.3353,5.2454,5.1973,5.1689,5.1689,5.1689,5.1689,5.1689,5.1689,5.1689,5.1689,5.1689,5.1689,5.1689,5.1689,5.1689,5.1689,5.1689,5.1689,5.1689,5.1689,5.1689,5.1689,5.1689,5.1939,5.2562,5.381,5.4238,5.4933,5.6198,5.6341,5.6341,5.6341,5.6341,5.6341,5.6341,5.6341,5.6341,5.6341,5.6341,5.6341,5.6341,5.611,5.5896,5.5449,5.4949,5.4233,5.3497,5.328,5.3062,7.6232,7.7728,7.9354,7.9354,7.8117,7.7354,7.8824,7.915,7.9509,8.0812,8.2246,8.3212,8.3277,8.3664,8.3967,8.3914,8.3143,8.2196,8.0719,0.0,7.9612,0.0,0.0,0.0,0.0,0.0,0.0,0.0,0.0,0.0,6.9299,6.8333,6.6821,6.4537,6.2562,6.1376,6.1178,6.1114,5.8622,5.3588,5.2089,5.2184,5.3443,5.2724,5.3051,5.4558,5.4558,5.435,5.3914,5.3705,5.3286,5.2957,5.3528,5.4802,5.6311,5.669,5.7227,5.7227,5.65,5.5753,5.4969,5.4149,5.3364,5.2616,5.1903,5.1689,5.1689,5.1689,5.1459,5.1247,5.1247,5.1247,5.1247,5.1247,5.1247,5.1247,5.1247,5.1247,5.1247,5.1247,5.1247,5.1459,5.1459,5.1689,5.1689,5.1689,5.2331,5.3115,5.3881,5.4683,5.5485,5.6252,5.6341,5.6341,5.6341,5.6341,5.611,5.586,5.586,5.586,5.586,5.586,5.5611,5.5611,5.5164,5.4716,5.4716,5.3497,5.2777,5.2777,5.2357,5.2137,7.622,7.7136,7.7595,7.7595,7.7298,7.7062,7.742,7.7517,7.7582,7.7908,7.8653,7.961,8.0528,8.1226,8.1583,8.1543,8.1353,8.0719,7.9228,7.9895,7.9487,7.6687,0.0,0.0,0.0,0.0,0.0,0.0,0.0,0.0,6.7925,6.6275,6.5049,6.4537,6.2562,6.058,5.8973,5.83,5.6018,5.188,5.1714,5.1182,5.0087,5.0111,4.9978,4.9582,4.9154,5.0025,5.1335,4.8709,4.8495,4.9898,4.8256,4.8183,4.933,5.2491,5.5112,5.7155,5.5892,5.4933,5.4131,5.3347,5.258,5.1921,5.1742,5.1689,5.1689,5.1689,4.9042,4.6418,4.6418,4.6418,4.6418,4.6418,4.6418,4.6418,4.6418,4.6418,4.6418,4.6418,4.7734,4.9042,4.9042,5.0573,5.1689,5.1689,5.2331,5.3115,5.3881,5.4683,5.5485,5.6252,5.6341,5.6341,5.6341,5.6341,5.4664,5.0606,5.0369,5.0116,4.9578,4.9594,4.9341,4.8865,4.8865,4.8404,4.7957,4.7717,4.7238,4.7013,4.6788,4.6802,7.5065,7.6173,7.6956,7.6909,7.6677,7.6271,7.5569,7.5196,7.5057,7.5057,7.554,7.6385,7.7729,7.8534,7.9367,8.0421,8.0429,7.9356,7.6761,7.6867,7.6419,0.0,0.0,0.0,0.0,0.0,0.0,0.0,0.0,0.0,6.5535,6.2689,6.1132,6.1132,5.8568,5.6777,5.5597,5.2867,5.0399,4.837,4.8224,4.7787,4.7625,4.7427,4.7383,4.7187,0.0,4.7419,4.8082,4.6322,4.6313,4.7354,4.6296,4.6527,4.7237,4.9734,5.1787,5.3094,5.2155,5.14,5.0644,4.9922,4.92,4.8397,4.8397,4.8397,4.8397,4.8397,4.6635,4.4658,4.4658,4.4658,4.4658,4.4658,4.4658,4.4658,4.4658,4.4658,4.4658,4.4658,4.5766,4.6635,4.6635,4.7734,4.8497,4.8832,4.9484,5.0219,5.0938,5.1707,5.2807,5.438,5.3463,5.3229,5.4431,5.348,5.1567,4.8704,4.8704,4.8196,4.7672,4.7418,4.6938,4.6699,4.6473,4.6007,4.5795,4.5554,4.5085,4.4857,4.4857,4.4857,7.3951,7.5462,7.699,7.709,7.6594,7.579,7.4546,7.3694,7.3053,7.2838,7.3191,7.3859,7.5064,7.5978,7.7354,7.9904,8.0054,7.8374,7.4282,7.3174,7.2154,7.0654,0.0,0.0,0.0,0.0,0.0,0.0,0.0,6.1814,6.2229,5.8793,5.6654,5.6238,5.3408,5.1636,5.1089,4.691,4.4748,4.4856,4.4147,4.433,4.5279,4.4753,4.4902,4.5235,0.0,4.5018,4.5033,4.4378,4.4572,4.5051,4.5249,4.5911,4.6574,4.749,4.7987,4.8135,4.7947,4.7175,4.6403,4.6056,4.542,4.4658,4.4658,4.4658,4.4658,4.3796,4.3577,4.3577,4.3577,4.3577,4.3577,4.3577,4.3577,4.3577,4.3577,4.3577,4.3577,4.3577,4.4016,4.422,4.422,4.4532,4.5013,4.5361,4.6311,4.7005,4.7344,4.802,4.9419,5.1567,4.9894,4.9419,5.1803,4.9894,4.8226,4.7268,4.7268,4.7013,4.6233,4.5751,4.5254,4.5254,4.4572,4.4344,4.4344,4.3872,4.3643,4.3643,4.3643,4.3643,7.554,7.6504,7.7041,7.8173,7.7971,7.7351,7.7133,7.59,7.4431,7.3436,7.255,7.2275,7.3519,7.4851,7.6493,7.9094,7.9483,7.7982,7.3636,7.1394,6.9833,6.8649,6.7815,0.0,0.0,0.0,0.0,0.0,0.0,5.8577,5.9523,5.7084,5.4909,5.326,5.1056,4.827,4.5171,4.4234,4.3937,4.4013,4.4089,4.3361,4.2307,4.2471,4.1709,4.0491,0.0,0.0,4.2239,3.9836,4.0405,4.2368,4.0926,4.0842,4.1671,4.4388,4.5582,4.5722,4.7226,4.7112,4.601,4.5917,4.542,4.4658,4.4658,4.4658,4.3796,3.985,3.8756,3.8756,3.8756,3.8756,3.8756,3.8756,3.8756,3.8756,3.8756,3.8756,3.8756,3.8756,4.0282,4.1825,4.1825,4.3806,4.5315,4.5423,4.6483,4.7297,4.739,4.802,4.8704,4.9181,4.8943,4.8704,4.9181,4.8943,4.6547,4.1743,4.1265,4.102,4.0528,3.9763,3.9256,3.8527,3.8539,3.8539,3.8539,3.8303,3.8303,3.8303,3.8303,3.8303,7.5994,7.6782,7.7071,7.8375,7.7862,7.6681,7.5953,7.432,7.2945,7.2359,7.1559,7.1271,7.2536,7.3552,7.4641,7.6159,7.6444,7.5611,7.2981,6.9023,6.5911,6.4794,6.2725,6.1142,0.0,0.0,0.0,0.0,0.0,5.5306,5.4642,5.2644,5.0692,4.8427,4.7099,4.4336,3.9949,4.0542,4.0824,4.0394,4.0467,4.0363,3.9837,3.9698,3.9178,0.0,0.0,0.0,3.9653,3.8637,3.9113,4.0366,4.0039,3.9955,4.0495,4.2249,4.2303,4.1987,4.322,4.2903,4.1799,4.146,4.1163,4.0951,4.0951,4.0951,4.0505,3.8306,3.7644,3.7644,3.7644,3.7644,3.7644,3.7644,3.7644,3.7644,3.7644,3.7644,3.7644,3.7644,3.8531,3.9511,3.9611,4.0765,4.1854,4.2529,4.3106,4.3584,4.3908,4.4203,4.5113,4.6547,4.5355,4.5113,4.6532,4.4857,4.2953,4.0307,3.9813,3.9319,3.8564,3.8303,3.7807,3.7085,3.7085,3.7085,3.7085,3.7085,3.7085,3.7085,3.7085,3.7085,7.6248,0.0,7.678,7.8119,7.7288,7.5991,0.0,7.3253,7.1797,7.1513,7.0902,7.0508,7.1026,7.1999,7.2637,7.291,7.3515,7.3432,7.1813,6.7802,6.4143,6.1622,5.8311,5.6388,5.6889,0.0,0.0,0.0,0.0,5.1583,4.9338,4.791,4.6175,4.3938,4.2928,4.0557,3.6919,3.7833,3.815,3.7646,3.7632,3.7857,3.8293,3.7856,3.7644,0.0,0.0,0.0,3.7682,3.8111,3.8695,3.9358,3.9669,3.9955,4.0228,4.0526,4.0085,3.9371,3.9682,3.9215,3.8397,3.7825,3.7644,3.7644,3.7644,3.7644,3.7644,3.7644,3.7644,3.7644,3.7644,3.7644,3.7644,3.7644,3.7644,3.7644,3.7644,3.7644,3.7644,3.7644,3.7747,3.7981,3.841,3.8708,3.9189,4.0059,4.0305,4.0539,4.0981,4.1033,4.1743,4.3657,4.222,4.1743,4.39,4.1498,3.9813,3.9553,3.9071,3.8576,3.7807,3.7807,3.7571,3.7085,3.7085,3.7085,3.7085,3.7085,3.7085,3.7085,3.7085,3.7085,0.0,7.6219,7.5813,7.7114,7.6921,7.6396,7.6309,7.4757,0.0,7.2053,7.0965,6.9673,6.8123,6.9544,7.099,7.0561,7.2485,7.2984,6.9649,6.9354,6.7053,6.1109,5.7614,5.5229,5.3465,0.0,0.0,0.0,0.0,0.0,4.4358,4.4179,4.3019,4.1057,3.8958,3.7756,3.7508,3.7547,3.7659,3.7804,3.7804,3.783,3.7869,3.7644,3.7644,0.0,0.0,0.0,0.0,3.7695,3.8345,3.928,3.8799,3.9254,4.0137,3.963,3.9397,3.9254,3.8773,3.8565,3.8397,3.7825,3.7644,3.7644,3.7644,3.7644,3.7644,3.7644,3.7644,3.7644,3.7644,3.7644,3.7644,3.7644,3.7644,3.7644,3.7644,3.7644,3.7644,3.7644,3.8072,3.8436,3.8488,3.9371,4.0098,4.0176,4.0643,4.0994,4.1033,4.1033,4.1033,4.1265,4.1033,4.1033,4.1265,4.006,3.8824,3.8303,3.8303,3.7807,3.7322,3.7085,3.7073,3.7085,3.7085,3.7085,3.7085,3.7085,3.7085,3.7085,3.7085,3.7085,7.4439,7.4512,7.4557,7.5832,7.5471,7.4754,7.4754,7.3617,7.2495,7.2054,7.0719,6.9474,6.8804,6.956,6.9918,6.8498,7.0411,7.0563,6.6849,6.5871,6.3418,5.8025,5.4319,5.1407,0.0,0.0,0.0,0.0,0.0,0.0,4.2391,4.2005,4.0791,3.8764,3.8357,3.7837,3.7408,3.6392,3.5774,3.5317,3.3952,3.3028,3.3028,3.3028,3.3028,0.0,0.0,0.0,0.0,3.5671,3.6987,3.8812,3.8955,3.9059,3.8902,3.7577,3.6489,3.5697,3.4435,3.4724,3.5586,3.5391,3.6475,3.7644,3.7644,3.6714,3.5783,3.7179,3.7644,3.7644,3.7644,3.7644,3.7644,3.7644,3.7644,3.7644,3.7644,3.7644,3.7747,3.8098,3.8345,3.8721,3.9422,3.9903,4.0305,4.0656,4.0903,4.0787,4.054,4.0294,4.0307,3.9813,3.9813,3.9813,3.9813,3.9059,3.8316,3.8055,3.7807,3.7322,3.7085,3.7085,3.7085,3.7085,3.7085,3.7085,3.7085,3.7085,3.7085,3.7085,3.7085,3.7085,7.2987,7.2964,7.3074,7.367,7.3511,7.3081,7.3081,7.2155,7.1092,7.1092,6.9803,6.8337,6.786,6.8286,6.7978,6.5718,6.6902,6.6989,6.3649,6.2514,6.0383,5.5802,5.2928,5.0229,4.7051,0.0,0.0,0.0,0.0,0.0,4.0467,3.9876,3.8787,3.6794,3.6111,3.5648,3.5202,3.3791,3.2969,3.2539,3.0796,3.0051,3.0051,3.0199,3.0044,0.0,0.0,0.0,0.0,3.3151,3.4563,3.6147,3.6342,3.6294,3.5915,3.4434,3.3355,3.2604,3.1318,3.1685,3.2788,3.2788,3.3941,3.5342,3.5342,3.418,3.3245,3.4875,3.6022,3.6488,3.6488,3.7179,3.7644,3.7644,3.7644,3.7644,3.7644,3.756,3.7805,3.841,3.8554,3.8808,4.0059,4.0102,4.0104,4.0981,4.0787,4.0553,4.006,4.006,3.9813,3.9084,3.9084,3.8836,3.8588,3.8067,3.7807,3.7807,3.7322,3.7085,3.7085,3.7085,3.7085,3.7085,3.7085,3.7085,3.7085,3.7085,3.7085,3.7085,3.7085,3.7085,7.1825,7.1843,7.1607,7.0406,7.1006,7.188,7.188,7.0604,6.9335,6.9335,6.7834,6.6199,6.4442,6.4891,6.4749,6.1803,6.2252,6.2421,6.0726,6.0114,5.8626,5.5199,5.4552,5.2365,4.7297,4.5574,0.0,0.0,0.0,0.0,3.7606,3.7392,3.6602,3.4767,3.185,3.0264,3.0264,2.9793,2.9777,2.9767,2.9292,2.9071,2.9081,2.9566,2.9563,0.0,0.0,0.0,0.0,3.0275,3.0536,3.1127,3.0442,3.0547,3.1116,3.0442,3.0275,3.0275,3.0275,3.0275,3.0275,3.0275,3.0264,3.0275,3.0275,3.0275,3.0275,3.0275,3.2101,3.3929,3.3929,3.5783,3.7644,3.7644,3.7657,3.7657,3.7657,3.7412,3.7576,3.827,3.8251,3.8765,3.9961,3.946,3.9578,4.0787,4.0553,4.006,4.006,4.006,3.9813,3.9084,3.9084,3.8576,3.7334,3.7085,3.7085,3.7085,3.7085,3.7085,3.7085,3.7085,3.7085,3.7085,3.7085,3.7085,3.7085,3.7085,3.7085,3.7085,3.7085,3.7085,7.106,7.0674,7.0542,7.0187,6.9932,6.9763,6.9591,6.8811,6.7701,6.6685,6.5054,6.3775,6.3296,6.3009,6.2478,6.1273,6.1454,6.0813,5.7953,5.6956,5.5049,5.012,4.9853,4.8715,4.5547,4.3937,4.1911,0.0,0.0,0.0,3.8218,3.6175,3.4051,3.1621,3.0622,2.9988,2.9988,2.7747,2.6639,2.6639,2.5033,2.4434,2.4443,2.4843,2.5026,2.5035,2.5148,0.0,0.0,2.7723,2.895,3.0452,3.0316,3.0358,3.0221,2.8457,2.7723,2.7491,2.5658,2.6348,2.7723,2.7723,2.888,2.9583,2.6124,2.6348,2.7723,2.7723,2.9573,3.1414,3.1414,3.1883,3.2571,3.2571,3.2346,3.2113,3.2113,3.1778,3.1728,3.2538,3.4077,3.5636,3.6475,3.7947,3.9331,3.9566,3.9578,3.9071,3.8811,3.8799,3.8316,3.7831,3.7831,3.7583,3.7073,3.7085,3.7085,3.7085,3.7085,3.7085,3.7085,3.7085,3.7085,3.7085,3.7085,3.7085,3.7085,3.7085,3.7085,3.7085,3.7085,3.7085,7.0257,7.0013,6.9999,6.8227,6.8078,6.8023,6.6928,6.6194,6.5408,6.4393,6.2379,6.0519,6.0519,5.9446,5.8513,5.813,5.794,5.675,5.3494,5.2379,5.0327,4.6347,4.601,4.5216,4.3234,4.2165,4.0865,0.0,0.0,0.0,3.6811,3.3061,3.0399,2.863,2.7452,2.6778,2.6597,2.4809,2.4025,2.4034,2.2709,2.2133,2.2149,2.2512,2.2678,2.2686,2.2828,0.0,0.0,2.5192,2.6115,2.7278,2.7278,2.7278,2.7278,2.5649,2.5192,2.4958,2.3353,2.3814,2.5192,2.5192,2.6115,2.6813,2.3822,2.3797,2.4707,2.4707,2.5623,2.6785,2.7704,2.8176,2.8447,2.9545,2.9534,2.9293,2.9461,2.9365,2.9266,3.0009,3.1205,3.2422,3.3172,3.4259,3.5282,3.577,3.552,3.5271,3.501,3.5781,3.6291,3.5543,3.4542,3.3791,3.3791,3.3791,3.3791,3.3791,3.4793,3.5543,3.5543,3.6563,3.7085,3.7085,3.7085,3.7085,3.7085,3.7085,3.7085,3.7085,3.6836,3.6836,6.9057,6.9414,6.9219,6.5045,6.548,6.6465,6.4123,6.3139,6.2451,6.2281,5.9455,5.7006,5.6914,5.541,5.3974,5.3948,5.2935,5.1356,4.8606,4.7027,4.5371,4.3249,4.2871,4.2208,4.0551,4.0457,3.9894,3.8545,0.0,0.0,3.4157,2.9291,2.6333,2.5711,2.3434,2.2141,2.1818,2.1818,2.1818,2.1818,2.1849,2.1865,2.1873,2.2236,2.2402,2.2418,2.2749,0.0,0.0,2.2891,2.2891,2.2891,2.2891,2.2891,2.2891,2.2891,2.2891,2.2891,2.2891,2.2891,2.2891,2.2891,2.2891,2.2656,2.2656,2.2398,2.1913,2.1913,2.1442,2.1435,2.3756,2.4457,2.4993,2.7438,2.8052,2.8232,2.8409,2.836,2.8648,2.9125,2.8953,2.8969,3.0186,2.9457,2.9475,3.0439,3.0205,2.9962,2.9962,3.2,3.3267,3.2493,3.0234,2.8978,2.8978,2.8978,2.8978,2.8978,3.1244,3.2755,3.2755,3.5293,3.6824,3.6824,3.7073,3.7085,3.7085,3.7085,3.7085,3.7085,3.6349,3.6099,6.6932,6.6466,6.6,6.3173,6.2958,6.3117,6.1706,6.1378,6.0461,5.7762,5.6692,5.5845,5.4899,5.3872,5.3449,5.396,5.1567,4.9163,4.7574,4.5536,4.303,4.029,4.0777,4.0724,3.9155,3.9381,3.9284,3.8529,0.0,0.0,3.4157,2.9007,2.5011,2.2836,2.2153,2.1889,2.1818,2.1818,2.1818,2.1818,2.2102,2.2236,2.2252,2.2607,2.2773,2.2781,2.286,0.0,0.0,2.2891,2.2891,2.2891,2.2891,2.2891,2.2891,2.2891,2.2891,2.2891,2.2891,2.2891,2.2891,2.2891,2.217,2.145,2.145,2.1207,2.1207,2.1207,2.1207,2.12,2.167,2.1897,2.192,2.2452,2.2645,2.2644,2.2958,2.279,2.2513,2.2768,2.4354,2.5925,2.6172,2.7708,2.8978,2.9222,2.9222,2.9231,2.9231,2.9738,2.9231,2.6936,2.7962,2.8978,2.8978,2.8978,2.8978,2.8978,2.9485,2.9738,2.9738,3.2503,3.402,3.402,3.6053,3.7085,3.7085,3.7085,3.6836,3.6349,3.6099,3.5838,6.6185,6.5367,6.4137,6.0935,6.04,6.0433,5.8779,5.8844,5.8526,5.629,5.509,5.3935,5.237,5.0758,4.9673,4.9746,4.7718,4.5472,4.3567,4.1993,4.0325,3.8219,3.8556,3.8626,3.8261,3.8345,3.8531,3.8081,3.6915,3.4504,3.0395,2.766,2.4652,2.1826,2.1818,2.1818,2.1818,2.1983,2.1844,2.1625,2.2211,2.2375,2.2135,2.1134,2.0501,2.0501,2.0501,0.0,2.0736,2.1928,2.2406,2.2398,2.217,2.1935,2.1935,2.1935,2.217,2.2398,2.217,2.217,2.2406,2.217,2.145,2.0972,2.0972,2.0736,2.0501,2.0501,2.0265,2.003,2.003,2.003,2.0071,2.0216,2.0382,2.0551,2.0835,2.0884,2.0839,2.0839,2.1856,2.2877,2.2877,2.4152,2.5168,2.5168,2.5168,2.5168,2.5168,2.5168,2.4408,2.3134,2.4144,2.5168,2.5168,2.5168,2.5168,2.5168,2.6189,2.6945,2.6945,2.9728,3.0992,3.0992,3.2514,3.3278,3.3278,3.4292,3.4553,3.4314,3.4826,3.4314,6.5482,6.4491,6.2671,5.8852,5.8462,5.8583,5.6066,5.6303,5.6532,5.4943,5.3425,5.1613,4.9944,4.7387,4.5641,4.5722,4.364,4.1587,4.0019,3.8855,3.7758,3.6746,3.6813,3.7124,3.7605,3.7405,3.7179,0.0,3.423,3.0526,2.6118,2.5393,2.4122,2.1594,2.1594,2.1393,2.0989,2.0872,2.0573,2.0119,2.0856,2.0972,2.0487,1.8352,1.7164,1.7406,1.7643,0.0,1.8115,2.0729,2.1678,2.1678,2.1207,2.0972,2.0972,2.0972,2.1442,2.1678,2.1207,2.1442,2.1678,2.0972,2.0736,2.0736,2.0736,2.0265,1.9794,1.9794,1.9565,1.9092,1.9092,1.9125,1.9231,1.9475,1.9798,2.0114,2.0345,2.0628,2.0839,2.0839,2.0839,2.0839,2.0839,2.0839,2.0839,2.0839,2.0839,2.0839,2.0839,2.0839,2.0839,2.0839,2.0839,2.0839,2.0839,2.0839,2.0839,2.0839,2.2877,2.4152,2.4152,2.669,2.8216,2.8216,2.847,2.8715,2.8715,3.0234,3.1002,3.1002,3.2031,3.1254,6.2181,6.1348,6.0725,5.8083,5.8189,5.8091,5.5333,5.4944,5.4357,5.0807,4.9906,4.9202,4.8035,4.5404,4.4582,4.8288,4.2714,3.8862,4.108,3.8913,3.6641,3.6098,3.6929,3.7566,3.7644,3.5783,3.4612,3.4612,2.95,2.6379,2.5664,2.2986,2.1408,2.0921,2.0472,1.9241,1.7415,1.557,1.4508,1.4508,1.4539,1.4554,1.4554,1.4079,1.4079,1.4079,1.6207,0.0,1.7388,2.0016,2.1207,2.1207,2.0972,2.0972,2.0972,2.0972,2.0972,2.1207,2.0972,2.0972,2.0972,1.9794,1.9322,1.9322,1.9322,1.9329,1.9092,1.9092,1.9086,1.9092,1.9092,1.9284,1.9488,1.9521,1.9949,2.0352,2.0385,2.0628,2.0839,2.0839,2.0839,2.0839,2.0839,2.0839,2.0839,2.0839,2.0839,2.0839,2.0839,2.0839,2.0839,2.0839,2.0839,2.0839,2.0839,2.0839,2.0839,2.0839,2.1091,2.1348,2.1348,2.3896,2.5168,2.4656,2.6919,2.7656,2.7139,2.7393,2.7148,2.6665,2.6919,2.6402,6.1176,6.0334,5.9212,5.701,5.6161,5.5433,5.3571,5.2527,5.1477,4.9226,4.877,4.8327,4.6614,4.3988,4.2359,4.337,3.936,3.6273,3.7001,3.6163,3.5241,3.5523,3.4866,3.4636,3.5115,3.2754,3.1216,0.0,2.5896,2.2473,2.2473,2.1138,2.0472,2.0472,1.9049,1.7812,1.6778,1.4443,1.3125,1.2883,1.3125,1.3125,1.2883,1.1465,1.0755,1.0751,0.0,1.2412,1.2408,1.5017,1.6207,1.6207,1.74,1.7879,1.7885,1.9315,2.003,2.0501,2.003,1.9073,1.7643,1.7176,1.7898,1.9092,1.9092,1.9092,1.9092,1.9092,1.9092,1.9092,1.9092,1.931,1.9574,1.9745,2.0101,2.0437,2.0609,2.0747,2.0839,2.0839,2.0839,2.0839,2.0839,2.0839,2.0839,2.0839,2.0839,2.0839,2.0839,2.0839,2.0839,2.0839,2.0839,2.0839,2.0839,2.0839,2.0839,2.0839,2.0839,2.0839,2.0839,2.1599,2.1849,2.1599,2.2342,2.2592,2.2335,2.3346,2.3858,2.3609,2.488,2.4369,6.0137,5.9263,5.7851,5.5695,5.4419,5.3286,5.1463,5.0187,4.8904,4.769,4.7033,4.6263,4.4765,4.1969,3.957,3.894,3.6148,3.4101,3.411,3.4046,3.3911,3.3646,3.2555,3.1713,3.1724,2.9123,2.7348,0.0,2.2754,1.9943,2.0023,1.9877,1.9467,1.9007,1.721,1.571,1.4302,1.2816,1.1461,1.0271,1.0751,1.0728,1.021,0.812,0.7407,0.7379,0.8123,0.8373,0.8612,1.1219,1.217,1.2408,1.3842,1.4321,1.4559,1.6466,1.7413,1.7885,1.7176,1.5986,1.4321,1.4321,1.5507,1.7182,1.7898,1.8134,1.8134,1.885,1.9092,1.9092,1.9092,1.9369,1.9686,1.9837,2.0193,2.053,2.0602,2.0734,2.0813,2.0741,2.0787,2.0839,2.0839,2.0839,2.0839,2.0839,2.0839,2.0839,2.0839,2.0582,2.0582,2.0582,2.0324,2.0324,2.0324,2.0324,2.0324,2.0324,2.0324,2.0324,2.0324,1.9814,1.9555,1.9291,1.8774,1.8515,1.8262,1.9782,2.0549,2.0549,2.2071,2.1815,5.8204,5.7493,5.6735,5.4299,5.3751,5.2812,4.9453,4.8126,4.7189,4.5348,4.3183,4.1771,4.1573,3.8167,3.6162,3.854,3.4941,3.2739,3.5185,3.4475,3.275,3.0398,3.0631,3.0034,2.8013,2.5359,0.0,2.0719,0.0,1.9719,2.0008,1.9635,1.8407,1.6073,1.5608,1.3111,0.812,0.7887,0.6703,0.4321,0.4321,0.4288,0.4229,0.4053,0.4049,0.3995,0.6659,0.7654,0.789,1.0509,1.1461,1.1461,1.1699,1.1699,1.1699,1.1699,1.1937,1.1937,1.1937,1.1699,1.1699,1.1699,1.1699,1.2416,1.4796,1.5513,1.5986,1.8377,1.9092,1.9092,1.9092,1.9521,1.9897,1.962,2.02,2.0668,2.0141,2.0457,2.0754,2.047,2.0642,2.0839,2.0839,2.0839,2.0839,2.0839,2.0839,2.0839,2.0839,2.0324,1.9807,1.9807,1.9297,1.9038,1.9038,1.9038,1.9038,1.9038,1.9038,1.9038,1.9038,1.9038,1.8515,1.7722,1.7722,1.7463,1.6951,1.6951,1.6951,1.6951,1.7204,1.6945,5.6534,5.5814,5.5069,5.2112,5.062,4.9301,4.7243,4.6123,4.4959,4.4408,4.2396,4.0995,4.0995,3.7376,3.4777,3.5769,3.3343,3.15,3.2508,3.0996,2.9437,2.8585,2.6177,2.4445,2.4272,0.0,0.0,1.8037,1.8125,1.8303,1.8597,1.7138,1.5917,1.5167,1.2025,0.9285,0.7434,0.5814,0.4655,0.3728,0.3728,0.3718,0.3698,0.3719,0.3738,0.3755,0.4715,0.5226,0.5275,0.6229,0.6708,0.6708,0.837,0.9083,0.9083,1.0747,1.1461,1.0985,0.7659,0.7659,0.9083,0.9573,0.9805,1.0271,1.2187,1.508,1.7509,1.6274,1.7461,1.8652,1.7188,1.8176,1.9666,1.956,1.9916,2.0233,2.0029,2.0147,2.0253,1.9636,1.9956,2.0093,2.0015,2.0302,2.0615,2.0813,2.0065,1.9555,1.9555,1.9297,1.9297,1.9297,1.9044,1.878,1.878,1.878,1.878,1.878,1.878,1.878,1.878,1.825,1.7986,1.7722,1.7204,1.6951,1.6692,1.6692,1.6692,1.6692,1.6692,1.6692,5.5271,5.4341,5.322,5.0244,4.8181,4.6859,4.5542,4.4391,4.3216,4.2822,4.0796,3.8769,3.8167,3.5362,3.2945,3.2957,3.1562,3.0427,2.9786,2.8187,2.6629,2.5381,2.2485,0.0,0.0,0.0,0.0,1.6561,1.6321,1.61,1.6587,1.4579,1.2622,1.116,0.8674,0.7087,0.6175,0.4579,0.3666,0.3666,0.3666,0.3666,0.3666,0.3666,0.3677,0.3695,0.3715,0.3758,0.3812,0.3812,0.3824,0.4081,0.575,0.6227,0.6464,0.8373,0.885,0.8373,0.5037,0.5036,0.6466,0.6952,0.6947,0.7176,1.005,1.3188,1.5371,1.3175,1.4356,1.6511,1.6511,1.8151,1.956,1.9468,1.9488,1.9703,1.9256,1.9353,1.9202,1.8609,1.8917,1.9291,1.8968,1.9325,1.9704,1.9894,1.9236,1.878,1.878,1.8515,1.8515,1.8515,1.8256,1.8256,1.8256,1.8256,1.8256,1.8256,1.8256,1.8256,1.8256,1.7727,1.7463,1.7463,1.6951,1.6692,1.6692,1.6692,1.6692,1.6692,1.6692,1.6734,5.4585,5.3097,5.1407,4.8941,4.7087,4.5577,4.4213,4.3035,4.1851,4.0811,3.7952,3.5105,3.3485,3.1853,3.0648,3.0279,3.0047,2.9283,2.7229,2.6423,2.4516,2.03,1.9686,1.8877,0.0,1.548,1.5198,1.5964,1.4461,1.3667,1.3889,1.2085,0.8892,0.3877,0.5938,0.6175,0.3666,0.3666,0.3665,0.3665,0.3665,0.3665,0.3665,0.3665,0.3634,0.3584,0.364,0.3697,0.3985,0.3754,0.3788,0.384,0.3841,0.3842,0.3842,0.3842,0.3842,0.3842,0.3842,0.3842,0.3842,0.3842,0.2881,0.288,0.7672,0.935,0.9347,0.9324,1.052,1.2694,1.7551,1.9214,1.9593,1.8838,1.8673,1.8634,1.8089,1.787,1.7895,1.7663,1.7811,1.7978,1.7996,1.8209,1.8388,1.8393,1.8613,1.878,1.878,1.8245,1.7722,1.7722,1.721,1.6692,1.6692,1.6692,1.6692,1.6692,1.6692,1.6692,1.6692,1.6692,1.6692,1.6692,1.6692,1.6692,1.6692,1.6692,1.6692,1.6692,1.6692,1.6818,5.2112,5.0807,4.9679,4.6105,4.519,4.5066,4.4151,4.2831,4.1618,4.0275,3.6578,3.3288,3.2709,3.0401,2.8877,2.9466,2.8888,2.7872,2.6167,2.3927,2.1499,1.8736,1.6757,1.5343,1.4952,1.5119,1.524,1.5483,1.5014,1.3821,1.1682,0.7796,0.4933,0.3588,0.3409,0.3433,0.3665,0.3665,0.3207,0.229,0.229,0.229,0.229,0.3207,0.3199,0.2502,0.2483,0.2953,0.3694,0.3736,0.3763,0.3783,0.3825,0.3361,0.2641,0.3601,0.3361,0.2401,0.2401,0.2401,0.2401,0.144,0.072,0.072,0.2159,0.2638,0.3118,0.4796,1.1042,1.6125,1.2963,1.2259,1.2267,1.2217,1.2036,1.3052,1.6585,1.7396,1.7279,1.6164,1.7211,1.8111,1.7736,1.8093,1.8447,1.8643,1.7952,1.7215,1.7215,1.721,1.6951,1.6951,1.6951,1.6692,1.6692,1.6692,1.6692,1.6692,1.6692,1.6692,1.6692,1.6692,1.6692,1.6692,1.6692,1.6692,1.6692,1.6692,1.6692,1.6692,1.6692,1.6818,5.1966,5.0263,4.8469,4.5144,4.4273,4.3642,4.2703,4.0872,3.904,3.7441,3.4116,3.1346,3.0351,2.9133,2.8259,2.8328,2.7156,2.5547,2.3793,2.1079,1.8571,1.6444,1.4646,1.3547,1.3799,1.4282,1.463,1.4759,1.1441,0.8653,0.6881,0.4259,0.2479,0.2028,0.1821,0.229,0.3436,0.252,0.1603,0.0916,0.2061,0.252,0.252,0.2061,0.1603,0.1144,0.2268,0.2952,0.3669,0.3239,0.302,0.3024,0.3783,0.333,0.2616,0.2378,0.1671,0.12,0.12,0.12,0.096,0.024,-0.0,-0.0,-0.0,-0.0,0.024,0.192,0.6482,1.0328,0.6475,0.5509,0.5511,0.5547,0.8942,1.2851,1.5899,1.4678,1.2978,1.2346,1.3097,1.4417,1.6714,1.7334,1.7469,1.7992,1.7248,1.6728,1.6728,1.6718,1.6713,1.6713,1.6702,1.6692,1.6692,1.6692,1.6692,1.6692,1.6692,1.6692,1.6692,1.6692,1.6692,1.6692,1.6692,1.6692,1.6692,1.6692,1.6692,1.6692,1.6692,1.6614,5.2507,5.0408,4.757,4.5189,4.3814,4.2382,0.0,3.8508,3.6232,3.4194,3.206,2.9908,2.7672,2.7825,2.8011,2.7069,2.5279,2.3033,2.1128,1.8478,1.6163,1.4064,1.3316,1.2972,1.3236,1.3685,1.3847,1.3207,0.5893,0.16,0.16,0.1605,0.1148,-0.0,0.069,0.1842,0.2994,0.1151,-0.0,-0.0,0.2072,0.2994,0.2994,0.0921,-0.0,0.023,0.2297,0.3213,0.3436,0.229,0.1832,0.1835,0.3258,0.3739,0.3267,0.0935,-0.0,-0.0,-0.0,-0.0,-0.0,-0.0,-0.0,-0.0,-0.0,-0.0,-0.0,-0.0,-0.0,-0.0,-0.0,-0.0,-0.0,-0.0,0.6874,1.3584,1.3534,1.0029,0.6759,0.677,0.7777,1.03,1.5149,1.5799,1.5727,1.6479,1.6245,1.5714,1.5714,1.6229,1.6744,1.6744,1.6713,1.6692,1.6692,1.6692,1.6681,1.6655,1.6655,1.6644,1.6618,1.6618,1.6618,1.6618,1.6644,1.6655,1.6655,1.6655,1.6665,1.6692,1.6692,1.6409,0.0,0.0,0.0,0.0,0.0,0.0,0.0,4.0579,3.9284,3.7013,3.3933,3.1117,2.9707,2.7594,2.6145,2.6332,2.4037,2.1558,1.9927,1.7523,1.5013,1.29,1.2723,1.3035,1.3468,1.3561,1.2139,0.9083,0.3649,0.0229,0.0229,0.0232,0.0233,-0.0,-0.1891,-0.1665,0.0714,0.0238,-0.0,-0.0,0.0476,0.0714,0.0714,0.0238,-0.0,-0.0,0.0467,0.0695,0.0687,0.0458,0.0458,0.0687,0.2989,0.2511,0.0678,0.0229,-0.0,-0.0,-0.0,-0.0,-0.0,-0.0,-0.0,-0.0,-0.0,-0.0,-0.0,-0.0,-0.0,-0.0,-0.0,-0.0,-0.0,-0.0,0.1473,0.2958,0.3001,0.2258,0.151,0.1526,0.8677,1.5161,1.6386,1.2748,1.1459,1.601,1.2821,0.9919,0.9919,1.385,1.6744,1.6744,1.6713,1.6692,1.6692,1.6692,1.6618,1.6438,1.6427,1.6343,1.6147,1.6142,1.6142,1.6142,1.6332,1.6427,1.6427,1.6427,1.6517,1.6692,1.6692,1.6055,0.0,0.0,0.0,0.0,0.0,0.0,0.0,0.0,0.0,0.0,0.0,3.0783,3.0036,0.0,2.5896,2.6181,2.2949,1.9883,1.9099,1.6072,1.3671,1.2512,1.2824,1.3188,1.3343,1.3816,1.1971,0.67,0.2331,-0.0234,-0.0938,-0.0945,-0.1186,-0.1898,-0.263,-0.2401,-0.096,-0.096,-0.096,-0.096,-0.096,-0.096,-0.096,-0.168,-0.1912,-0.1898,-0.0475,-0.0,-0.0,-0.0,-0.0,0.0226,0.1345,0.1117,-0.0,-0.0,-0.0,-0.0,-0.0,-0.0,-0.0,-0.0,-0.0,-0.0,-0.0,-0.0,-0.0,-0.0,-0.048,-0.072,-0.024,-0.048,-0.0964,-0.0979,-0.0987,-0.0997,-0.1011,-0.153,-0.2055,-0.2069,0.2329,0.6229,0.6273,0.4965,0.5225,0.7854,0.6012,0.4178,0.4178,1.151,1.6787,1.6787,1.6649,1.6554,1.6544,1.6433,1.6316,1.6195,1.6184,1.6131,1.6015,1.601,1.601,1.601,1.6242,1.6364,1.6364,1.6475,1.6586,1.6692,1.5919,1.525,0.0,0.0,0.0,0.0,0.0,0.0,0.0,0.0,0.0,0.0,0.0,0.0,0.0,0.0,0.0,2.6254,2.1942,1.8676,1.8676,1.5019,1.2512,1.2512,1.285,1.303,1.3204,1.309,1.1009,0.5635,0.1429,-0.12,-0.2161,-0.2401,-0.2881,-0.3842,-0.2881,-0.2401,-0.2401,-0.2401,-0.2401,-0.2401,0.0,0.0,-0.2401,-0.3361,-0.3842,-0.3842,-0.168,-0.048,-0.0,-0.0474,-0.0462,-0.0,-0.0,-0.0,-0.0,-0.0,-0.0,-0.0,-0.0,-0.0,-0.0,-0.0,-0.0,-0.0,-0.0,-0.0,0.0,-0.072,-0.12,-0.144,-0.096,-0.144,-0.241,-0.2202,-0.223,-0.2256,-0.2289,-0.3355,-0.4171,-0.391,-0.418,-0.4188,-0.4188,-0.2084,-0.026,-0.026,-0.052,-0.0779,-0.0781,0.9368,1.6692,1.6692,1.5707,1.5059,1.4786,1.5687,1.6084,1.6015,1.6015,1.5989,1.5941,1.5894,1.5894,1.5941,1.6174,1.6295,1.6295,1.6261,1.6391,1.6432,1.5059,1.4097,0.0,0.0,0.0,0.0,0.0,0.0,0.0,0.0,0.0,0.0,0.0,0.0,0.0,0.0,0.0,0.0,2.1759,1.8676,1.8676,1.5019,1.2512,1.2512,1.256,1.294,1.3833,1.0255,0.718,0.5707,-0.0,-0.3601,-0.3602,0.0,0.0,0.0,0.0,-0.3602,-0.3602,-0.3602,-0.3602,-0.3602,-0.3602,-0.3602,-0.3602,-0.3842,-0.3842,-0.3842,-0.3601,-0.216,-0.024,-0.2396,-0.2116,-0.0,-0.0,-0.0,-0.0,-0.0,-0.0,-0.0,-0.0,0.0,0.0,-0.0,-0.0,-0.0,-0.0,-0.0,-0.048,-0.2881,-0.192,-0.072,-0.2881,-0.3601,-0.3616,-0.3671,-0.3689,-0.3708,-0.3759,-0.4068,-0.3853,-0.2568,-0.3373,-0.4188,-0.4188,-0.2819,-0.1771,-0.1794,-0.2797,-0.3548,-0.3847,0.813,1.6708,1.6708,0.0,0.0,0.9282,1.3451,1.6021,1.6301,1.6031,1.5683,1.5703,1.5492,1.5482,1.5693,1.5925,1.6047,1.6047,1.5769,1.5722,1.5909,1.4002,1.319,0.0,0.0,0.0,0.0,0.0,0.0,0.0,0.0,0.0,0.0,0.0,0.0,0.0,0.0,0.0,0.0,2.227,1.9051,1.9051,1.6363,1.3858,1.2512,1.2634,1.1969,1.0247,0.8294,0.5401,0.0471,-0.2387,-0.3842,-0.3842,-0.3842,-0.3842,-0.3842,-0.3842,-0.3842,-0.3842,-0.3842,-0.3842,-0.3842,-0.3842,-0.3842,-0.3842,-0.3842,-0.3842,0.0,-0.3121,-0.2641,-0.2401,-0.3361,-0.3318,0.0,0.0,0.0,0.0,0.0,-0.0,-0.0,-0.0,-0.0449,-0.0907,-0.093,-0.0932,-0.093,-0.1191,-0.1193,-0.1661,-0.2635,-0.2401,-0.2401,-0.3601,-0.3842,-0.3848,-0.3873,-0.3903,-0.3933,-0.3955,-0.4007,-0.3795,-0.3289,-0.3559,0.0,-0.4086,-0.3539,-0.3014,-0.3033,-0.3526,-0.3771,-0.3034,0.151,0.4767,0.4767,0.398,0.5939,1.1894,1.4364,0.0,0.0,0.0,1.5582,1.5455,1.5349,0.0,0.0,0.0,0.0,0.0,0.0,0.0,0.0,1.3412,1.2862,0.0,0.0,0.0,0.0,0.0,0.0,0.0,0.0,0.0,0.0,0.0,0.0,0.0,0.0,0.0,0.0,0.0,2.0041,1.9565,1.7376,1.5044,1.2792,1.251,1.1134,0.7551,0.6704,0.3569,-0.3234,-0.3775,-0.3817,-0.3817,-0.3833,-0.3842,-0.3842,-0.3842,-0.3842,-0.3842,-0.3842,-0.3842,-0.3842,-0.3842,-0.3842,-0.3842,-0.3842,-0.3842,-0.3842,-0.2881,-0.3121,-0.3841,-0.3585,-0.3546,-0.3722,-0.318,-0.2228,-0.0878,-0.0878,-0.0658,-0.0,-0.0664,-0.1558,-0.2246,-0.2309,-0.2319,-0.2317,-0.2381,-0.262,-0.2839,-0.2632,-0.3121,-0.3842,-0.3842,-0.3842,-0.3842,-0.3842,-0.3873,-0.3901,-0.3901,-0.3947,-0.3987,-0.3987,-0.3975,-0.3964,-0.3964,-0.3964,-0.397,-0.3986,-0.3975,0.0,-0.249,-0.3231,-0.3722,-0.3474,-0.172,0.2439,0.9518,0.995,1.1588,1.5137,1.5423,1.5413,1.5318,1.5371,1.5365,1.5302,1.5118,1.4782,0.0,0.0,0.0,0.0,0.0,0.0,0.0,0.0,0.0,0.0,0.0,0.0,0.0,0.0,0.0,0.0,0.0,0.0,0.0,0.0,0.0,0.0,0.0,0.0,2.0081,1.7702,1.5503,1.3023,1.2075,1.0534,0.762,0.5255,0.1725,-0.335,-0.369,-0.3756,-0.3756,-0.3811,-0.3842,-0.3842,-0.3842,-0.3842,-0.3842,-0.3842,-0.3842,-0.3842,-0.3842,-0.3842,-0.3842,-0.3842,-0.3842,-0.3842,-0.3842,-0.3842,-0.3837,-0.2598,-0.2791,-0.3669,-0.2519,-0.2493,-0.3351,-0.3351,-0.201,-0.0223,-0.2633,-0.3308,-0.3363,-0.342,-0.3706,-0.3763,-0.3585,-0.3841,-0.384,-0.3841,-0.3842,-0.3842,-0.3842,-0.3842,-0.3842,-0.3842,-0.3844,-0.3845,-0.3845,-0.3887,-0.3926,-0.3926,-0.3884,-0.3848,-0.3848,-0.3848,-0.3865,-0.3918,-0.3881,0.0,-0.3919,-0.388,-0.3366,-0.2164,-0.1922,-0.2162,-0.3123,-0.3409,0.195,1.4475,1.5366,1.5366,1.536,1.554,1.5534,1.5307,1.5027,1.4757,1.4001,0.0,0.0,0.0,0.0,0.0,0.0,0.0,0.0,0.0,0.0,0.0,0.0,0.0,0.0,0.0,0.0,0.0,0.0,0.0,0.0,0.0,0.0,0.0,0.0,0.0,1.8979,1.5406,1.4571,1.2914,0.9001,0.7388,0.4512,-0.0445,-0.1128,-0.2053,-0.3693,-0.3752,-0.3784,-0.3784,-0.3821,-0.3842,-0.3842,-0.3842,-0.3842,-0.3842,-0.3842,-0.3842,-0.3842,-0.3842,-0.3842,-0.3842,-0.3842,-0.382,-0.3785,-0.3329,-0.3498,-0.3603,-0.3118,-0.3094,-0.3299,-0.2639,-0.1759,-0.1318,-0.2403,-0.3064,-0.3528,-0.3588,-0.3595,-0.3597,-0.3695,-0.3726,-0.3734,-0.3772,-0.3812,-0.3842,-0.3842,-0.3842,-0.3842,-0.3842,-0.3842,-0.3842,-0.3842,-0.3856,-0.3869,-0.3869,-0.3823,-0.3784,-0.3784,-0.3816,-0.3836,-0.3815,-0.3828,-0.3849,-0.3868,-0.3853,-0.3602,-0.3361,-0.3121,-0.3361,-0.3842,-0.3136,0.0482,0.7433,0.7704,0.9146,1.197,1.3947,1.498,1.5534,1.5449,1.4967,1.4333,0.0,0.0,0.0,0.0,0.0,0.0,0.0,0.0,0.0,0.0,0.0,0.0,0.0,0.0,0.0,0.0,0.0,0.0,0.0,0.0,0.0,0.0,0.0,0.0,0.0,0.0,1.7728,1.6329,0.0,1.0644,0.9065,0.6411,0.2624,0.0886,-0.0672,-0.2041,-0.2997,-0.3722,-0.3722,-0.3759,-0.3779,-0.3779,-0.3779,-0.3779,-0.3779,-0.3779,-0.3779,-0.3779,-0.3779,-0.3779,-0.3779,-0.3779,-0.3758,-0.3722,-0.3718,-0.3624,-0.3481,-0.3464,-0.3458,-0.3242,-0.2593,-0.2377,-0.2378,-0.2593,-0.3014,-0.3438,-0.3495,-0.3516,-0.3531,-0.3587,-0.3617,-0.3642,-0.3681,-0.3718,-0.3758,-0.38,-0.3811,-0.3816,-0.3837,-0.3842,-0.3842,-0.3842,-0.3825,-0.3817,-0.3838,-0.3812,-0.3779,-0.3758,-0.3785,-0.3797,-0.3759,-0.3787,-0.3819,-0.384,-0.3842,-0.3842,-0.3842,-0.3842,-0.3842,-0.3842,-0.3121,-0.1679,0.0958,0.2633,0.5742,1.1254,1.22,1.3455,1.4811,1.4811,1.474,0.0,0.0,0.0,0.0,0.0,0.0,0.0,0.0,0.0,0.0,0.0,0.0,0.0,0.0,0.0,0.0,0.0,0.0,0.0,0.0,0.0,0.0,0.0,0.0,0.0,0.0,0.0,1.9982,1.7306,0.0,0.0,0.0,0.0,0.5717,0.2839,0.1113,0.1114,-0.1813,-0.3431,-0.3428,-0.366,-0.366,-0.3657,-0.3657,-0.3657,-0.3657,-0.3657,-0.3657,-0.3657,-0.3657,-0.3657,-0.3657,-0.3657,-0.3654,-0.3644,-0.3531,-0.3418,-0.3323,-0.3381,-0.3192,-0.3192,-0.3192,-0.3408,-0.3411,-0.3404,-0.3367,-0.3331,-0.338,-0.3473,-0.3554,-0.3498,-0.3523,0.0,0.0,-0.3577,-0.3608,-0.3719,-0.3748,-0.3764,-0.3824,-0.3836,-0.3834,-0.3841,-0.3796,-0.3768,0.0,-0.3824,-0.3807,-0.375,0.0,-0.3744,-0.3744,-0.375,-0.3774,-0.3831,-0.384,-0.3842,-0.3842,-0.3842,-0.3842,-0.3842,-0.3842,-0.3842,-0.3842,-0.0,0.5505,1.2733,1.0773,1.0762,1.3413,1.3413,0.0,0.0,0.0,0.0,0.0,0.0,0.0,0.0,0.0,0.0,0.0,0.0,0.0,0.0,0.0,0.0,0.0,0.0,0.0,0.0,0.0,0.0,0.0,0.0,0.0,0.0,2.7912,2.6518,2.2395,2.1648,2.0181,0.0,0.0,0.0,0.0,0.0,0.0,0.4153,0.1335,-0.0,0.0662,-0.2234,-0.3802,-0.3756,-0.3756,-0.3535,-0.3535,-0.3535,-0.3535,-0.3535,-0.3535,-0.3535,-0.3535,-0.3535,-0.351,-0.3466,-0.3436,-0.3405,-0.3384,-0.3228,-0.2816,-0.2166,-0.2166,-0.26,-0.3246,-0.3416,-0.3392,-0.3165,-0.2511,-0.231,-0.2325,-0.2315,0.0,0.0,0.0,0.0,-0.365,-0.3681,-0.3687,-0.3703,-0.3763,-0.3743,-0.3735,-0.3823,-0.3796,-0.3719,0.0,-0.358,-0.3575,-0.356,0.0,0.0,0.0,0.0,-0.3759,-0.3774,-0.3815,-0.3842,-0.3842,-0.3842,-0.3842,-0.3842,-0.3842,-0.3842,-0.3842,-0.0959,0.2634,0.6944,0.7662,1.0054,1.4123,0.0,0.0,0.0,0.0,0.0,0.0,0.0,0.0,0.0,0.0,0.0,0.0,0.0,0.0,0.0,0.0,0.0,0.0,0.0,0.0,0.0,0.0,0.0,0.0,0.0,0.0,0.0,3.1043,2.9379,2.5863,2.5001,2.3789,0.0,0.0,0.0,0.0,0.0,0.0,0.0,0.0,0.0,0.3226,0.1078,-0.0,-0.0,-0.0855,-0.1278,-0.1065,-0.2771,-0.3412,-0.3412,-0.3412,-0.3412,-0.3412,-0.3412,-0.3365,-0.3289,-0.3289,-0.3289,-0.3291,0.0,0.0,0.0,0.0,-0.2712,-0.3124,-0.2681,-0.226,0.0,-0.1219,0.0,0.0,0.0,0.0,0.0,0.0,0.0,0.0,0.0,0.0,-0.3681,-0.3739,-0.3728,-0.3709,-0.3723,-0.2285,-0.1346,0.0,-0.3546,-0.3519,-0.3494,0.0,0.0,0.0,0.0,-0.3734,-0.3785,-0.3821,-0.3842,-0.3842,-0.3842,-0.3842,-0.3842,-0.3842,-0.3842,-0.3842,-0.2399,-0.024,0.3113,0.5233,0.8055,0.0,0.0,0.0,0.0,0.0,0.0,0.0,0.0,0.0,0.0,0.0,0.0,0.0,0.0,0.0,0.0,0.0,0.0,0.0,0.0,0.0,0.0,0.0,0.0,0.0,0.0,0.0,0.0,0.0,3.1483,2.9415,0.0,0.0,0.0,0.0,0.0,0.0,0.0,0.0,0.0,0.0,0.0,0.0,0.0,0.4954,0.524,0.3514,0.2462,0.2051,-0.1232,-0.2881,-0.3302,-0.3294,-0.3294,-0.3301,-0.3286,0.0,-0.3131,-0.2935,0.0,0.0,0.0,0.0,0.0,0.0,0.0,0.0,0.0,0.0,0.0,0.0,0.0,0.0,0.0,0.0,0.0,0.0,0.0,0.0,0.0,0.0,-0.2731,-0.277,-0.278,-0.2755,0.0,0.0863,0.1925,-0.2006,-0.2668,0.0,0.0,0.0,0.0,0.0,0.0,0.0,-0.3805,-0.3833,-0.3842,-0.3842,-0.3842,-0.3842,-0.3842,-0.3842,-0.3842,-0.3842,-0.3834,-0.2392,0.1194,0.2592,0.0,0.0,0.0,0.0,0.0,0.0,0.0,0.0,0.0,0.0,0.0,0.0,0.0,0.0,0.0,0.0,0.0,0.0,0.0,0.0,0.0,0.0,0.0,0.0,0.0,0.0,0.0,0.0,0.0,0.0,0.0,0.0,0.0,0.0,0.0,0.0,0.0,0.0,0.0,0.0,0.0,0.0,0.0,0.0,0.0,0.0,0.0,0.0,0.0,0.0,0.0989,-0.1198,-0.3244,-0.3195,-0.32,-0.324,-0.2553,-0.2703,-0.307,0.0,0.0,0.0,0.0,0.0,0.0,0.0,0.0,0.0,0.0,0.0,0.0,0.0,0.0,0.0,0.0,0.0,0.0,0.0,0.0,0.0,0.0,0.0,0.0,0.0,0.1296,0.2568,0.0,0.0,0.0,0.0,0.0,0.0,0.0,0.0,0.0,0.0,0.0,0.0,-0.3687,-0.3781,-0.3842,-0.3842,-0.3842,-0.3842,-0.3842,-0.3842,-0.3842,-0.3842,-0.3796,-0.2354,0.0,0.0,0.0,0.0,0.0,0.0,0.0,0.0,0.0,0.0,0.0,0.0,0.0,0.0,0.0,0.0,0.0,0.0,0.0,0.0,0.0,0.0,0.0,0.0,0.0,0.0,0.0,0.0,0.0,0.0,0.0,0.0,0.0,0.0,0.0,0.0,0.0,0.0,0.0,0.0,0.0,0.0,0.0,0.0,0.0,0.0,0.0,0.0,0.0,0.0,0.0,0.0,0.0,0.0,0.0,0.0,0.0,0.0,0.0,-0.0547,0.0,0.0,0.0,0.0,0.0,0.0,0.0,0.0,0.0,0.0,0.0,0.0,0.0,0.0,0.0,0.0,0.0,0.0,0.0,0.0,0.0,0.0,0.0,0.0,0.0,0.0,0.0,0.0,0.0,0.0,0.0,0.0,0.0,0.0,0.0,0.0,0.0,0.0,0.0,0.0,-0.3895,-0.3793,-0.3873,-0.3845,-0.3842,-0.3842,-0.3842,-0.3842,-0.3842,-0.3842,-0.3992,0.0,0.0,0.0,0.0,0.0,0.0,0.0,0.0,0.0,0.0,0.0,0.0,0.0,0.0,0.0,0.0,0.0,0.0,0.0,0.0,0.0,0.0,0.0,0.0,0.0,0.0,0.0,0.0,0.0,0.0,0.0,0.0,0.0,0.0,0.0,0.0,0.0,0.0,0.0,0.0,0.0,0.0,0.0,0.0,0.0,0.0,0.0,0.0,0.0,0.0,0.0,0.0,0.0,0.0,0.0,0.0,0.0,0.0,0.0,0.1984,0.0,0.0,0.0,0.0,0.0,0.0,0.0,0.0,0.0,0.0,0.0,0.0,0.0,0.0,0.0,0.0,0.0,0.0,0.0,0.0,0.0,0.0,0.0,0.0,0.0,0.0,0.0,0.0,0.0,0.0,0.0,0.0,0.0,0.0,0.0,0.0,0.0,0.0,0.0,0.0,0.0,-0.3669,-0.3807,-0.389,-0.3846,-0.3842,-0.3842,-0.3842,-0.3842,-0.3832,-0.3807,-0.3717,0.0,0.0,0.0,0.0,0.0,0.0,0.0,0.0,0.0,0.0,0.0,0.0,0.0,0.0,0.0,0.0,0.0,0.0,0.0,0.0,0.0,0.0,0.0,0.0,0.0,0.0,0.0,0.0,0.0,0.0,0.0,0.0,0.0,0.0,0.0,0.0,0.0,0.0,0.0,0.0,0.0,0.0,0.0,0.0,0.0,0.0,0.0,0.0,0.0,0.0,0.0,0.0,0.0,0.0,0.0,0.0,0.0,0.0,0.0,0.0,0.0,0.0,0.0,0.0,0.0,0.0,0.0,0.0,0.0,0.0,0.0,0.0,0.0,0.0,0.0,0.0,0.0,0.0,0.0,0.0,0.0,0.0,0.0,0.0,0.0,0.0,0.0,0.0,0.0,0.0,0.0,0.0,0.0,0.0,0.0,0.0,0.0,0.0,0.0,0.0,0.0,-0.3195,-0.3774,-0.3848,-0.3842,-0.3842,-0.3842,-0.3842,-0.3842,-0.3796,-0.3919,0.0,0.0,0.0,0.0,0.0,0.0,0.0,0.0,0.0,0.0,0.0,0.0,0.0,0.0,0.0,0.0,0.0,0.0,0.0,0.0,0.0,0.0,0.0,0.0,0.0,0.0,0.0,0.0,0.0,0.0,0.0,0.0,0.0,0.0,0.0,0.0,0.0,0.0,0.0,0.0,0.0,0.0,0.0,0.0,0.0,0.0,0.0,0.0,0.0,0.0,0.0,0.0,0.0,0.0,0.0,0.0,0.0,0.0,0.0,0.0,0.0,0.0,0.0,0.0,0.0,0.0,0.0,0.0,0.0,0.0,0.0,0.0,0.0,0.0,0.0,0.0,0.0,0.0,0.0,0.0,0.0,0.0,0.0,0.0,0.0,0.0,0.0,0.0,0.0,0.0,0.0,0.0,0.0,0.0,0.0,0.0,0.0,0.0,0.0,0.0,0.0,0.0,-0.0,-0.2391,-0.393,-0.3895,-0.3891,-0.3878,-0.3845,-0.3809,-0.3768,-0.3954,0.0,0.0,0.0,0.0,0.0,0.0,0.0,0.0,0.0,0.0,0.0,0.0,0.0,0.0,0.0,0.0,0.0,0.0,0.0,0.0,0.0,0.0,0.0,0.0,0.0,0.0,0.0,0.0,0.0,0.0,0.0,0.0,0.0,0.0,0.0,0.0,0.0,0.0,0.0,0.0,0.0,0.0,0.0,0.0,0.0,0.0,0.0,0.0,0.0,0.0,0.0,0.0,0.0,0.0,0.0,0.0,0.0,0.0,0.0,0.0,0.0,0.0,0.0,0.0,0.0,0.0,0.0,0.0,0.0,0.0,0.0,0.0,0.0,0.0,0.0,0.0,0.0,0.0,0.0,0.0,0.0,0.0,0.0,0.0,0.0,0.0,0.0,0.0,0.0,0.0,0.0,0.0,0.0,0.0,0.0,0.0,0.0,0.0,0.0,0.0,0.0,0.0,0.3197,-0.1203,-0.3972,-0.393,-0.3939,-0.3934,-0.3895,-0.3345,-0.3294,-0.373,0.0,0.0,0.0,0.0,0.0,0.0,0.0,0.0,0.0,0.0,0.0,0.0,0.0,0.0,0.0,0.0,0.0,0.0,0.0,0.0,0.0,0.0,0.0,0.0,0.0,0.0,0.0,0.0,0.0,0.0,0.0,0.0,0.0,0.0,0.0,0.0,0.0,0.0,0.0,0.0,0.0,0.0,0.0,0.0,0.0,0.0,0.0,0.0,0.0,0.0,0.0,0.0,0.0,0.0,0.0,0.0,0.0,0.0,0.0,0.0,0.0,0.0,0.0,0.0,0.0,0.0,0.0,0.0,0.0,0.0,0.0,0.0,0.0,0.0,0.0,0.0,0.0,0.0,0.0,0.0,0.0,0.0,0.0,0.0,0.0,0.0,0.0,0.0,0.0,0.0,0.0,0.0,0.0,0.0,0.0,0.0,0.0,0.0,0.0,0.0,0.0,0.0,0.5239,-0.0239,-0.4177,-0.4175,-0.3979,-0.4011,-0.4009,-0.2685,-0.2369,0.0,0.0,0.0,0.0,0.0,0.0,0.0,0.0,0.0,0.0,0.0,0.0,0.0,0.0,0.0,0.0,0.0,0.0,0.0,0.0,0.0,0.0,0.0,0.0,0.0,0.0,0.0,0.0,0.0,0.0,0.0,0.0,0.0,0.0,0.0,0.0,0.0,0.0,0.0,0.0,0.0,0.0,0.0,0.0,0.0,0.0,0.0,0.0,0.0,0.0,0.0,0.0,0.0,0.0,0.0,0.0,0.0,0.0,0.0,0.0,0.0,0.0,0.0,0.0,0.0,0.0,0.0,0.0,0.0,0.0,0.0,0.0,0.0,0.0,0.0,0.0,0.0,0.0,0.0,0.0,0.0,0.0,0.0,0.0,0.0,0.0,0.0,0.0,0.0,0.0,0.0,0.0,0.0,0.0,0.0,0.0,0.0,0.0,0.0,0.0,0.0,0.0,0.0,0.3856,0.1652,-0.0243,0.0,-0.2523,-0.2272,-0.1238,-0.1683,-0.164,-0.1147,0.0,0.0,0.0,0.0,0.0,0.0,0.0,0.0,0.0,0.0,0.0,0.0,0.0,0.0,0.0,0.0,0.0,0.0,0.0,0.0,0.0,0.0,0.0,0.0,0.0,0.0,0.0,0.0,0.0,0.0,0.0,0.0,0.0,0.0,0.0,0.0,0.0,0.0,0.0,0.0,0.0,0.0,0.0,0.0,0.0,0.0,0.0,0.0,0.0,0.0,0.0,0.0,0.0,0.0,0.0,0.0,0.0,0.0,0.0,0.0,0.0,0.0,0.0,0.0,0.0,0.0,0.0,0.0,0.0,0.0,0.0,0.0,0.0,0.0,0.0,0.0,0.0,0.0,0.0,0.0,0.0,0.0,0.0,0.0,0.0,0.0,0.0,0.0,0.0,0.0,0.0,0.0,0.0,0.0,0.0,0.0,0.0,0.0,0.0,0.0,0.0,0.0,0.0,0.7064,0.5126,0.0,-0.127,-0.0763,-0.0,-0.0729,-0.0709,-0.0,0.0,0.0,0.0,0.0,0.0,0.0,0.0,0.0,0.0,0.0,0.0,0.0,0.0,0.0,0.0,0.0,0.0,0.0,0.0,0.0,0.0,0.0,0.0,0.0,0.0,0.0,0.0,0.0,0.0,0.0,0.0,0.0,0.0,0.0,0.0,0.0,0.0,0.0,0.0,0.0,0.0,0.0,0.0,0.0,0.0,0.0,0.0,0.0,0.0,0.0,0.0,0.0,0.0,0.0,0.0,0.0,0.0,0.0,0.0,0.0,0.0,0.0,0.0,0.0,0.0,0.0,0.0,0.0,0.0,0.0,0.0,0.0,0.0,0.0,0.0,0.0,0.0,0.0,0.0,0.0,0.0,0.0,0.0,0.0,0.0,0.0,0.0,0.0,0.0,0.0,0.0,0.0,0.0,0.0,0.0,0.0,0.0,0.0,0.0,0.0,0.0,0.0,0.0,1.3933,1.1324,0.2001,0.0507,-0.0,-0.0,-0.0,0.0242,0.0468,0.8504,0.0,0.0,0.0,0.0,0.0,0.0,0.0,0.0,0.0,0.0,0.0,0.0,0.0,0.0,0.0,0.0,0.0,0.0,0.0,0.0,0.0,0.0,0.0,0.0,0.0,0.0,0.0,0.0,0.0,0.0,0.0,0.0,0.0,0.0,0.0,0.0,0.0,0.0,0.0,0.0,0.0,0.0,0.0,0.0,0.0,0.0,0.0,0.0,0.0,0.0,0.0,0.0,0.0,0.0,0.0,0.0,0.0,0.0,0.0,0.0,0.0,0.0,0.0,0.0,0.0,0.0,0.0,0.0,0.0,0.0,0.0,0.0,0.0,0.0,0.0,0.0,0.0,0.0,0.0,0.0,0.0,0.0,0.0,0.0,0.0,0.0,0.0,0.0,0.0,0.0,0.0,0.0,0.0,0.0,0.0,0.0,0.0,0.0,0.0,0.0,0.0,0.0,1.1217,0.9928,1.1565,0.4703,-0.0,-0.0,-0.0,0.1428,0.5071,1.0341,0.0,0.0,0.0,0.0,0.0,0.0,0.0,0.0,0.0,0.0,0.0,0.0,0.0,0.0,0.0,0.0,0.0,0.0,0.0,0.0,0.0,0.0,0.0,0.0,0.0,0.0,0.0,0.0,0.0,0.0,0.0,0.0,0.0,0.0,0.0,0.0,0.0,0.0,0.0,0.0,0.0,0.0,0.0,0.0,0.0,0.0,0.0,0.0,0.0,0.0,0.0,0.0,0.0,0.0,0.0,0.0,0.0,0.0,0.0,0.0,0.0,0.0,0.0,0.0,0.0,0.0,0.0,0.0,0.0,0.0,0.0,0.0,0.0,0.0,0.0,0.0,0.0,0.0,0.0,0.0,0.0,0.0,0.0,0.0,0.0,0.0,0.0,0.0,0.0,0.0,0.0,0.0,0.0,0.0,0.0,0.0,0.0,0.0,0.0,0.0,0.0,0.0,1.4497,1.3248,1.5272,0.9913,0.4583,0.0486,0.1929,0.426,0.6876,1.115,0.0,0.0,0.0,0.0,0.0,0.0,0.0,0.0,0.0,0.0,0.0,0.0,0.0,0.0,0.0,0.0,0.0,0.0,0.0,0.0,0.0,0.0,0.0,0.0,0.0,0.0,0.0,0.0,0.0,0.0,0.0,0.0,0.0,0.0,0.0,0.0,0.0,0.0,0.0,0.0,0.0,0.0,0.0,0.0,0.0,0.0,0.0,0.0,0.0,0.0,0.0,0.0,0.0,0.0,0.0,0.0,0.0,0.0,0.0,0.0,0.0,0.0,0.0,0.0,0.0,0.0,0.0,0.0,0.0,0.0,0.0,0.0,0.0,0.0,0.0,0.0,0.0,0.0,0.0,0.0,0.0,0.0,0.0,0.0,0.0,0.0,0.0,0.0,0.0,0.0,0.0,0.0,0.0,0.0,0.0,0.0,0.0,0.0,0.0,0.0,0.0,0.0,0.0,1.7774,1.6049,1.4108,0.9618,0.1666,0.4773,0.7307,0.7988,0.0,0.0,0.0,0.0,0.0,0.0,0.0,0.0,0.0,0.0,0.0,0.0,0.0,0.0,0.0,0.0,0.0,0.0,0.0,0.0,0.0,0.0,0.0,0.0,0.0,0.0,0.0,0.0,0.0,0.0,0.0,0.0,0.0,0.0,0.0,0.0,0.0,0.0,0.0,0.0,0.0,0.0,0.0,0.0,0.0,0.0,0.0,0.0,0.0,0.0,0.0,0.0,0.0,0.0,0.0,0.0,0.0,0.0,0.0,0.0,0.0,0.0,0.0,0.0,0.0,0.0,0.0,0.0,0.0,0.0,0.0,0.0,0.0,0.0,0.0,0.0,0.0,0.0,0.0,0.0,0.0,0.0,0.0,0.0,0.0,0.0,0.0,0.0,0.0,0.0,0.0,0.0,0.0,0.0,0.0,0.0,0.0,0.0,0.0,0.0,0.0,0.0,0.0,0.0,0.0,1.8528,1.227,0.7469,0.5979,0.6522,0.88,1.3037,0.0,0.0,0.0,0.0,0.0,0.0,0.0,0.0,0.0,0.0,0.0,0.0,0.0,0.0]}],[{"header":{"parameterUnit":"kt","parameterCategory":2,"dx":1,"dy":1,"la1":29.285339999999998,"la2":30.599998999999997,"lo1":-89.70041500000002,"lo2":-87.6738589999976,"nx":112,"ny":82,"refTime":"2022-09-28T12:00:00:Z","depth":0,"parameterNumber":2,"parameterNumberName":"V-component_of_WINDS"},"data":[-7.0971,-7.316,0.0,-7.0721,-7.3886,0.0,-8.0584,-7.9437,-7.6907,-7.3089,-7.0692,-6.9889,-7.1897,-7.0605,-6.9194,-6.918,-6.6906,-6.2888,0.0,-5.6542,0.0,0.0,-5.4666,-5.4523,-5.345,0.0,0.0,0.0,0.0,0.0,0.0,0.0,-5.8643,-5.6776,-5.8749,-5.9681,-5.9075,-6.0083,-6.0664,-6.0664,-6.0664,-6.0664,-6.0664,-6.1084,-6.1461,-6.1461,-6.1461,-6.1461,-6.1546,-6.2544,-6.4297,-6.6436,-7.0213,-7.3822,-7.7369,-8.1193,-8.2253,-8.1308,-7.8935,-7.7643,-7.693,-7.6535,-7.6403,-7.6403,-7.6403,-7.6403,-7.6482,-7.6904,-7.6719,-7.68,-7.8345,-7.8752,-7.9561,-8.1698,-8.2993,-8.4356,-8.6294,-8.7968,-8.9602,-9.1228,-9.2145,-9.2831,-9.3127,-9.3496,-9.3619,-9.3189,-9.3496,-9.4264,-9.5585,-9.5738,-9.6076,-9.6936,-9.7028,-9.7028,-9.7028,-9.7028,-9.7028,-9.7028,-9.7028,-9.7028,-9.7028,-9.7028,-9.6967,-9.6936,-9.6936,-9.6967,-9.6936,-9.6967,-9.7028,-9.7028,-9.7028,-9.7028,0.0,0.0,-7.4123,-7.0648,0.0,-7.7377,-7.54,-7.5012,-7.3904,-7.0022,-6.9193,-6.9099,-6.8747,-6.7499,-6.6494,-6.6442,-6.4204,-6.0853,0.0,-5.5151,0.0,0.0,0.0,0.0,0.0,0.0,0.0,0.0,0.0,0.0,0.0,-5.7545,-5.6877,-5.425,-5.7118,-5.8405,-5.7801,-6.0296,-6.1461,-6.1461,-6.1461,-6.1461,-6.1461,-6.1461,-6.1461,-6.1461,-6.1461,-6.1652,-6.2034,-6.3781,-6.5954,-6.8312,-7.2296,-7.5738,-7.8756,-8.1734,-8.2047,-8.0781,-7.8803,-7.7352,-7.6403,-7.6403,-7.6403,-7.6403,-7.6403,-7.6403,-7.6403,-7.6403,-7.6866,-7.7495,-7.8593,-7.9726,-8.135,-8.3645,-8.4598,-8.5623,-8.7598,-8.8256,-8.9094,-9.0541,-9.1443,-9.1796,-9.1484,-9.1906,-9.239,-9.239,-9.3158,-9.408,-9.4909,-9.5431,-9.6045,-9.6936,-9.7028,-9.7028,-9.7028,-9.7028,-9.7028,-9.7028,-9.7028,-9.7028,-9.7028,-9.7028,-9.7028,-9.7028,-9.7028,-9.7028,-9.7028,-9.7028,-9.7028,-9.7028,-9.7028,-9.7028,-7.761,-7.3448,-6.929,-7.0434,-7.408,-7.6015,-7.0237,-6.8962,-6.9043,-6.9031,-6.8948,-6.8637,-6.7828,-6.4128,-6.1174,-6.1144,-6.1153,0.0,0.0,-5.5509,0.0,0.0,0.0,0.0,0.0,0.0,0.0,0.0,0.0,0.0,-5.6403,-5.6444,-5.5044,-5.1854,-5.5643,-5.7114,-5.5538,-5.9407,-6.1461,-6.1461,-6.1461,-6.1461,-6.1461,-6.1461,-6.1461,-6.1461,-6.1461,-6.2034,-6.3215,-6.6295,-6.926,-7.207,-7.6729,-7.9565,-8.1064,-8.1489,-8.0886,-7.97,-7.8513,-7.7352,-7.6403,-7.6403,-7.6403,-7.6403,-7.6403,-7.6403,-7.6377,-7.6377,-7.7665,-7.8926,-7.9065,-8.1698,-8.4138,-8.4292,-8.5567,-8.6641,-8.6641,-8.6935,-8.7589,-8.8885,-8.9719,-9.0763,-9.2137,-9.1545,-9.0916,-9.0916,-9.3189,-9.4909,-9.497,-9.6137,-9.6997,-9.7028,-9.7028,-9.7028,-9.7028,-9.7028,-9.7028,-9.7028,-9.7028,-9.7028,-9.7028,-9.7028,-9.7028,-9.7028,-9.7028,-9.7028,-9.7028,-9.7028,-9.7028,-9.7028,-9.7028,-9.7028,-7.0735,-6.8233,-6.4795,-6.5034,-6.6133,-6.6646,-6.5023,-6.4683,-6.473,-6.4716,-6.4029,0.0,0.0,0.0,-6.0571,-5.8717,0.0,-5.848,0.0,-5.4339,0.0,0.0,0.0,0.0,0.0,0.0,0.0,0.0,0.0,0.0,-5.5024,-5.5227,-5.4566,-5.2533,-5.5342,-5.6808,-5.6197,-5.9696,-6.1461,-6.1461,-6.1461,-6.1461,-6.1461,-6.1461,-6.1461,-6.1461,-6.1461,-6.2392,-6.4343,-6.7058,-7.0067,-7.31,-7.7496,-8.0052,-8.1515,-8.1572,-8.0359,-7.8566,-7.8223,-7.7352,-7.6403,-7.6403,-7.7181,-7.7976,-7.6694,-7.7181,-7.8285,-7.8285,-7.8593,-7.9561,-8.2017,-8.349,-8.4445,-8.5688,-8.6344,-8.6641,-8.6641,-8.6788,-8.7055,-8.771,-8.8239,-8.8827,-8.9512,-8.9555,-8.9564,-8.9564,-9.1008,-9.2452,-9.3496,-9.4786,-9.5953,-9.6936,-9.7028,-9.7028,-9.7028,-9.7028,-9.7028,-9.7028,-9.7028,-9.7028,-9.7028,-9.7028,-9.7028,-9.7028,-9.7028,-9.7028,-9.7028,-9.7028,-9.7028,-9.7028,-9.7028,-9.7028,-6.5997,-6.4765,-6.2946,-6.2999,-6.2631,-6.2247,-6.2196,-6.2228,-6.2277,-6.2285,0.0,0.0,0.0,0.0,0.0,0.0,-5.6542,0.0,0.0,0.0,0.0,0.0,0.0,0.0,0.0,0.0,0.0,0.0,0.0,-5.5976,-5.4203,-5.4477,-5.4372,-5.3572,-5.5773,-5.7217,-5.7217,-6.0055,-6.1461,-6.1461,-6.1461,-6.1461,-6.1461,-6.1461,-6.1461,-6.1461,-6.2627,-6.3916,-6.5657,-6.9776,-7.2801,-7.5457,-7.9499,-8.1233,-8.1598,-8.1124,-7.9726,-7.8038,-7.7563,-7.6957,-7.6403,-7.6403,-7.7495,-7.8926,-7.8675,-7.9313,-8.0109,-8.0109,-8.057,-8.1538,-8.3645,-8.4751,-8.5538,-8.6493,-8.6641,-8.6641,-8.6641,-8.6788,-8.6935,-8.7228,-8.7725,-8.8188,-8.8474,-8.8759,-8.9042,-8.9042,-9.0639,-9.2175,-9.3005,-9.4725,-9.6168,-9.6967,-9.7028,-9.7028,-9.7028,-9.7028,-9.7028,-9.7028,-9.7028,-9.7028,-9.7028,-9.7028,-9.7028,-9.7028,-9.7028,-9.7028,-9.7028,-9.7028,-9.7028,-9.7028,-9.7028,-9.7028,-6.1948,-6.1946,-6.1912,-6.195,-6.1181,-6.0309,-6.0393,0.0,-6.0357,-6.0312,0.0,0.0,-5.3413,0.0,0.0,0.0,0.0,0.0,0.0,0.0,0.0,0.0,0.0,0.0,0.0,0.0,-5.2144,-5.4369,-5.4294,-5.4243,-5.4517,-5.4517,-5.4576,-5.4714,-5.6832,-5.8049,-5.8049,-6.0245,-6.1461,-6.1461,-6.1461,-6.1461,-6.1461,-6.1461,-6.1461,-6.166,-6.4171,-6.5851,-6.7367,-7.307,-7.6299,-7.8168,-8.1897,-8.2574,-8.1335,-8.0306,-7.9067,-7.7774,-7.6772,-7.6403,-7.6403,-7.6549,-7.7665,-7.9231,-8.1273,-8.1943,-8.1943,-8.1943,-8.3021,-8.4138,-8.4445,-8.5538,-8.6641,-8.6641,-8.6641,-8.6641,-8.6788,-8.7082,-8.7228,-8.7374,-8.8014,-8.8474,-8.8474,-8.8759,-8.9104,-8.9257,-9.1469,-9.3158,-9.3312,-9.5492,-9.7028,-9.7028,-9.7028,-9.7028,-9.7028,-9.7028,-9.7028,-9.7028,-9.7028,-9.7028,-9.7028,-9.7028,-9.7028,-9.7028,-9.7028,-9.7028,-9.7028,-9.7028,-9.7028,-9.7028,-9.7028,-9.7028,-5.5685,-5.5981,-5.5295,-5.5221,-5.5163,-5.4997,0.0,0.0,0.0,0.0,0.0,0.0,0.0,0.0,0.0,0.0,0.0,0.0,0.0,0.0,0.0,0.0,0.0,0.0,0.0,-4.9139,-5.0435,-5.3132,-5.4852,-5.6239,-5.7186,-5.7029,-5.7394,-5.8123,-5.8728,-5.881,-5.881,-6.058,-6.1461,-6.1461,-6.1461,-6.1461,-6.1461,-6.1461,-6.1461,-6.166,-6.4171,-6.6455,-6.8412,-7.383,-7.7269,-7.9195,-8.2301,-8.21,-8.0227,-8.0016,-7.8566,-7.6693,-7.6482,-7.6403,-7.6549,-7.7976,-7.8593,-7.9561,-8.2679,-8.3674,-8.3674,-8.3674,-8.3984,-8.4445,-8.5867,-8.6493,-8.6641,-8.6641,-8.6641,-8.6788,-8.7082,-8.7228,-8.7404,-8.7725,-8.8188,-8.8474,-8.8901,-8.9042,-8.9411,-9.0455,-9.2052,-9.3496,-9.454,-9.6045,-9.7028,-9.7028,-9.7028,-9.7028,-9.7028,-9.7028,-9.7028,-9.7028,-9.7028,-9.7028,-9.7028,-9.7028,-9.7028,-9.7028,-9.7028,-9.7028,-9.7028,-9.7028,-9.7028,-9.7028,-9.7028,-9.7028,-5.392,-5.3966,-5.3463,-5.3399,-5.1269,0.0,0.0,-4.9077,-4.9082,-4.9073,-4.8458,0.0,0.0,0.0,0.0,0.0,0.0,0.0,0.0,0.0,0.0,0.0,0.0,0.0,0.0,-4.7996,-4.9747,-5.1468,-5.4105,-5.6416,-5.8341,-5.8382,-5.9007,-6.0263,-6.0284,-6.0284,-6.0284,-6.1063,-6.1461,-6.1461,-6.1461,-6.1461,-6.1482,-6.243,-6.3195,-6.3586,-6.7126,-6.9312,-7.0871,-7.5926,-7.8687,-7.9783,-8.2493,-8.1941,-7.9937,-7.9937,-7.8434,-7.6403,-7.6403,-7.6403,-7.6694,-7.8453,-7.9589,-8.0733,-8.3334,-8.478,-8.5387,-8.5387,-8.5387,-8.5688,-8.6493,-8.6641,-8.6641,-8.6641,-8.6641,-8.6818,-8.7228,-8.7404,-8.7725,-8.8044,-8.8474,-8.8759,-8.9042,-8.9042,-8.9503,-9.0793,-9.2206,-9.3557,-9.4847,-9.6199,-9.7028,-9.7028,-9.7028,-9.7028,-9.7028,-9.7028,-9.7028,-9.7028,-9.7028,-9.7028,-9.7028,-9.7028,-9.7028,-9.7028,-9.7028,-9.7028,-9.7028,-9.7028,-9.7028,-9.7028,-9.7028,-9.7028,-5.2018,-5.1763,-5.1763,-5.1711,-4.8187,0.0,-4.4738,-4.3818,-4.296,0.0,0.0,0.0,0.0,0.0,0.0,0.0,0.0,0.0,0.0,0.0,0.0,0.0,0.0,0.0,0.0,-4.6876,-4.8974,-4.98,-5.3151,-5.6496,-5.9418,-5.9479,-6.0083,-6.1461,-6.1461,-6.1461,-6.1461,-6.1461,-6.1461,-6.1461,-6.1461,-6.166,-6.2035,-6.3781,-6.5094,-6.6032,-7.0111,-7.2164,-7.3084,-7.7832,-7.9937,-8.0148,-8.2231,-8.1757,-7.9937,-7.9937,-7.8434,-7.6377,-7.6694,-7.6866,-7.7181,-7.9258,-8.0895,-8.242,-8.4138,-8.5538,-8.6641,-8.6641,-8.6641,-8.6641,-8.6641,-8.6641,-8.6641,-8.6641,-8.6641,-8.6818,-8.7258,-8.758,-8.8044,-8.8474,-8.8759,-8.9042,-8.9042,-8.9042,-8.9595,-9.1162,-9.236,-9.368,-9.5216,-9.6383,-9.7028,-9.7028,-9.7028,-9.7028,-9.7028,-9.7028,-9.7028,-9.7028,-9.7028,-9.7028,-9.7028,-9.7028,-9.7028,-9.7028,-9.7028,-9.7028,-9.7028,-9.7028,-9.7028,-9.7028,-9.7028,-9.7028,-4.5753,-4.5635,-4.5688,-4.5653,-4.5222,0.0,-4.4752,-4.0924,-3.6819,0.0,0.0,0.0,0.0,0.0,0.0,0.0,0.0,0.0,0.0,0.0,0.0,0.0,0.0,0.0,0.0,-4.5136,-4.6711,-4.825,-5.2753,-5.7078,-6.1021,-6.1084,-6.1262,-6.1461,-6.1461,-6.1461,-6.1461,-6.1461,-6.1461,-6.1461,-6.1461,-6.243,-6.4149,-6.4343,-6.5817,-6.8021,-7.0844,-7.2164,-7.3084,-7.7832,-7.9937,-8.0069,-8.1335,-8.1045,-7.9937,-7.9937,-7.8434,-7.6549,-7.8144,-7.8593,-7.9258,-8.2521,-8.3645,-8.4138,-8.5867,-8.6493,-8.6641,-8.6641,-8.6641,-8.6641,-8.6641,-8.6641,-8.6641,-8.6641,-8.6641,-8.6965,-8.758,-8.79,-8.8044,-8.8759,-8.9042,-8.9042,-8.9042,-8.9042,-8.9933,-9.2482,-9.3005,-9.4018,-9.6506,-9.6936,-9.7028,-9.7028,-9.7028,-9.7028,-9.7028,-9.7028,-9.7028,-9.7028,-9.7028,-9.7028,-9.7028,-9.7028,-9.7028,-9.7028,-9.7028,-9.7028,-9.7028,-9.7028,-9.7028,-9.7028,-9.7028,-9.7028,-4.4743,-4.4693,-4.4004,-4.1195,0.0,0.0,-3.9644,-3.8098,0.0,0.0,0.0,0.0,0.0,0.0,0.0,0.0,0.0,0.0,0.0,0.0,0.0,0.0,0.0,0.0,0.0,-4.6249,-4.8419,-5.0032,-5.4216,-5.7698,-6.0021,-6.0884,-6.1461,-6.1461,-6.1461,-6.1461,-6.1461,-6.1461,-6.2035,-6.3195,-6.3195,-6.4343,-6.6459,-6.7904,-6.9187,-7.0454,-7.3036,-7.4354,-7.5036,-7.7816,-7.9278,-8.0042,-8.1203,-8.1361,-8.1095,-8.2103,-8.0928,-7.9225,-8.1023,-8.1212,-8.0923,-8.3334,-8.4138,-8.4445,-8.6166,-8.6641,-8.6641,-8.6641,-8.6641,-8.6641,-8.6641,-8.6641,-8.6788,-8.6935,-8.7082,-8.7258,-8.8044,-8.8188,-8.8331,-8.8901,-8.9042,-8.9042,-8.9042,-8.9042,-8.9964,-9.2697,-9.3097,-9.4049,-9.669,-9.7028,-9.7028,-9.7028,-9.7028,-9.7028,-9.7028,-9.7028,-9.7028,-9.7028,-9.7028,-9.7028,-9.7028,-9.7028,-9.7028,-9.7028,-9.7028,-9.7028,-9.7028,-9.7912,-9.8746,-9.9645,-9.9645,-9.9645,-4.2743,0.0,0.0,0.0,0.0,0.0,-3.3733,-3.41,-3.4062,-3.413,0.0,0.0,0.0,0.0,0.0,0.0,0.0,0.0,0.0,0.0,0.0,0.0,0.0,0.0,0.0,0.0,0.0,0.0,-5.4614,-5.7607,-5.828,-6.0192,-6.1461,-6.1461,-6.1461,-6.1461,-6.1461,-6.2035,-6.2999,-6.4537,-6.5117,-6.6459,-6.8537,-7.0551,-7.1827,-7.2907,-7.4732,-7.5831,-7.6456,-7.73,-7.8539,-8.0016,-8.086,-8.1361,-8.1809,-8.3674,-8.2832,-8.0954,-8.3457,-8.3445,-8.2549,-8.4292,-8.4933,-8.5084,-8.6344,-8.6641,-8.6641,-8.6641,-8.6641,-8.6641,-8.6641,-8.6788,-8.6935,-8.7404,-8.7404,-8.7694,-8.8331,-8.8474,-8.8759,-8.8901,-8.9042,-8.9042,-8.9042,-8.9042,-8.9964,-9.2697,-9.3097,-9.4049,-9.669,-9.7028,-9.7028,-9.7028,-9.7028,-9.7028,-9.7028,-9.7028,-9.7028,-9.7028,-9.7028,-9.7028,-9.7028,-9.7028,-9.7028,-9.7028,-9.7028,-9.7182,-9.7609,-9.9157,-10.0394,-10.1452,-10.1452,-10.1452,0.0,0.0,0.0,-3.262,-3.0278,-2.8008,-2.8124,-2.8081,-2.8041,-2.8133,0.0,0.0,0.0,0.0,0.0,0.0,0.0,0.0,0.0,0.0,0.0,0.0,0.0,0.0,0.0,0.0,0.0,0.0,-5.2657,-5.6149,-5.6169,-5.9461,-6.1461,-6.1461,-6.1461,-6.1461,-6.1461,-6.339,-6.4537,-6.4537,-6.665,-6.8537,-7.0417,-7.11,-7.2599,-7.5036,-7.5483,-7.5831,-7.6403,-7.6429,-7.7827,-7.9937,-7.9963,-8.0649,-8.1809,-8.3674,-8.2832,-8.1123,-8.4727,-8.5185,-8.4445,-8.6017,-8.6641,-8.6641,-8.6641,-8.6641,-8.6641,-8.6641,-8.6641,-8.6641,-8.6641,-8.6935,-8.7374,-8.7725,-8.79,-8.79,-8.8331,-8.8759,-8.9042,-8.9042,-8.9042,-8.9042,-8.9042,-8.9042,-8.9964,-9.2697,-9.3097,-9.4049,-9.669,-9.7028,-9.7028,-9.7028,-9.7028,-9.7028,-9.7028,-9.7028,-9.7028,-9.7028,-9.7028,-9.7028,-9.7028,-9.7028,-9.7028,-9.7028,-9.7028,-9.776,-9.922,-10.0677,-10.1452,-10.1452,-10.1452,-10.1452,-3.4716,-3.0832,-2.7324,-2.7255,-2.7549,-2.7837,-2.7873,-2.7758,-2.7993,-2.9028,0.0,0.0,0.0,0.0,0.0,0.0,0.0,0.0,0.0,0.0,0.0,0.0,0.0,0.0,0.0,0.0,0.0,0.0,0.0,0.0,-5.8694,-5.9776,-6.0824,-6.144,-6.1461,-6.2035,-6.339,-6.5817,-6.7692,-6.9026,-6.9951,-7.1464,-7.357,-7.4026,-7.4556,-7.5483,-7.5857,-7.6204,-7.6403,-7.6403,-7.8421,-8.1765,-8.1765,-8.3638,-8.6815,-8.8684,-8.7605,-8.5796,-8.826,-8.7677,-8.5867,-8.6493,-8.6641,-8.6641,-8.6641,-8.6641,-8.6641,-8.6641,-8.6641,-8.6641,-8.6641,-8.6935,-8.7374,-8.8014,-8.8188,-8.8331,-8.8759,-8.8901,-8.9042,-8.9042,-8.9042,-8.9042,-8.9042,-8.9042,-8.9964,-9.2697,-9.3097,-9.4049,-9.669,-9.7028,-9.7304,-9.8481,-9.7609,-9.7487,-9.8481,-9.7609,-9.7028,-9.7028,-9.7912,-9.8481,-9.8481,-9.8481,-9.9042,-9.9933,-9.901,-9.974,-10.2267,-10.2775,-10.3439,-10.4414,-10.4414,-10.4414,-3.113,-2.7828,-2.5883,-2.5813,-2.6866,-2.7742,-2.7875,-2.7991,-2.8582,-2.9586,0.0,0.0,0.0,0.0,0.0,0.0,0.0,0.0,0.0,0.0,0.0,0.0,0.0,0.0,0.0,0.0,0.0,0.0,0.0,-5.6663,-5.8468,-5.9508,-6.0336,-6.0952,-6.206,-6.3195,-6.4537,-6.7692,-6.9927,-7.1283,-7.2549,-7.3697,-7.5036,-7.5483,-7.5631,-7.5631,-7.684,-7.7352,-7.7352,-7.7352,-7.9477,-8.2789,-8.3429,-8.5505,-8.8539,-9.0881,-9.042,-8.8721,-9.0087,-8.9154,-8.7269,-8.682,-8.6641,-8.6641,-8.6641,-8.6641,-8.6641,-8.6641,-8.6641,-8.6641,-8.6641,-8.6935,-8.7374,-8.7839,-8.8331,-8.8617,-8.8901,-8.9042,-8.9042,-8.9042,-8.9042,-8.9042,-8.9042,-8.9042,-8.9964,-9.2697,-9.3097,-9.4049,-9.669,-9.7457,-9.8213,-9.922,-9.8863,-9.8979,-9.9996,-9.9126,-9.8536,-9.8536,-9.9563,-10.014,-10.014,-10.014,-10.0536,-10.1452,-10.0536,-10.1516,-10.4575,-10.4575,-10.5023,-10.5962,-10.5962,-10.5962,-2.7116,-2.624,-2.7799,-2.7719,-2.7864,-2.7814,-2.7921,-2.863,-2.9238,-2.9322,0.0,0.0,0.0,0.0,0.0,0.0,0.0,0.0,0.0,0.0,0.0,0.0,0.0,0.0,0.0,0.0,0.0,0.0,-5.3602,-5.5856,-5.5963,-5.8468,-5.9954,-6.0233,-6.3015,-6.4663,-6.4901,-6.9211,-7.1464,-7.1646,-7.39,-7.5036,-7.5036,-7.5657,-7.5779,-7.6125,-7.809,-7.9093,-7.9093,-7.9093,-8.0774,-8.3485,-8.4978,-8.6221,-8.7807,-9.076,-9.111,-8.9991,-9.0355,-8.9722,-8.8406,-8.7089,-8.6641,-8.6641,-8.6641,-8.6641,-8.6641,-8.6641,-8.6641,-8.6641,-8.6641,-8.6935,-8.7228,-8.7228,-8.7839,-8.8617,-8.8901,-8.9042,-8.9042,-8.9183,-8.9152,-8.9293,-8.9293,-8.9183,-9.0075,-9.2721,-9.3182,-9.4167,-9.6751,-9.8449,-9.9481,-9.9481,-10.0677,-10.1452,-10.159,-10.1452,-10.1452,-10.1452,-10.159,-10.159,-10.159,-10.159,-10.159,-10.1727,-10.1727,-10.3142,-10.5962,-10.5962,-10.5962,-10.5962,-10.5962,-10.5962,-2.8886,-2.7346,-2.7719,-2.7857,-2.7803,-2.8154,-2.9759,-2.9045,-2.8547,-3.016,-3.0303,0.0,0.0,0.0,0.0,0.0,0.0,0.0,0.0,0.0,0.0,0.0,0.0,0.0,0.0,0.0,0.0,0.0,-5.4279,-5.5474,-5.6875,-5.7619,-5.9539,-6.2763,-6.3287,-6.5443,-6.9582,-7.071,-7.2344,-7.453,-7.5483,-7.6057,-7.6057,-7.7468,-7.8787,-8.0137,-8.0789,-8.0951,-8.0951,-8.0951,-8.2623,-8.5511,-8.6781,-8.8896,-9.1347,-9.3164,-9.2999,-9.1662,-9.0853,-8.9722,-8.8406,-8.7089,-8.6641,-8.6641,-8.6641,-8.6641,-8.6641,-8.6641,-8.6641,-8.6641,-8.6641,-8.6935,-8.7374,-8.758,-8.8044,-8.8617,-8.8901,-8.9042,-8.9293,-9.0276,-9.1293,-9.2083,-9.2083,-9.1159,-9.1112,-9.2864,-9.3959,-9.5211,-9.6932,-9.9299,-10.1377,-10.2538,-10.1929,-10.1897,-10.3042,-10.217,-10.1452,-10.1452,-10.2608,-10.3207,-10.3207,-10.3207,-10.3734,-10.483,-10.483,-10.5116,-10.5962,-10.5962,-10.5962,-10.5962,-10.5962,-10.5962,-2.9913,-2.7719,-2.7845,-2.7723,-2.7793,-2.8086,-2.9234,-2.9032,-2.8737,-2.9379,-2.9948,0.0,0.0,0.0,0.0,0.0,0.0,0.0,0.0,0.0,0.0,0.0,0.0,0.0,0.0,0.0,0.0,0.0,-5.488,-5.5918,-5.7853,-5.8308,-6.0084,-6.3312,-6.5151,-6.7553,-7.0567,-7.2169,-7.4178,-7.6813,-7.8171,-7.834,-7.7495,-7.9286,-8.0598,-8.1623,-8.242,-8.2707,-8.2707,-8.2707,-8.4235,-8.6502,-8.8358,-9.0198,-9.1906,-9.3791,-9.403,-9.3133,-9.1218,-9.0081,-8.9154,-8.7269,-8.6641,-8.6641,-8.6641,-8.6641,-8.6641,-8.6641,-8.6641,-8.6641,-8.6641,-8.6788,-8.7112,-8.7549,-8.7869,-8.8331,-8.8901,-8.9042,-8.9402,-9.0757,-9.2182,-9.3081,-9.3081,-9.2441,-9.2398,-9.3797,-9.5164,-9.6563,-9.7962,-10.0752,-10.2908,-10.3767,-10.3603,-10.3831,-10.4736,-10.3994,-10.3406,-10.3406,-10.4286,-10.4736,-10.4736,-10.4736,-10.5149,-10.5962,-10.5962,-10.5962,-10.5962,-10.5962,-10.5962,-10.5962,-10.5962,-10.5962,-3.1225,-2.8458,-2.7758,-2.7864,-2.7887,-2.7887,-2.7899,-2.8618,-2.8987,-2.8098,-2.963,-3.2398,0.0,0.0,0.0,0.0,0.0,0.0,0.0,0.0,0.0,0.0,0.0,0.0,0.0,0.0,0.0,0.0,-5.5675,-5.7093,-5.8645,-5.9627,-6.1215,-6.3274,-6.7174,-6.9561,-7.0035,-7.3536,-7.6192,-7.834,-8.0654,-8.0789,-7.9424,-8.1406,-8.2261,-8.242,-8.3829,-8.4445,-8.4445,-8.4445,-8.5387,-8.691,-8.9543,-9.059,-9.0889,-9.3522,-9.4509,-9.415,-9.1697,-9.0709,-9.0171,-8.7718,-8.679,-8.6641,-8.6641,-8.6641,-8.6641,-8.6641,-8.6641,-8.6788,-8.6935,-8.6935,-8.6935,-8.7519,-8.8097,-8.8698,-8.9402,-8.9542,-8.9927,-9.1261,-9.2537,-9.3459,-9.3585,-9.3459,-9.3753,-9.4819,-9.6497,-9.795,-9.9209,-10.2193,-10.406,-10.406,-10.5149,-10.5962,-10.5962,-10.5962,-10.5962,-10.5962,-10.5962,-10.5962,-10.5962,-10.5962,-10.5962,-10.5962,-10.5962,-10.5962,-10.5962,-10.5962,-10.5962,-10.5962,-10.5962,-10.5962,-3.5516,-3.1542,-2.7755,-2.7859,-2.783,-2.8045,-2.8891,-2.8582,-2.8145,-2.857,-3.1185,-3.4768,-3.9694,0.0,0.0,0.0,0.0,0.0,0.0,0.0,0.0,0.0,0.0,0.0,0.0,0.0,0.0,0.0,0.0,-5.8293,-5.8645,-6.0356,-6.2553,-6.5695,-6.6624,-6.8889,-7.2683,-7.5105,-7.7032,-7.834,-8.0654,-8.1462,-8.1273,-8.4445,-8.5867,-8.5867,-8.6166,-8.6344,-8.6344,-8.6344,-8.6493,-8.691,-8.9543,-9.059,-9.0889,-9.3522,-9.4509,-9.4269,-9.2744,-9.1487,-9.032,-8.8765,-8.7538,-8.6641,-8.6641,-8.6641,-8.6641,-8.6641,-8.6641,-8.6935,-8.8149,-8.7748,-8.7489,-8.917,-9.0725,-9.1889,-9.2311,-9.2473,-9.2826,-9.4172,-9.4539,-9.5054,-9.6279,-9.5477,-9.4758,-9.4987,-9.7404,-9.9208,-9.947,-10.3044,-10.5558,-10.5558,-10.5805,-10.5962,-10.5962,-10.5962,-10.5962,-10.5962,-10.5962,-10.5962,-10.5962,-10.5962,-10.5962,-10.5962,-10.5962,-10.5962,-10.5962,-10.5962,-10.5962,-10.5962,-10.5962,-10.5962,-3.9505,-3.3803,-2.7774,-2.7739,-2.8346,-2.9149,-2.9998,-3.0177,-3.04,-3.2056,-3.5655,-3.9454,-4.2449,-4.3659,0.0,0.0,0.0,0.0,0.0,0.0,0.0,0.0,0.0,0.0,0.0,0.0,0.0,0.0,0.0,-6.1119,-6.1575,-6.2403,-6.4185,-6.6967,-6.8627,-7.0738,-7.3065,-7.6362,-7.8905,-8.0449,-8.1284,-8.2578,-8.4292,-8.6017,-8.6641,-8.6641,-8.6641,-8.6641,-8.6641,-8.6641,-8.6641,-8.691,-8.9543,-9.059,-9.0889,-9.3522,-9.4509,-9.4299,-9.2983,-9.2115,-9.1403,-9.0088,-8.9294,-8.8773,-8.8901,-8.8968,-8.8968,-8.8968,-8.8968,-8.9077,-8.9984,-8.9816,-8.9709,-9.0963,-9.215,-9.2921,-9.3081,-9.3081,-9.3459,-9.4781,-9.5021,-9.5562,-9.6919,-9.6658,-9.613,-9.613,-9.8706,-10.0568,-10.0568,-10.372,-10.5962,-10.5962,-10.5962,-10.5962,-10.5962,-10.5962,-10.5962,-10.5962,-10.5962,-10.5962,-10.5962,-10.5962,-10.5962,-10.5962,-10.5962,-10.5962,-10.5962,-10.5962,-10.5962,-10.5962,-10.5962,-10.5962,-4.1756,-3.5608,-2.9447,-2.9594,-2.9779,-3.0141,-3.0889,-3.2222,-3.3875,-3.67,-4.0163,-4.3272,-4.4642,-4.5929,-4.6755,0.0,0.0,0.0,0.0,0.0,0.0,0.0,0.0,0.0,0.0,0.0,0.0,0.0,0.0,0.0,-6.4691,-6.4755,-6.5671,-6.7721,-7.0787,-7.2588,-7.3303,-7.7799,-8.0934,0.0,-8.2718,-8.4138,-8.6641,-8.6641,-8.6641,-8.6641,-8.7082,-8.7198,-8.7198,-8.7489,-8.7489,-8.7469,-9.039,-9.1569,-9.1902,-9.4566,-9.5565,-9.5383,-9.4354,-9.3779,-9.3297,-9.2198,-9.1643,-9.1401,-9.1268,-9.1229,-9.1229,-9.1229,-9.1229,-9.1362,-9.1794,-9.1794,-9.1924,-9.3269,-9.3834,-9.399,-9.399,-9.399,-9.436,-9.5325,-9.5562,-9.583,-9.6953,-9.7213,-9.7213,-9.7213,-9.966,-10.1504,-10.1504,-10.4118,-10.5962,-10.5962,-10.5962,-10.5962,-10.5962,-10.5962,-10.5962,-10.5962,-10.5962,-10.5962,-10.5962,-10.5962,-10.5962,-10.5962,-10.5962,-10.5962,-10.5962,-10.5962,-10.5962,-10.5962,-10.5962,-10.5962,-4.0149,-3.7034,-3.4579,-3.558,-3.2812,-3.004,-3.0755,-3.4034,-3.8007,-4.2202,-4.2627,-4.3247,-4.6228,-4.6105,-4.5753,-4.6948,0.0,0.0,0.0,0.0,0.0,0.0,0.0,0.0,0.0,0.0,0.0,0.0,0.0,0.0,0.0,-6.6551,-6.7025,-6.8201,-7.0945,-7.315,-7.4681,-7.9645,-8.2829,-8.3964,-8.5479,-8.6344,-8.6641,-8.6641,-8.6641,-8.6788,-8.8005,-8.8686,-8.8686,-9.0046,-8.9771,-8.9104,-9.3036,-9.4633,-9.4977,-9.7797,-9.8832,-9.88,-9.8675,-9.7912,-9.6562,-9.5541,-9.4355,-9.3196,-9.2139,-9.1794,-9.1794,-9.1794,-9.1794,-9.2215,-9.3552,-9.3143,-9.3143,-9.6013,-9.6806,-9.6806,-9.6806,-9.6806,-9.6839,-9.6953,-9.6953,-9.7066,-9.7213,-9.7213,-9.7213,-9.7213,-9.966,-10.1504,-10.1504,-10.4118,-10.5962,-10.5962,-10.5962,-10.5962,-10.5962,-10.5962,-10.5962,-10.5962,-10.5962,-10.5962,-10.5962,-10.5962,-10.5962,-10.5962,-10.5962,-10.5962,-10.5962,-10.5962,-10.5962,-10.5962,-10.5962,-10.5962,-3.9058,-3.7639,-3.7072,-3.6919,-3.5896,-3.4995,-3.4423,-3.6588,-3.954,-4.256,-4.4146,-4.5542,-4.6737,-4.7297,-4.7835,-4.8236,-4.9187,0.0,0.0,0.0,0.0,0.0,0.0,0.0,0.0,0.0,0.0,0.0,0.0,0.0,0.0,-6.9565,-7.0706,-7.2194,-7.5244,-7.7278,-7.8299,-8.2025,-8.403,-8.4533,-8.5957,-8.7604,-8.9248,-8.9248,-8.9248,-8.9248,-8.9909,-9.0046,-9.0183,-9.0725,-9.059,-9.0464,-9.3738,-9.5054,-9.5401,-9.8233,-9.9272,-9.9272,-9.9272,-9.8328,-9.7022,-9.6909,-9.5968,-9.4818,-9.4628,-9.4571,-9.4571,-9.4571,-9.4571,-9.4725,-9.5358,-9.5358,-9.5358,-9.6806,-9.7213,-9.7213,-9.7213,-9.7213,-9.7213,-9.7213,-9.7213,-9.7213,-9.7213,-9.7213,-9.7213,-9.7213,-9.8185,-9.9559,-10.1302,-10.4118,-10.5962,-10.5962,-10.5962,-10.5962,-10.5962,-10.5962,-10.5962,-10.5962,-10.5962,-10.5962,-10.5962,-10.5962,-10.5962,-10.5962,-10.5962,-10.5962,-10.5962,-10.5962,-10.6085,-10.624,-10.624,-10.6328,-3.9118,-3.8446,-3.8478,-3.8482,-3.8389,-3.8311,-3.8238,-3.9847,-4.1861,-4.2905,-4.4942,-4.6544,-4.6948,-4.8045,-4.877,-4.915,-5.049,-5.1613,0.0,0.0,0.0,0.0,0.0,0.0,0.0,0.0,0.0,0.0,0.0,0.0,0.0,-7.2161,-7.35,-7.5796,-7.8764,-8.0526,-8.1058,-8.385,-8.5554,-8.5956,-8.6891,-8.8545,-9.0994,-9.0553,-9.0616,-9.0994,-9.1394,-9.1658,-9.1658,-9.1658,-9.1658,-9.1943,-9.5108,-9.6327,-9.6677,-9.9795,-10.0818,-10.085,-10.0959,-10.0286,-9.9271,-9.8833,-9.8109,-9.7215,-9.6644,-9.6577,-9.6577,-9.6577,-9.6577,-9.6543,-9.6772,-9.6772,-9.6886,-9.7066,-9.7213,-9.7213,-9.7213,-9.7213,-9.7213,-9.7213,-9.7213,-9.7213,-9.7213,-9.7213,-9.7213,-9.7213,-9.7213,-9.8252,-10.1135,-10.3347,-10.499,-10.5861,-10.5962,-10.5962,-10.5962,-10.5962,-10.5962,-10.5962,-10.5962,-10.5962,-10.5962,-10.5962,-10.5962,-10.5962,-10.5962,-10.5962,-10.5962,-10.6085,-10.624,-10.6517,-10.6604,-10.669,-4.099,-3.9729,-3.9206,-4.1439,-3.9736,-3.8523,-4.1711,-4.421,-4.5229,-4.4028,-4.457,-4.5753,-4.6755,-4.7471,-4.799,-4.896,-5.049,-5.1985,0.0,0.0,0.0,0.0,0.0,0.0,0.0,0.0,0.0,0.0,0.0,0.0,0.0,-7.3663,-7.4922,-7.7995,-8.0438,-8.2039,-8.2369,-8.5185,-8.7459,-8.8827,-8.8827,-8.9526,-9.0963,-8.9546,-8.9672,-9.0994,-9.2441,-9.3081,-9.3081,-9.3081,-9.3081,-9.3497,-9.7875,-9.9433,-9.992,-10.32,-10.4418,-10.4385,-10.4802,-10.4929,-10.4431,-10.1875,-10.1029,-10.0495,-9.797,-9.7213,-9.7213,-9.7213,-9.7213,-9.7213,-9.7213,-9.7213,-9.7213,-9.7213,-9.7213,-9.7213,-9.7213,-9.7213,-9.7213,-9.7213,-9.7213,-9.7213,-9.7213,-9.7213,-9.7213,-9.7213,-9.7213,-9.8252,-10.1135,-10.1537,-10.2677,-10.5627,-10.5962,-10.5962,-10.5962,-10.5962,-10.5962,-10.5962,-10.5962,-10.5962,-10.5962,-10.5962,-10.5962,-10.5962,-10.5962,-10.5962,-10.5962,-10.6362,-10.6517,-10.6483,-10.681,-10.6895,-4.1736,-4.099,-4.0636,-4.2494,-4.1764,-4.1075,-4.2772,-4.401,-4.4671,-4.4341,-4.5736,-4.7764,-4.983,-5.1033,-5.1946,-5.2151,-5.3465,-5.4768,-5.5132,0.0,0.0,0.0,0.0,0.0,0.0,0.0,0.0,0.0,0.0,0.0,0.0,-7.9009,-8.0072,-8.2277,-8.4082,-8.5629,-8.6733,-8.7649,-8.8827,-9.0319,-9.0282,-9.1034,-9.2348,-9.1894,-9.2601,-9.3931,-9.4302,-9.458,-9.458,-9.4791,-9.4791,-9.5207,-9.8777,-10.0056,-10.0295,-10.3615,-10.4675,-10.4253,-10.3608,-10.2738,-10.1609,-10.0009,-9.8827,-9.7859,-9.7368,-9.7213,-9.7213,-9.7213,-9.7213,-9.7213,-9.7213,-9.7213,-9.7213,-9.7213,-9.7213,-9.7213,-9.7213,-9.7213,-9.7213,-9.7213,-9.7213,-9.7213,-9.7213,-9.7213,-9.7213,-9.7213,-9.7213,-9.8252,-10.1135,-10.1504,-10.2643,-10.5627,-10.5962,-10.5962,-10.5962,-10.5962,-10.5962,-10.5962,-10.5962,-10.5962,-10.5962,-10.5962,-10.5962,-10.5962,-10.5962,-10.6085,-10.6362,-10.6483,-10.669,-10.7098,-10.7098,-10.7333,-4.2336,-4.182,-4.1635,-4.2655,-4.3289,-4.3889,-4.4727,-4.5205,-4.5666,-4.596,-4.7575,-4.9211,-5.0655,-5.2487,-5.3629,-5.3629,-5.495,-5.6239,-5.6936,-5.7093,0.0,0.0,0.0,0.0,0.0,0.0,0.0,0.0,0.0,0.0,-8.0952,-8.2488,-8.4085,-8.5868,-8.7543,-8.8686,-8.9633,-8.9633,-9.034,-9.1801,-9.0654,-9.1174,-9.3114,-9.2588,-9.341,-9.5251,-9.5251,-9.5251,-9.5371,-9.5576,-9.5694,-9.6044,-9.8667,-10.0292,-10.1461,-10.4192,-10.4929,-10.467,-10.4117,-10.2942,-10.1509,-10.0213,-9.8776,-9.7622,-9.7234,-9.7213,-9.7213,-9.7213,-9.7213,-9.7213,-9.7213,-9.7213,-9.7213,-9.7213,-9.7213,-9.7213,-9.7213,-9.7213,-9.7213,-9.7213,-9.7213,-9.7213,-9.7213,-9.7213,-9.7213,-9.7213,-9.7682,-9.8855,-10.1202,-10.2006,-10.3314,-10.5694,-10.5962,-10.5962,-10.5962,-10.5962,-10.5962,-10.5962,-10.5962,-10.5962,-10.5962,-10.5962,-10.5962,-10.5962,-10.6085,-10.624,-10.6517,-10.669,-10.7014,-10.7299,-10.7449,-10.7599,-4.313,-4.2864,-4.2416,-4.2416,-4.4422,-4.6479,-4.7129,-4.7323,-4.7538,-4.8317,-4.9174,-4.9999,-5.0038,-5.2026,-5.3751,-5.3975,-5.5292,-5.6756,-5.8645,0.0,-6.0265,0.0,0.0,0.0,0.0,0.0,0.0,0.0,0.0,0.0,-8.1859,-8.4384,-8.6691,-8.8827,-9.0183,-9.0994,-9.1128,-9.1033,-9.1577,-9.2818,-9.0221,-9.0385,-9.3033,-9.1782,-9.282,-9.5457,-9.5457,-9.5576,-9.5779,-9.5896,-9.613,-9.6528,-9.8076,-10.0409,-10.3175,-10.4956,-10.54,-10.54,-10.5705,-10.4856,-10.3381,-10.1839,-10.0364,-9.8956,-9.7615,-9.7213,-9.7213,-9.7213,-9.7292,-9.7404,-9.7404,-9.7404,-9.7404,-9.7404,-9.7404,-9.7404,-9.7404,-9.7404,-9.7404,-9.7404,-9.7404,-9.7292,-9.7292,-9.7213,-9.7213,-9.7213,-9.842,-9.9895,-10.1336,-10.2844,-10.4353,-10.5794,-10.5962,-10.5962,-10.5962,-10.5962,-10.6085,-10.6173,-10.6173,-10.6173,-10.6173,-10.6173,-10.6261,-10.6261,-10.6537,-10.681,-10.681,-10.7299,-10.7612,-10.7612,-10.7944,-10.8092,-4.5121,-4.5436,-4.5252,-4.5252,-4.5759,-4.6303,-4.6518,-4.6577,-4.6616,-4.6812,-4.8435,-4.9988,-5.081,-5.2748,-5.5028,-5.7097,-5.7762,-5.8645,-6.0519,-6.1583,-6.2662,-6.4064,0.0,0.0,0.0,0.0,0.0,0.0,0.0,0.0,-8.5393,-8.7157,-8.8311,-8.8827,-9.0183,-9.1526,-9.2569,-9.1513,-9.0525,-8.9859,-9.048,-9.1391,-9.273,-9.3752,-9.5497,-9.7836,-9.8052,-9.7653,-9.7057,-9.8231,-9.8337,-9.7931,-10.0606,-10.2742,-10.4594,-10.6441,-10.6435,-10.5266,-10.4566,-10.3314,-10.1805,-10.033,-9.8889,-9.7649,-9.7313,-9.7213,-9.7213,-9.7213,-9.8363,-9.9544,-9.9544,-9.9544,-9.9544,-9.9544,-9.9544,-9.9544,-9.9544,-9.9544,-9.9544,-9.9544,-9.8962,-9.8363,-9.8363,-9.767,-9.7213,-9.7213,-9.842,-9.9895,-10.1336,-10.2844,-10.4353,-10.5794,-10.5962,-10.5962,-10.5962,-10.5962,-10.6709,-10.8525,-10.8635,-10.871,-10.8789,-10.8824,-10.8897,-10.9111,-10.9111,-10.9358,-10.9638,-10.9742,-10.995,-11.0087,-11.0225,-11.026,-4.6225,-4.6451,-4.6698,-4.8292,-4.9084,-4.9294,-4.8841,-4.9067,-4.921,-4.921,-5.0952,-5.2744,-5.3672,-5.5502,-5.7664,-6.0327,-6.0883,-6.1721,-6.3559,-6.4499,-6.5847,0.0,0.0,0.0,0.0,0.0,0.0,0.0,0.0,0.0,-8.6574,-8.8703,-8.9784,-8.9784,-9.0619,-9.1305,-9.2073,-9.1569,-9.1392,-9.1452,-9.1658,-9.2785,-9.4486,-9.5646,-9.7149,-9.8929,0.0,-9.8861,-9.8582,-9.9337,-9.9886,-10.0405,-10.2774,-10.4501,-10.6096,-10.7882,-10.7966,-10.7075,-10.576,-10.4228,-10.2696,-10.1232,-9.9767,-9.8682,-9.8682,-9.8682,-9.8682,-9.8682,-9.9442,-10.0304,-10.0304,-10.0304,-10.0304,-10.0304,-10.0304,-10.0304,-10.0304,-10.0304,-10.0304,-10.0304,-9.9846,-9.9442,-9.9442,-9.8962,-9.8886,-9.9568,-10.0897,-10.2397,-10.3863,-10.5431,-10.6497,-10.6726,-10.7231,-10.7347,-10.6828,-10.7265,-10.8113,-10.9391,-10.9391,-10.9533,-10.9638,-10.9707,-10.9913,-11.0015,-11.0151,-11.0388,-11.0558,-11.0658,-11.0891,-11.1024,-11.1024,-11.1024,-4.7567,-4.7383,-4.7876,-5.1025,-5.2642,-5.3069,-5.2198,-5.2809,-5.3564,-5.3407,-5.4654,-5.6164,-5.7339,-5.8829,-6.0707,-6.2991,-6.3963,-6.5183,-6.7178,-6.7938,-6.9678,-7.3164,0.0,0.0,0.0,0.0,0.0,0.0,0.0,-8.508,-8.6841,-8.9249,-9.0666,-9.088,-9.1122,-9.1266,-9.1226,-9.1571,-9.2773,-9.4573,-9.3606,-9.4527,-9.7101,-9.7637,-9.8529,-9.9837,0.0,-9.9935,-9.997,-10.0262,-10.1297,-10.2994,-10.4689,-10.6222,-10.7755,-10.922,-10.9708,-10.9394,-10.7692,-10.5958,-10.4223,-10.284,-10.1419,-10.0304,-10.0304,-10.0304,-10.0304,-10.0725,-10.082,-10.082,-10.082,-10.082,-10.082,-10.082,-10.082,-10.082,-10.082,-10.082,-10.082,-10.082,-10.0629,-10.0498,-10.0498,-10.061,-10.1102,-10.2484,-10.4015,-10.5576,-10.6963,-10.849,-10.907,-10.8113,-10.8853,-10.907,-10.8,-10.8853,-10.9603,-11.0019,-11.0019,-11.0087,-11.0253,-11.0453,-11.0617,-11.0617,-11.1016,-11.1148,-11.1148,-11.1376,-11.1507,-11.1507,-11.1507,-11.1507,-5.0475,-5.0877,-5.1235,-5.248,-5.3588,-5.4413,-5.426,-5.5652,-5.6855,-5.5842,-5.6682,-5.8007,-5.9005,-6.0074,-6.1667,-6.3764,-6.6105,-6.8389,-7.0491,-7.2335,-7.3268,-7.2976,-7.4986,0.0,0.0,0.0,0.0,0.0,0.0,-8.523,-8.6606,-8.8323,-8.9603,-9.0417,-9.1636,-9.2234,-9.2103,-9.222,-9.316,-9.4926,-9.6187,-9.7391,-9.8473,-10.0055,-10.132,-10.2139,0.0,0.0,-10.1347,-10.2437,-10.3234,-10.4209,-10.6615,-10.8516,-10.9988,-11.0558,-11.0728,-11.0383,-10.7968,-10.5196,-10.2736,-10.2528,-10.1419,-10.0304,-10.0304,-10.0304,-10.0725,-10.2473,-10.2972,-10.2972,-10.2972,-10.2972,-10.2972,-10.2972,-10.2972,-10.2972,-10.2972,-10.2972,-10.2972,-10.2972,-10.2263,-10.16,-10.16,-10.1961,-10.238,-10.2623,-10.5019,-10.6859,-10.7067,-10.849,-10.9391,-10.9178,-10.9285,-10.9391,-10.9178,-10.9285,-11.0326,-11.2394,-11.2611,-11.2701,-11.2878,-11.307,-11.3206,-11.3497,-11.3533,-11.3533,-11.3533,-11.3652,-11.3652,-11.3652,-11.3652,-11.3652,-5.15,-5.2771,-5.4217,-5.5134,-5.657,-5.7783,-5.7235,-5.8852,-6.0131,-5.9648,-6.0312,-6.1411,-6.2501,-6.3938,-6.6037,-6.9178,-7.0664,-7.2382,-7.5244,-7.6657,-7.7514,-7.7561,-7.8856,-8.0042,0.0,0.0,0.0,0.0,0.0,-8.6397,-8.7446,-8.8928,-9.0055,-9.1078,-9.0961,-9.1918,-9.4114,-9.4934,-9.6176,-9.8125,-9.8916,-9.9901,-10.1132,-10.2084,-10.2731,0.0,0.0,0.0,-10.263,-10.403,-10.5312,-10.6544,-10.8531,-10.9775,-11.0508,-11.1515,-11.0926,-10.938,-10.9021,-10.6859,-10.4111,-10.3265,-10.2525,-10.1997,-10.1997,-10.1997,-10.2175,-10.3141,-10.3425,-10.3425,-10.3425,-10.3425,-10.3425,-10.3425,-10.3425,-10.3425,-10.3425,-10.3425,-10.3425,-10.3425,-10.3057,-10.2929,-10.3867,-10.4153,-10.4907,-10.66,-10.8045,-10.9244,-11.0055,-11.0796,-11.0961,-11.0326,-11.0863,-11.0961,-11.0291,-11.1024,-11.1897,-11.3038,-11.3213,-11.3386,-11.3605,-11.3652,-11.3818,-11.4136,-11.4136,-11.4136,-11.4136,-11.4136,-11.4136,-11.4136,-11.4136,-11.4136,-5.3142,0.0,-5.7335,-5.8334,-6.0113,-6.1262,0.0,-6.2013,-6.3521,-6.3269,-6.384,-6.4893,-6.6233,-6.8026,-7.076,-7.4518,-7.5466,-7.6708,-7.9407,-8.0091,-8.0639,-8.1775,-8.2127,-8.2817,-8.3946,0.0,0.0,0.0,0.0,-8.7571,-8.8551,-8.9633,-9.0624,-9.1603,-9.1537,-9.3274,-9.6807,-9.792,-9.9385,-10.1361,-10.1325,-10.1931,-10.3105,-10.3307,-10.3425,0.0,0.0,0.0,-10.3532,-10.4709,-10.6315,-10.8134,-10.899,-10.9775,-11.0524,-11.1345,-11.0132,-10.817,-10.9026,-10.7742,-10.5494,-10.3924,-10.3425,-10.3425,-10.3425,-10.3425,-10.3425,-10.3425,-10.3425,-10.3425,-10.3425,-10.3425,-10.3425,-10.3425,-10.3425,-10.3425,-10.3425,-10.3425,-10.3425,-10.3425,-10.371,-10.4352,-10.553,-10.635,-10.767,-11.0061,-11.0738,-11.1381,-11.2594,-11.2736,-11.2394,-11.1542,-11.2175,-11.2394,-11.1447,-11.2485,-11.3213,-11.3264,-11.3471,-11.364,-11.3818,-11.3818,-11.3937,-11.4136,-11.4136,-11.4136,-11.4136,-11.4136,-11.4136,-11.4136,-11.4136,-11.4136,0.0,-5.9817,-6.1119,-6.2168,-6.3127,-6.382,-6.3747,-6.556,0.0,-6.5736,-6.6466,-6.7873,-6.9322,-7.1702,-7.4157,-7.7004,-7.9103,-8.0702,-8.191,-8.1563,-8.1704,-8.2584,-8.2664,-8.3048,-8.4329,0.0,0.0,0.0,0.0,0.0,-8.9456,-8.9586,-9.0191,-9.1143,-9.5226,-9.8357,-10.0319,-10.0425,-10.1397,-10.3164,-10.3164,-10.3235,-10.3342,-10.3425,-10.3425,0.0,0.0,0.0,0.0,-10.3567,-10.5351,-10.792,-10.66,-10.7849,-11.0275,-10.8883,-10.8241,-10.7849,-10.6529,-10.5958,-10.5494,-10.3924,-10.3425,-10.3425,-10.3425,-10.3425,-10.3425,-10.3425,-10.3425,-10.3425,-10.3425,-10.3425,-10.3425,-10.3425,-10.3425,-10.3425,-10.3425,-10.3425,-10.3425,-10.3425,-10.4602,-10.5601,-10.5744,-10.817,-11.0168,-11.0382,-11.1666,-11.2629,-11.2736,-11.2736,-11.2736,-11.2611,-11.2736,-11.2736,-11.2611,-11.3126,-11.3556,-11.3652,-11.3652,-11.3818,-11.4018,-11.4136,-11.41,-11.4136,-11.4136,-11.4136,-11.4136,-11.4136,-11.4136,-11.4136,-11.4136,-11.4136,-6.1363,-6.2523,-6.3117,-6.4196,-6.5318,-6.6137,-6.6137,-6.7457,-6.8496,-6.8078,-6.9193,-7.0389,-7.0938,-7.3944,-7.6974,-7.9146,-8.1356,-8.3723,-8.5949,-8.5458,-8.5315,-8.6431,-8.5676,-8.5555,0.0,0.0,0.0,0.0,0.0,0.0,-9.1953,-9.2172,-9.3255,-9.5346,-9.8002,-9.987,-10.072,-10.206,-10.3163,-10.4042,-10.4495,-10.4751,-10.4751,-10.4751,-10.4751,0.0,0.0,0.0,0.0,-10.5084,-10.5916,-10.6636,-10.7028,-10.7313,-10.7613,-10.8364,-10.7493,-10.5917,-10.6773,-10.608,-10.4833,-10.4257,-10.3722,-10.3425,-10.3425,-10.3678,-10.3922,-10.3552,-10.3425,-10.3425,-10.3425,-10.3425,-10.3425,-10.3425,-10.3425,-10.3425,-10.3425,-10.3425,-10.371,-10.4673,-10.5351,-10.6386,-10.8312,-10.9632,-11.0738,-11.1702,-11.2379,-11.2825,-11.2914,-11.3002,-11.3038,-11.3213,-11.3213,-11.3213,-11.3213,-11.3435,-11.3688,-11.3736,-11.3818,-11.4018,-11.4136,-11.4136,-11.4136,-11.4136,-11.4136,-11.4136,-11.4136,-11.4136,-11.4136,-11.4136,-11.4136,-11.4136,-6.4008,-6.5123,-6.5796,-6.6042,-6.7066,-6.8149,-6.8149,-6.9074,-7.0167,-7.0167,-7.1343,-7.2645,-7.309,-7.5839,-7.8893,-8.1518,-8.3732,-8.6129,-8.9233,-8.8455,-8.7858,-8.887,-8.7653,-8.6998,-8.8026,0.0,0.0,0.0,0.0,0.0,-9.476,-9.5092,-9.6606,-9.9733,-10.1273,-10.2081,-10.2235,-10.323,-10.3774,-10.399,-10.3965,-10.3945,-10.3945,-10.4456,-10.4777,0.0,0.0,0.0,0.0,-10.5946,-10.6373,-10.6486,-10.7061,-10.6918,-10.6565,-10.7571,-10.6598,-10.5003,-10.6581,-10.6116,-10.4787,-10.4787,-10.4459,-10.4114,-10.4114,-10.4421,-10.4643,-10.4231,-10.388,-10.3758,-10.3758,-10.3552,-10.3425,-10.3425,-10.3425,-10.3425,-10.3425,-10.3899,-10.4578,-10.553,-10.6649,-10.809,-11.0061,-11.0933,-11.1699,-11.2594,-11.2825,-11.295,-11.3126,-11.3126,-11.3213,-11.3507,-11.3507,-11.3592,-11.3676,-11.3772,-11.3818,-11.3818,-11.4018,-11.4136,-11.4136,-11.4136,-11.4136,-11.4136,-11.4136,-11.4136,-11.4136,-11.4136,-11.4136,-11.4136,-11.4136,-11.4136,-6.5816,-6.7583,-6.915,-6.799,-6.857,-6.9414,-6.9414,-7.0604,-7.1798,-7.1798,-7.3062,-7.4497,-7.6122,-7.7678,-7.9958,-8.4289,-8.6076,-8.7916,-9.0882,-8.9967,-8.8995,-8.9201,-8.7726,-8.715,-8.8023,-9.0418,0.0,0.0,0.0,0.0,-9.7967,-9.8049,-9.9885,-10.3907,-10.4996,-10.5543,-10.5543,-10.3901,-10.2997,-10.296,-10.1319,-10.0553,-10.059,-10.2267,-10.3098,0.0,0.0,0.0,0.0,-10.558,-10.6492,-10.7665,-10.6164,-10.6529,-10.7629,-10.6164,-10.558,-10.558,-10.558,-10.558,-10.558,-10.558,-10.5543,-10.558,-10.558,-10.558,-10.558,-10.558,-10.4999,-10.4423,-10.4423,-10.3922,-10.3425,-10.3425,-10.346,-10.346,-10.346,-10.4921,-10.6111,-10.5863,-10.8772,-11.1006,-11.054,-11.221,-11.3335,-11.2825,-11.295,-11.3126,-11.3126,-11.3126,-11.3213,-11.3507,-11.3507,-11.364,-11.4054,-11.4136,-11.4136,-11.4136,-11.4136,-11.4136,-11.4136,-11.4136,-11.4136,-11.4136,-11.4136,-11.4136,-11.4136,-11.4136,-11.4136,-11.4136,-11.4136,-11.4136,-6.714,-6.7656,-6.8122,-6.7779,-6.8423,-6.9459,-7.1126,-7.2196,-7.3238,-7.4062,-7.5499,-7.6681,-7.7126,-7.9213,-8.1792,-8.4723,-8.6554,-8.8484,-9.0968,-9.1149,-9.0718,-9.0419,-9.0869,-9.114,-9.0857,-9.316,-9.5251,0.0,0.0,0.0,-9.9562,-10.1452,-10.3264,-10.5065,-10.4214,-10.3726,-10.3726,-10.2658,-10.2088,-10.2088,-10.3275,-10.377,-10.3806,-10.5506,-10.6282,-10.6319,-10.68,0.0,0.0,-10.6239,-10.6187,-10.62,-10.5726,-10.5872,-10.6266,-10.6202,-10.6239,-10.6299,-10.6874,-10.6667,-10.6239,-10.6239,-10.593,-10.5776,-10.6761,-10.6667,-10.6239,-10.6239,-10.5739,-10.5207,-10.5207,-10.5105,-10.4894,-10.4894,-10.5798,-10.6701,-10.6701,-10.8148,-10.9744,-11.0734,-11.1462,-11.2169,-11.3096,-11.3412,-11.3421,-11.3299,-11.3335,-11.3471,-11.352,-11.3484,-11.3688,-11.389,-11.389,-11.3973,-11.41,-11.4136,-11.4136,-11.4136,-11.4136,-11.4136,-11.4136,-11.4136,-11.4136,-11.4136,-11.4136,-11.4136,-11.4136,-11.4136,-11.4136,-11.4136,-11.4136,-11.4136,-6.8143,-6.8502,-6.8788,-6.8525,-6.9579,-7.1058,-7.2402,-7.3839,-7.5243,-7.6064,-7.7723,-7.9228,-7.9228,-8.1074,-8.3565,-8.6589,-8.7537,-8.9079,-9.2654,-9.2111,-9.1735,-9.2452,-9.2789,-9.3221,-9.3781,-9.5263,-9.6859,0.0,0.0,0.0,-10.1829,-10.4064,-10.5149,-10.5015,-10.4269,-10.3543,-10.2844,-10.2353,-10.2033,-10.207,-10.35,-10.4129,-10.4204,-10.5912,-10.6692,-10.6729,-10.7397,0.0,0.0,-10.6985,-10.6724,-10.6433,-10.6433,-10.6433,-10.6433,-10.6837,-10.6985,-10.7039,-10.7556,-10.7416,-10.6985,-10.6985,-10.6724,-10.6551,-10.7453,-10.7342,-10.702,-10.702,-10.6726,-10.644,-10.6166,-10.608,-10.6165,-10.6535,-10.7405,-10.8375,-10.8998,-11.0557,-11.2153,-11.2979,-11.3481,-11.4008,-11.4741,-11.4738,-11.4507,-11.4316,-11.4394,-11.4471,-11.4511,-11.4352,-11.4231,-11.4466,-11.4772,-11.4996,-11.4996,-11.4996,-11.4996,-11.4996,-11.4696,-11.4466,-11.4466,-11.4224,-11.4136,-11.4136,-11.4136,-11.4136,-11.4136,-11.4136,-11.4136,-11.4136,-11.4216,-11.4216,-6.9359,-7.0022,-7.0746,-7.0058,-7.1772,-7.3494,-7.3441,-7.558,-7.7812,-7.7948,-7.9983,-8.1792,-8.2041,-8.2927,-8.5131,-8.9343,-8.8976,-8.9854,-9.4882,-9.33,-9.2512,-9.4901,-9.4072,-9.4247,-9.6703,-9.7072,-9.8124,-10.0413,0.0,0.0,-10.4348,-10.562,-10.5614,-10.4087,-10.4623,-10.4166,-10.2644,-10.2644,-10.2644,-10.2644,-10.2792,-10.2867,-10.2904,-10.4612,-10.5392,-10.5466,-10.7026,0.0,0.0,-10.7694,-10.7694,-10.7694,-10.7694,-10.7694,-10.7694,-10.7694,-10.7694,-10.7694,-10.7694,-10.7694,-10.7694,-10.7694,-10.7694,-10.7744,-10.7744,-10.7682,-10.7704,-10.7704,-10.7799,-10.7761,-10.7157,-10.6999,-10.7187,-10.8037,-10.8468,-10.9166,-11.0846,-11.2699,-11.3841,-11.3641,-11.5055,-11.6187,-11.568,-11.5986,-11.6059,-11.5614,-11.5754,-11.5856,-11.5856,-11.5389,-11.5069,-11.5211,-11.5864,-11.6224,-11.6224,-11.6224,-11.6224,-11.6224,-11.5596,-11.5177,-11.5177,-11.4544,-11.418,-11.418,-11.41,-11.4136,-11.4136,-11.4136,-11.4136,-11.4136,-11.4412,-11.4491,-7.1151,-7.1276,-7.1398,-7.1091,-7.2744,-7.4557,-7.5189,-7.7163,-7.9511,-8.1353,-8.2103,-8.3184,-8.535,-8.497,-8.5953,-9.115,-9.161,-9.1977,-9.3874,-9.5468,-9.6083,-9.4918,-9.6649,-9.8317,-9.9401,-10.0618,-10.1674,-10.2368,0.0,0.0,-10.4348,-10.4596,-10.4179,-10.3006,-10.3116,-10.2978,-10.2644,-10.2644,-10.2644,-10.2644,-10.3981,-10.4612,-10.4686,-10.6357,-10.7137,-10.7174,-10.7546,0.0,0.0,-10.7694,-10.7694,-10.7694,-10.7694,-10.7694,-10.7694,-10.7694,-10.7694,-10.7694,-10.7694,-10.7694,-10.7694,-10.7694,-10.7768,-10.7836,-10.7836,-10.7845,-10.7845,-10.7845,-10.7845,-10.7808,-10.7714,-10.763,-10.7741,-10.7942,-11.0073,-11.2553,-11.4116,-11.5892,-11.7183,-11.7134,-11.7086,-11.6942,-11.6848,-11.6533,-11.6224,-11.6123,-11.6123,-11.616,-11.616,-11.6031,-11.616,-11.6675,-11.6472,-11.6224,-11.6224,-11.6224,-11.6224,-11.6224,-11.6096,-11.6031,-11.6031,-11.5248,-11.4849,-11.4849,-11.4346,-11.4136,-11.4136,-11.4136,-11.4216,-11.4412,-11.4491,-11.4533,-7.3184,-7.356,-7.3782,-7.3266,-7.4588,-7.5974,-7.6257,-7.7735,-7.9819,-8.2287,-8.3232,-8.4255,-8.6304,-8.6602,-8.7797,-9.162,-9.1666,-9.2208,-9.5048,-9.6003,-9.6756,-9.7648,-9.9147,-10.0625,-10.1658,-10.2559,-10.3057,-10.3224,-10.3526,-10.3874,-10.428,-10.4136,-10.3679,-10.2681,-10.2644,-10.2644,-10.2644,-10.3424,-10.388,-10.3965,-10.5626,-10.6407,-10.6418,-10.7473,-10.7982,-10.7982,-10.7982,0.0,-10.7937,-10.7778,-10.7719,-10.7682,-10.7768,-10.7816,-10.7816,-10.7816,-10.7768,-10.7682,-10.7768,-10.7768,-10.7719,-10.7768,-10.7836,-10.7891,-10.7891,-10.7937,-10.7982,-10.7982,-10.8026,-10.807,-10.807,-10.807,-10.8294,-10.9078,-11.1325,-11.3648,-11.5217,-11.6944,-11.8186,-11.8186,-11.7925,-11.7693,-11.7693,-11.7399,-11.7147,-11.7147,-11.7147,-11.7147,-11.7147,-11.7147,-11.7346,-11.7642,-11.7362,-11.7147,-11.7147,-11.7147,-11.7147,-11.7147,-11.6922,-11.6712,-11.6712,-11.5995,-11.5663,-11.5663,-11.5284,-11.5106,-11.5106,-11.4847,-11.4808,-11.492,-11.4805,-11.492,-7.5329,-7.6179,-7.6705,-7.6008,-7.6881,-7.7742,-7.7524,-7.857,-8.0363,-8.301,-8.4265,-8.5475,-8.6943,-8.8191,-8.9576,-9.1703,-9.1493,-9.232,-9.602,-9.6169,-9.7094,-10.0277,-10.1142,-10.1998,-10.3318,-10.3471,-10.3552,0.0,-10.3805,-10.3886,-10.3789,-10.3774,-10.3453,-10.2691,-10.2691,-10.285,-10.3165,-10.4931,-10.5841,-10.5967,-10.7295,-10.7891,-10.7907,-10.8214,-10.837,-10.837,-10.8331,0.0,-10.8253,-10.7899,-10.7752,-10.7752,-10.7845,-10.7891,-10.7891,-10.7891,-10.7799,-10.7752,-10.7845,-10.7799,-10.7752,-10.7891,-10.7937,-10.7937,-10.7937,-10.8026,-10.8113,-10.8113,-10.8194,-10.8278,-10.8278,-10.8465,-10.9063,-11.0447,-11.2279,-11.4073,-11.5382,-11.699,-11.8186,-11.8186,-11.8186,-11.8186,-11.8186,-11.8186,-11.8186,-11.8186,-11.8186,-11.8186,-11.8186,-11.8186,-11.8186,-11.8186,-11.8186,-11.8186,-11.8186,-11.8186,-11.8186,-11.8186,-11.7693,-11.7399,-11.7399,-11.677,-11.6411,-11.6411,-11.6349,-11.625,-11.625,-11.5864,-11.57,-11.57,-11.5498,-11.5632,-7.8173,-7.8876,-7.8783,-7.8495,-7.936,-8.0323,-8.0134,-8.1457,-8.3304,-8.5825,-8.6439,-8.7409,-8.9868,-9.0079,-9.0404,-9.2268,-9.3727,-9.4403,-9.3916,-9.7537,-9.9992,-9.9179,-10.1463,-10.3211,-10.3425,-10.3922,-10.4198,-10.4198,-10.2879,-10.1999,-10.1985,-10.2622,-10.2924,-10.283,-10.2921,-10.3814,-10.5483,-10.7383,-10.8374,-10.8374,-10.86,-10.8713,-10.8713,-10.8775,-10.8775,-10.8775,-10.844,0.0,-10.8257,-10.7995,-10.7845,-10.7845,-10.7891,-10.7891,-10.7891,-10.7891,-10.7891,-10.7845,-10.7891,-10.7891,-10.7891,-10.8113,-10.8199,-10.8199,-10.8199,-10.8236,-10.8278,-10.8278,-10.8241,-10.8278,-10.8278,-10.9362,-11.0521,-11.0708,-11.3139,-11.5419,-11.5606,-11.699,-11.8186,-11.8186,-11.8186,-11.8186,-11.8186,-11.8186,-11.8186,-11.8186,-11.8186,-11.8186,-11.8186,-11.8186,-11.8186,-11.8186,-11.8186,-11.8186,-11.8186,-11.8186,-11.8186,-11.8186,-11.8103,-11.8057,-11.8057,-11.7451,-11.7147,-11.7255,-11.6601,-11.6311,-11.6394,-11.6334,-11.6431,-11.6659,-11.6601,-11.668,-7.901,-7.9703,-8.0021,-7.9558,-8.0206,-8.1033,-8.1322,-8.2451,-8.4003,-8.6566,-8.7085,-8.7635,-8.9544,-9.0188,-9.0839,-9.1958,-9.3291,-9.4494,-9.5148,-9.8024,-10.0212,-10.0314,-10.2711,-10.4271,-10.419,-10.3882,-10.372,0.0,-10.2906,-10.2425,-10.2425,-10.2747,-10.2921,-10.2921,-10.4043,-10.5032,-10.5932,-10.7885,-10.8856,-10.8847,-10.8856,-10.8856,-10.8847,-10.9082,-10.9192,-10.9155,0.0,-10.894,-10.8902,-10.8573,-10.844,-10.844,-10.8332,-10.8293,-10.833,-10.8161,-10.807,-10.7982,-10.807,-10.8166,-10.8331,-10.8445,-10.8405,-10.8278,-10.8278,-10.8278,-10.8278,-10.8278,-10.8278,-10.8278,-10.8278,-10.9512,-11.1007,-11.198,-11.3999,-11.5905,-11.6878,-11.7663,-11.8186,-11.8186,-11.8186,-11.8186,-11.8186,-11.8186,-11.8186,-11.8186,-11.8186,-11.8186,-11.8186,-11.8186,-11.8186,-11.8186,-11.8186,-11.8186,-11.8186,-11.8186,-11.8186,-11.8186,-11.8186,-11.8186,-11.8186,-11.7973,-11.7888,-11.7973,-11.7679,-11.7593,-11.7642,-11.7368,-11.7265,-11.7354,-11.7053,-11.716,-7.9804,-8.0455,-8.1104,-8.1037,-8.1444,-8.2053,-8.3164,-8.394,-8.5132,-8.7379,-8.7993,-8.84,-8.9295,-9.0517,-9.155,-9.1737,-9.2954,-9.4331,-9.5659,-9.7493,-9.9186,-10.0558,-10.2472,-10.3728,-10.3765,-10.3263,-10.2961,0.0,-10.2635,-10.2599,-10.3009,-10.3463,-10.3772,-10.3819,-10.5671,-10.671,-10.6831,-10.8281,-10.9044,-10.9163,-10.9155,-10.8928,-10.852,-10.9268,-10.9356,-10.894,-10.9305,-10.9439,-10.942,-10.9031,-10.8929,-10.8902,-10.8806,-10.8782,-10.875,-10.8555,-10.8407,-10.833,-10.8445,-10.8588,-10.8782,-10.8782,-10.8619,-10.8482,-10.8405,-10.8366,-10.8366,-10.8282,-10.8278,-10.8278,-10.8278,-10.9848,-11.1643,-11.2503,-11.4522,-11.6429,-11.684,-11.7588,-11.8037,-11.7625,-11.7887,-11.8186,-11.8186,-11.8186,-11.8186,-11.8186,-11.8186,-11.8186,-11.8186,-11.8231,-11.8231,-11.8231,-11.8276,-11.8276,-11.8276,-11.8276,-11.8276,-11.8276,-11.8276,-11.8276,-11.8276,-11.8401,-11.8444,-11.8449,-11.8532,-11.8573,-11.865,-11.8214,-11.8044,-11.8044,-11.7653,-11.7701,-8.1224,-8.1729,-8.2165,-8.3614,-8.3967,-8.4516,-8.6524,-8.727,-8.7823,-8.9,-9.0029,-9.0609,-9.07,-9.2144,-9.299,-9.1906,-9.3455,-9.441,-9.3485,-9.5366,-9.7175,-9.7896,-9.9414,-10.0587,-10.1011,-10.1709,0.0,-10.2987,0.0,-10.1444,-10.2934,-10.4668,-10.5739,-10.5965,-10.7646,-10.8743,-10.9268,-10.9361,-10.9592,-10.9977,-10.9977,-10.9143,-10.7625,-10.9228,-10.9114,-10.7672,-10.8872,-10.9453,-10.9399,-10.914,-10.9044,-10.9044,-10.9019,-10.9019,-10.9019,-10.9019,-10.8993,-10.8993,-10.8993,-10.9019,-10.9019,-10.9019,-10.9019,-10.8978,-10.8718,-10.8657,-10.8588,-10.8363,-10.8278,-10.8278,-10.8278,-11.0708,-11.284,-11.1269,-11.4559,-11.7214,-11.4223,-11.6018,-11.77,-11.6092,-11.7064,-11.8186,-11.8186,-11.8186,-11.8186,-11.8186,-11.8186,-11.8186,-11.8186,-11.8276,-11.8363,-11.8363,-11.8486,-11.8528,-11.8528,-11.8528,-11.8528,-11.8528,-11.8528,-11.8528,-11.8528,-11.8528,-11.8573,-11.8578,-11.8578,-11.8617,-11.873,-11.873,-11.873,-11.873,-11.8655,-11.8692,-8.2257,-8.2748,-8.32,-8.5039,-8.5935,-8.6698,-8.7923,-8.8601,-8.9197,-8.9558,-9.0402,-9.1004,-9.1004,-9.2509,-9.3638,-9.3182,-9.4158,-9.4831,-9.441,-9.5396,-9.6285,-9.6502,-9.7694,-9.8963,-10.0139,0.0,0.0,-9.8516,-9.9001,-9.9972,-10.1578,-10.2412,-10.3415,-10.4602,-10.5545,-10.6126,-10.631,-10.6487,-10.662,-10.677,-10.677,-10.6467,-10.5898,-10.6505,-10.7036,-10.7529,-10.7985,-10.8798,-10.9822,-10.9696,-10.9668,-10.9668,-10.9401,-10.9306,-10.9306,-10.9117,-10.9044,-10.9093,-10.9529,-10.9529,-10.9306,-10.9417,-10.932,-10.9163,-10.908,-10.9024,-10.9007,-10.8891,-10.8707,-10.8547,-10.852,-11.0091,-11.1531,-11.0933,-11.2952,-11.4746,-11.3587,-11.426,-11.4859,-11.4272,-11.4641,-11.5426,-11.648,-11.6623,-11.6915,-11.8037,-11.832,-11.8444,-11.8444,-11.8486,-11.8486,-11.8486,-11.8566,-11.8569,-11.8569,-11.8569,-11.8569,-11.8569,-11.8569,-11.8569,-11.8569,-11.8575,-11.8577,-11.8578,-11.8655,-11.873,-11.8766,-11.8766,-11.8766,-11.8766,-11.8766,-11.8766,-8.3111,-8.3677,-8.4349,-8.6155,-8.7369,-8.8128,-8.8901,-8.9524,-9.0097,-9.0285,-9.1094,-9.1892,-9.2144,-9.3337,-9.4339,-9.4374,-9.433,-9.4343,-9.4468,-9.4402,-9.442,-9.4724,-9.5492,0.0,0.0,0.0,0.0,-9.7658,-9.8853,-10.0235,-10.1849,-10.2117,-10.2798,-10.3998,-10.4387,-10.4621,-10.4717,-10.4875,-10.4987,-10.4987,-10.4987,-10.4987,-10.4987,-10.4987,-10.529,-10.5822,-10.6391,-10.7605,-10.9161,-10.9161,-10.9502,-10.9987,-10.9722,-10.9658,-10.9606,-10.9439,-10.9401,-10.9439,-10.9871,-10.9833,-10.9644,-10.9728,-10.9653,-10.9486,-10.9374,-10.9384,-10.9367,-10.9271,-10.9045,-10.8855,-10.8855,-10.9941,-11.0933,-11.0409,-11.1948,-11.3182,-11.2065,-11.2626,-11.3229,-11.2713,-11.3046,-11.3753,-11.4885,-11.548,-11.6186,-11.7309,-11.8112,-11.8569,-11.8569,-11.8573,-11.8573,-11.8573,-11.8613,-11.8613,-11.8613,-11.8613,-11.8613,-11.8613,-11.8613,-11.8613,-11.8613,-11.8616,-11.8617,-11.8617,-11.873,-11.8766,-11.8766,-11.8766,-11.8766,-11.8766,-11.8766,-11.9067,-8.3654,-8.4562,-8.5555,-8.6946,-8.8093,-8.8969,-8.9655,-9.0226,-9.0781,-9.1128,-9.2192,-9.3272,-9.3906,-9.4512,-9.503,-9.5307,-9.3867,-9.2875,-9.3419,-9.215,-9.1497,-9.2523,-9.2617,-9.2785,0.0,-9.3759,-9.5958,-10.0795,-10.129,-10.209,-10.3746,-10.4048,-10.4255,-10.4485,-10.4579,-10.4717,-10.4987,-10.4987,-10.4949,-10.4949,-10.4949,-10.4949,-10.4949,-10.4949,-10.4076,-10.2634,-10.4228,-10.586,-10.7407,-10.7491,-10.8478,-10.9957,-10.9995,-11.0033,-11.0033,-11.0033,-11.0033,-11.0033,-11.0033,-11.0033,-11.0033,-11.0033,-11.0025,-10.9987,-10.9719,-10.9626,-10.9589,-10.9324,-10.9253,-10.929,-10.9269,-11.0377,-11.112,-10.9633,-11.1586,-11.2863,-10.9566,-11.1256,-11.2982,-11.152,-11.2457,-11.3507,-11.362,-11.497,-11.6094,-11.6132,-11.7519,-11.8569,-11.8569,-11.8538,-11.8578,-11.8578,-11.8692,-11.8766,-11.8766,-11.8766,-11.8766,-11.8766,-11.8766,-11.8766,-11.8766,-11.8766,-11.8766,-11.8766,-11.8766,-11.8766,-11.8766,-11.8766,-11.8766,-11.8766,-11.8766,-11.9669,-8.5039,-8.5825,-8.6482,-8.8568,-9.0144,-9.0884,-9.0023,-9.133,-9.2389,-9.1532,-9.1683,-9.2081,-9.2369,-9.2195,-9.2286,-9.3454,-9.2322,-9.1881,-9.3564,-9.1692,-9.0419,-9.1071,-9.0413,-9.0471,-9.1806,-9.4125,-9.622,-9.7758,-9.8983,-9.9923,-10.0578,-10.1906,-10.2693,-10.2748,-10.4122,-10.4881,-10.4949,-10.4949,-10.4964,-10.495,-10.495,-10.495,-10.495,-10.4964,-10.4698,-10.4224,-10.3464,-10.4098,-10.5784,-10.6998,-10.7757,-10.8326,-10.954,-11.0011,-11.0031,-11.0003,-11.0011,-11.0036,-11.0036,-11.0036,-11.0036,-11.0015,-11.0022,-10.9984,-10.9927,-10.9917,-10.9904,-10.9844,-10.966,-10.9527,-10.9526,-10.9721,-10.9797,-10.9344,-10.9899,-11.028,-10.9343,-10.9832,-11.0658,-11.1478,-11.1821,-11.2755,-11.5235,-11.5872,-11.6469,-11.7707,-11.8352,-11.873,-11.873,-11.8692,-11.873,-11.873,-11.873,-11.8766,-11.8766,-11.8766,-11.8766,-11.8766,-11.8766,-11.8766,-11.8766,-11.8766,-11.8766,-11.8766,-11.8766,-11.8766,-11.8766,-11.8766,-11.8766,-11.8766,-11.8766,-11.9669,-8.5217,-8.6188,-8.6992,-8.8124,-8.9286,-8.9976,-8.8532,-8.9685,-9.0869,-9.039,-9.0643,-9.1035,-9.1372,-9.101,-9.1007,-9.194,-9.0946,-9.0583,-9.2001,-9.0401,-8.9283,-8.9814,-8.9933,-9.0642,-9.2332,-9.5561,-9.7889,-9.8753,-10.0415,-10.1455,-10.1591,-10.2685,-10.3275,-10.3285,-10.4352,-10.495,-10.4957,-10.4983,-10.4963,-10.4971,-10.4955,-10.4983,-10.4983,-10.4955,-10.4963,-10.4893,-10.3925,-10.406,-10.5063,-10.6026,-10.6451,-10.6603,-10.8326,-10.8986,-10.8968,-10.8973,-10.9404,-11.0018,-11.0018,-11.0018,-11.002,-11.0024,-11.0024,-11.0024,-11.0024,-11.0024,-11.0024,-11.0008,-10.9909,-10.9767,-10.9796,-10.9696,-10.9734,-11.0455,-11.0536,-11.0647,-11.1363,-11.1492,-11.1741,-11.2729,-11.2759,-11.3325,-11.5273,-11.5988,-11.6889,-11.8615,-11.8955,-11.9029,-11.9029,-11.8954,-11.8917,-11.8917,-11.8841,-11.8766,-11.8766,-11.8766,-11.8766,-11.8766,-11.8766,-11.8766,-11.8766,-11.8766,-11.8766,-11.8766,-11.8766,-11.8766,-11.8766,-11.8766,-11.8766,-11.8766,-11.8766,-12.0119,-8.4438,-8.5575,-8.6709,-8.6348,-8.6926,-8.738,0.0,-8.7001,-8.8014,-8.85,-8.9295,-9.0039,-9.0513,-9.0307,-9.021,-9.0655,-8.9633,-8.9061,-8.9727,-8.8836,-8.8283,-8.8796,-9.0446,-9.2299,-9.4178,-9.7374,-10.0111,-10.2036,-10.3783,-10.4773,-10.4773,-10.5077,-10.5272,-10.5241,-10.5428,-10.5528,-10.554,-10.5538,-10.5544,-10.5544,-10.5524,-10.554,-10.554,-10.554,-10.5431,-10.524,-10.5254,-10.5154,-10.4957,-10.495,-10.4959,-10.5111,-10.6634,-10.7074,-10.6937,-10.7135,-10.8278,-10.9721,-10.9721,-10.9873,-11.0024,-11.0024,-11.0024,-11.0024,-11.0024,-11.0024,-11.0024,-11.0024,-11.0024,-11.0024,-11.0024,-11.0024,-11.0442,-11.215,-11.2396,-11.2663,-11.4352,-11.4636,-11.4609,-11.4798,-11.4811,-11.4841,-11.5068,-11.6092,-11.7481,-11.9141,-11.9365,-11.9359,-11.9359,-11.9252,-11.9142,-11.9142,-11.8917,-11.8766,-11.8766,-11.8766,-11.8691,-11.8503,-11.8503,-11.8428,-11.824,-11.824,-11.824,-11.824,-11.8428,-11.8503,-11.8503,-11.8503,-11.8578,-11.8766,-11.8766,-12.0568,0.0,0.0,0.0,0.0,0.0,0.0,0.0,-8.8023,-8.9811,-8.7729,-8.8397,-8.9106,-8.8144,-8.7516,-8.7563,-8.8894,-8.8165,-8.8101,-8.9884,-8.9107,-8.8525,-8.8972,-9.0532,-9.275,-9.5833,-9.8043,-10.0677,-10.3819,-10.4494,-10.4823,-10.4937,-10.6266,-10.7025,-10.7025,-10.8337,-10.9025,-10.9035,-10.9037,-10.9037,-10.9037,-10.9036,-10.9035,-10.9035,-10.9037,-10.8278,-10.7025,-10.7024,-10.6226,-10.4973,-10.4974,-10.4974,-10.5011,-10.535,-10.4603,-10.3606,-10.4937,-10.6532,-10.7974,-10.7974,-10.8885,-11.0024,-11.0024,-11.0024,-11.0024,-11.0024,-11.0024,-11.0024,-11.0024,-11.0024,-11.0024,-11.0024,-11.0024,-11.0442,-11.215,-11.252,-11.2947,-11.4617,-11.4976,-11.533,-11.6582,-11.6764,-11.7134,-11.8464,-11.8796,-11.9003,-11.9588,-11.9475,-11.937,-11.937,-11.9246,-11.9142,-11.9142,-11.8917,-11.8766,-11.8766,-11.8766,-11.824,-11.6962,-11.6886,-11.6285,-11.4894,-11.4856,-11.4856,-11.4856,-11.621,-11.6886,-11.6886,-11.6886,-11.7526,-11.8766,-11.8766,-11.9927,0.0,0.0,0.0,0.0,0.0,0.0,0.0,0.0,0.0,0.0,0.0,-8.6929,-8.723,0.0,-8.6727,-8.8385,-8.7945,-8.7871,-8.8899,-8.8879,-8.8819,-8.9028,-9.1246,-9.384,-9.6463,-9.9886,-10.3067,-10.575,-10.6848,-10.7404,-10.7477,-10.8274,-10.8765,-10.8755,-10.9575,-11.0036,-11.002,-11.002,-11.002,-11.002,-11.002,-11.002,-11.002,-11.0012,-10.9552,-10.8755,-10.877,-10.8278,-10.7443,-10.657,-10.5241,-10.3608,-10.2764,-10.2425,-10.2545,-10.338,-10.4785,-10.6342,-10.7215,-10.805,-10.8885,-10.9759,-11.0024,-11.0024,-11.0024,-11.0024,-11.0024,-11.0024,-11.0023,-11.0022,-11.0024,-11.0023,-11.0438,-11.2146,-11.3133,-11.4196,-11.5867,-11.6886,-11.7751,-11.8511,-11.862,-11.8859,-11.9693,-11.9717,-11.9668,-11.9828,-11.9707,-11.9633,-11.9633,-11.9532,-11.9443,-11.9443,-11.8465,-11.7789,-11.7714,-11.6924,-11.6097,-11.5232,-11.5157,-11.4781,-11.3954,-11.3916,-11.3916,-11.3916,-11.5571,-11.6435,-11.6435,-11.7225,-11.8014,-11.8766,-11.8911,-11.9878,0.0,0.0,0.0,0.0,0.0,0.0,0.0,0.0,0.0,0.0,0.0,0.0,0.0,0.0,0.0,-8.7927,-8.8006,-8.7864,-8.7864,-8.8562,-8.9028,-8.9028,-9.1434,-9.4207,-9.7019,-10.1132,-10.474,-10.7523,-10.918,-11.0018,-11.0041,-11.0036,-11.0025,-11.0033,-11.0025,-11.0036,-11.0036,-11.0036,-11.0036,-11.0036,0.0,0.0,-11.0036,-11.0011,-11.0033,-11.0033,-11.0012,-11.0023,-10.991,-10.8543,-10.5961,-10.2773,-10.1444,-10.152,-10.2393,-10.209,-10.3039,-10.4671,-10.6038,-10.6721,-10.7291,-10.8999,-10.9531,-10.9607,-10.991,-11.0024,0.0,-11.0022,-11.0018,-11.0015,-11.002,-11.0015,-11.0454,-11.2129,-11.3533,-11.49,-11.657,-11.8253,-11.9443,-11.9452,-11.9709,-11.9936,-11.9936,-11.9384,-11.906,-11.9402,-11.9211,-11.9096,-11.9399,-11.9034,-11.8766,-11.8766,-11.733,-11.6343,-11.6225,-11.5264,-11.4443,-11.3954,-11.3954,-11.3766,-11.3428,-11.3089,-11.3089,-11.3428,-11.5082,-11.5947,-11.5947,-11.7561,-11.8502,-11.8802,-11.8372,-11.9102,0.0,0.0,0.0,0.0,0.0,0.0,0.0,0.0,0.0,0.0,0.0,0.0,0.0,0.0,0.0,0.0,-8.7269,-8.7864,-8.7864,-8.8562,-8.9028,-8.9028,-8.9366,-9.2073,-9.8427,-9.9665,-10.2674,-10.8888,-10.9759,-11.0003,-11.0041,0.0,0.0,0.0,0.0,-11.0041,-11.0041,-11.0041,-11.0041,-11.0041,-11.0041,-11.0041,-11.0041,-11.0033,-11.0033,-11.0033,-11.0003,-11.0003,-10.9986,-10.9808,-10.7764,-10.4671,-10.4481,-10.357,-10.2279,-10.0761,-10.1292,-10.2735,-10.2963,0.0,0.0,-10.7215,-10.7784,-10.805,-10.9569,-11.0024,-11.0023,-11.0025,-11.0008,-11.0022,-11.0025,-11.0003,-11.0459,-11.2128,-11.2698,-11.3267,-11.4822,-11.6483,-11.7706,-11.7703,-11.8898,-11.9936,-11.9936,-11.7432,-11.5971,-11.7452,-11.6521,-11.6121,-11.7517,-11.6271,-11.5236,-11.5236,0.0,0.0,-11.4737,-11.5814,-11.5831,-11.4182,-11.4067,-11.3387,-11.1736,-11.0232,-11.0157,-11.1661,-11.3315,-11.4179,-11.4179,-11.5866,-11.7443,-11.8835,-11.6131,-11.5768,0.0,0.0,0.0,0.0,0.0,0.0,0.0,0.0,0.0,0.0,0.0,0.0,0.0,0.0,0.0,0.0,-8.7688,-8.7744,-8.7744,-8.8285,-8.8751,-8.9028,-8.9892,-9.2472,-9.749,-9.9809,-10.3049,-10.8011,-10.9391,-11.0033,-11.0033,-11.0033,-11.0033,-11.0033,-11.0033,-11.0033,-11.0033,-11.0033,-11.0033,-11.0033,-11.0033,-11.0033,-11.0033,-11.0033,-11.0033,0.0,-11.0018,-11.0031,-11.0036,-11.0011,-10.8607,0.0,0.0,0.0,0.0,0.0,-10.0343,-10.1102,-10.209,-10.2924,-10.3946,-10.6603,-10.6831,-10.6527,-10.9221,-10.9334,-10.8759,-10.9765,-11.0036,-11.0036,-11.0003,-11.0033,-11.0185,-11.0906,-11.1779,-11.2613,-11.3258,-11.4738,-11.5923,-11.5938,-11.65,0.0,-11.7015,-11.5817,-11.511,-11.5831,-11.54,-11.5202,-11.5869,-11.533,-11.4937,-11.4937,-11.3979,-11.3324,-11.316,-11.2911,0.0,0.0,0.0,-11.0871,-10.9969,-10.9217,0.0,0.0,0.0,0.0,0.0,0.0,0.0,0.0,-11.5474,-11.5117,0.0,0.0,0.0,0.0,0.0,0.0,0.0,0.0,0.0,0.0,0.0,0.0,0.0,0.0,0.0,0.0,0.0,-8.7679,-8.8253,-8.8362,-8.8712,-8.9602,-9.0446,-9.2347,-9.5946,-9.8977,-10.2217,-10.5837,-10.8098,-10.9312,-10.9312,-10.9768,-11.0033,-11.0033,-11.0033,-11.0033,-11.0033,-11.0033,-11.0033,-11.0033,-11.0033,-11.0033,-11.0033,-11.0033,-11.0033,-11.0033,-11.0025,-11.0018,-10.9995,-10.951,-10.8334,-10.658,-10.4091,-10.2103,-10.0605,-10.0605,-10.0607,-10.0723,-10.148,-10.204,-10.2938,-10.5823,-10.6278,-10.6203,-10.9125,-10.9158,-10.8431,-10.9651,-11.0018,-11.0033,-11.0033,-11.0033,-11.0033,-11.0033,-11.0906,-11.1703,-11.1703,-11.3031,-11.4169,-11.4169,-11.3827,-11.3524,-11.3524,-11.3524,-11.3676,-11.4131,-11.3827,0.0,-11.4135,-11.3889,-11.3684,-11.3692,-11.2593,-11.1782,-11.1593,-11.0946,-11.0252,-10.9438,-10.9743,-10.9668,-10.8991,-10.9367,-10.933,-10.8878,-11.1088,-11.2283,0.0,0.0,0.0,0.0,0.0,0.0,0.0,0.0,0.0,0.0,0.0,0.0,0.0,0.0,0.0,0.0,0.0,0.0,0.0,0.0,0.0,0.0,0.0,0.0,-8.9655,-8.8994,-8.9057,-9.1218,-9.0199,-9.0698,-9.4189,-9.6251,-9.8809,-10.2338,-10.567,-10.7567,-10.7567,-10.9123,-11.0033,-11.0033,-11.0033,-11.0033,-11.0033,-11.0033,-11.0033,-11.0033,-11.0033,-11.0033,-11.0033,-11.0033,-11.0033,-11.0033,-11.0033,-11.0033,-10.9881,-10.8247,-10.6571,-10.5063,-10.4945,-10.3844,-10.2376,-10.2376,-10.2374,-10.2127,-10.0536,-10.1048,-10.2718,-10.4463,-10.6125,-10.7757,-10.951,-10.9995,-10.9957,-10.9995,-11.0033,-11.0033,-11.0033,-11.0033,-11.0033,-11.0033,-11.0071,-11.0109,-11.0109,-11.1323,-11.2424,-11.2424,-11.1209,-11.0185,-11.0185,-11.0185,-11.0678,-11.2196,-11.1134,0.0,-11.2234,-11.1096,-11.0163,-11.0193,-11.0122,-11.0117,-11.0094,-11.1567,-11.1716,-10.9949,-11.1093,-11.1093,-10.9292,-11.057,-11.0533,-10.8916,-11.225,-11.4009,-11.4028,0.0,0.0,0.0,0.0,0.0,0.0,0.0,0.0,0.0,0.0,0.0,0.0,0.0,0.0,0.0,0.0,0.0,0.0,0.0,0.0,0.0,0.0,0.0,0.0,0.0,-8.8342,-9.0845,-9.0714,-9.1885,-9.5668,-9.6568,-9.8417,-10.2051,-10.3374,-10.4537,-10.5746,-10.7453,-10.8364,-10.8364,-10.9426,-11.0033,-11.0033,-11.0033,-11.0033,-11.0033,-11.0033,-11.0033,-11.0033,-11.0033,-11.0033,-11.0033,-11.0033,-10.9388,-10.8402,-10.8948,-10.6854,-10.3166,-10.2042,-10.1283,-10.0783,-10.0764,-10.0783,-10.0676,-10.0124,-10.0296,-10.1041,-10.2748,-10.2938,-10.3014,-10.5822,-10.6694,-10.6922,-10.8022,-10.9161,-11.0033,-11.0033,-11.0033,-11.0033,-11.0033,-11.0033,-11.0033,-11.0033,-11.0413,-11.0792,-11.0792,-10.9464,-10.8364,-10.8364,-10.9274,-10.9844,-10.9236,-10.9616,-11.0223,-11.0754,-11.0337,-11.0041,-11.0011,-11.0018,-11.0011,-11.0033,-11.0549,-11.0555,-10.9735,-11.0173,-11.0063,-10.9295,-10.9634,-11.0073,-11.0533,-11.1695,-11.1798,-11.0733,0.0,0.0,0.0,0.0,0.0,0.0,0.0,0.0,0.0,0.0,0.0,0.0,0.0,0.0,0.0,0.0,0.0,0.0,0.0,0.0,0.0,0.0,0.0,0.0,0.0,0.0,-9.015,-9.0298,0.0,-9.527,-9.6349,-9.7817,-10.0195,-10.1554,-10.2733,-10.393,-10.5654,-10.658,-10.658,-10.7643,-10.8212,-10.8212,-10.8212,-10.8212,-10.8212,-10.8212,-10.8212,-10.8212,-10.8212,-10.8212,-10.8212,-10.8212,-10.7605,-10.658,-10.6467,-10.3773,-9.9675,-9.9182,-9.903,-9.9037,-9.9018,-9.9024,-9.9062,-9.9018,-9.8665,-9.8461,-10.0092,-10.0699,-10.1117,-10.271,-10.3583,-10.4304,-10.5404,-10.6467,-10.7605,-10.8819,-10.9123,-10.9274,-10.9881,-11.0033,-11.0033,-11.0033,-10.954,-10.9312,-10.9919,-10.9161,-10.8212,-10.7605,-10.8402,-10.8743,-10.7643,-10.844,-10.935,-10.9957,-11.0033,-11.0033,-11.0033,-11.0033,-11.0033,-11.0033,-11.0018,-10.9936,-10.9792,-10.9689,-10.957,-10.9371,-10.9193,-10.9581,-11.0632,-11.0632,-11.0105,0.0,0.0,0.0,0.0,0.0,0.0,0.0,0.0,0.0,0.0,0.0,0.0,0.0,0.0,0.0,0.0,0.0,0.0,0.0,0.0,0.0,0.0,0.0,0.0,0.0,0.0,0.0,-8.9211,-8.9033,0.0,0.0,0.0,0.0,-9.6948,-10.0075,-10.2008,-10.2121,-10.3858,-10.4805,-10.4729,-10.4797,-10.4797,-10.4721,-10.4721,-10.4721,-10.4721,-10.4721,-10.4721,-10.4721,-10.4721,-10.4721,-10.4721,-10.4721,-10.4645,-10.4342,-10.1117,-9.7892,-9.516,-9.6829,-9.7519,-9.7519,-9.7519,-9.7588,-9.7664,-9.7474,-9.6412,-9.5387,-9.6791,-9.9447,-10.1762,-10.0168,-10.0889,0.0,0.0,-10.2445,-10.3317,-10.6505,-10.7339,-10.7795,-10.9502,-10.9844,-10.9806,-10.9995,-10.8705,-10.7908,0.0,-10.9502,-10.9009,-10.7377,0.0,-10.7226,-10.7226,-10.7377,-10.806,-10.9692,-10.9957,-11.0033,-11.0033,-11.0033,-11.0033,-11.0033,-11.0033,-11.0033,-11.0033,-10.9797,-10.962,-10.9629,-10.9381,-10.9268,-10.9242,-10.9242,0.0,0.0,0.0,0.0,0.0,0.0,0.0,0.0,0.0,0.0,0.0,0.0,0.0,0.0,0.0,0.0,0.0,0.0,0.0,0.0,0.0,0.0,0.0,0.0,0.0,0.0,-8.282,-8.475,-8.7382,-8.8469,-9.01,0.0,0.0,0.0,0.0,0.0,0.0,-10.0143,-10.1967,-10.2355,-10.11,-10.2369,-10.2475,-10.1223,-10.1223,-10.1231,-10.1231,-10.1231,-10.1231,-10.1231,-10.1231,-10.1231,-10.1231,-10.1231,-10.051,-9.9258,-9.8385,-9.7512,-9.6905,-9.862,-9.9278,-9.9256,-9.9256,-9.9284,-9.9151,-9.7816,-9.7133,-9.6685,-9.5906,-9.6253,-9.686,-9.6443,0.0,0.0,0.0,0.0,-10.4532,-10.5404,-10.5594,-10.6049,-10.7757,-10.7188,-10.696,-10.9464,-10.8705,-10.6505,0.0,-10.2521,-10.2369,-10.1951,0.0,0.0,0.0,0.0,-10.7643,-10.806,-10.9236,-11.0033,-11.0033,-11.0033,-11.0033,-11.0033,-11.0033,-11.0033,-11.0033,-10.9868,-10.9727,-10.9615,-10.9567,-10.9412,-10.9114,0.0,0.0,0.0,0.0,0.0,0.0,0.0,0.0,0.0,0.0,0.0,0.0,0.0,0.0,0.0,0.0,0.0,0.0,0.0,0.0,0.0,0.0,0.0,0.0,0.0,0.0,0.0,-7.8808,-8.1827,-8.4595,-8.6475,-8.8783,0.0,0.0,0.0,0.0,0.0,0.0,0.0,0.0,0.0,-9.8544,-9.8819,-9.8862,-9.8635,-9.7948,-9.7601,-9.7604,-9.7684,-9.7702,-9.7702,-9.7702,-9.7702,-9.7702,-9.7702,-9.6374,-9.4173,-9.4173,-9.4173,-9.4249,0.0,0.0,0.0,0.0,-9.5597,-9.5432,-9.4496,-9.4166,0.0,-9.3122,0.0,0.0,0.0,0.0,0.0,0.0,0.0,0.0,0.0,0.0,-10.5404,-10.7074,-10.677,-10.6201,-10.6618,-10.4722,-10.2802,0.0,-10.1534,-10.0775,-10.0054,0.0,0.0,0.0,0.0,-10.6922,-10.8402,-10.9426,-11.0033,-11.0033,-11.0033,-11.0033,-11.0033,-11.0033,-11.0033,-11.0033,-10.996,-10.9834,-10.9714,-10.895,-10.8397,0.0,0.0,0.0,0.0,0.0,0.0,0.0,0.0,0.0,0.0,0.0,0.0,0.0,0.0,0.0,0.0,0.0,0.0,0.0,0.0,0.0,0.0,0.0,0.0,0.0,0.0,0.0,0.0,0.0,-7.6954,-8.137,0.0,0.0,0.0,0.0,0.0,0.0,0.0,0.0,0.0,0.0,0.0,0.0,0.0,-9.4519,-9.5986,-9.4697,-9.4009,-9.4018,-9.4147,-9.4301,-9.4553,-9.4325,-9.4325,-9.4515,-9.4097,0.0,-8.9658,-8.9665,0.0,0.0,0.0,0.0,0.0,0.0,0.0,0.0,0.0,0.0,0.0,0.0,0.0,0.0,0.0,0.0,0.0,0.0,0.0,0.0,0.0,0.0,-10.4294,-10.5774,-10.6153,-10.5205,0.0,-9.8859,-9.8046,-10.2146,-10.1903,0.0,0.0,0.0,0.0,0.0,0.0,0.0,-10.8971,-10.9768,-11.0033,-11.0033,-11.0033,-11.0033,-11.0033,-11.0033,-11.0033,-11.0033,-10.9806,-10.9619,-10.9486,-10.7981,0.0,0.0,0.0,0.0,0.0,0.0,0.0,0.0,0.0,0.0,0.0,0.0,0.0,0.0,0.0,0.0,0.0,0.0,0.0,0.0,0.0,0.0,0.0,0.0,0.0,0.0,0.0,0.0,0.0,0.0,0.0,0.0,0.0,0.0,0.0,0.0,0.0,0.0,0.0,0.0,0.0,0.0,0.0,0.0,0.0,0.0,0.0,0.0,0.0,0.0,-9.0694,-9.1489,-9.2883,-9.1479,-9.1631,-9.2769,-8.998,-8.8457,-8.7913,0.0,0.0,0.0,0.0,0.0,0.0,0.0,0.0,0.0,0.0,0.0,0.0,0.0,0.0,0.0,0.0,0.0,0.0,0.0,0.0,0.0,0.0,0.0,0.0,0.0,-9.8968,-9.807,0.0,0.0,0.0,0.0,0.0,0.0,0.0,0.0,0.0,0.0,0.0,0.0,-10.5594,-10.8288,-11.0033,-11.0033,-11.0033,-11.0033,-11.0033,-11.0033,-11.0033,-11.0033,-10.8705,-10.7873,0.0,0.0,0.0,0.0,0.0,0.0,0.0,0.0,0.0,0.0,0.0,0.0,0.0,0.0,0.0,0.0,0.0,0.0,0.0,0.0,0.0,0.0,0.0,0.0,0.0,0.0,0.0,0.0,0.0,0.0,0.0,0.0,0.0,0.0,0.0,0.0,0.0,0.0,0.0,0.0,0.0,0.0,0.0,0.0,0.0,0.0,0.0,0.0,0.0,0.0,0.0,0.0,0.0,0.0,0.0,0.0,0.0,0.0,0.0,-8.3561,0.0,0.0,0.0,0.0,0.0,0.0,0.0,0.0,0.0,0.0,0.0,0.0,0.0,0.0,0.0,0.0,0.0,0.0,0.0,0.0,0.0,0.0,0.0,0.0,0.0,0.0,0.0,0.0,0.0,0.0,0.0,0.0,0.0,0.0,0.0,0.0,0.0,0.0,0.0,0.0,-10.4979,-10.8629,-11.0906,-11.0109,-11.0033,-11.0033,-11.0033,-11.0033,-11.0033,-11.0033,-10.7596,0.0,0.0,0.0,0.0,0.0,0.0,0.0,0.0,0.0,0.0,0.0,0.0,0.0,0.0,0.0,0.0,0.0,0.0,0.0,0.0,0.0,0.0,0.0,0.0,0.0,0.0,0.0,0.0,0.0,0.0,0.0,0.0,0.0,0.0,0.0,0.0,0.0,0.0,0.0,0.0,0.0,0.0,0.0,0.0,0.0,0.0,0.0,0.0,0.0,0.0,0.0,0.0,0.0,0.0,0.0,0.0,0.0,0.0,0.0,-8.2665,0.0,0.0,0.0,0.0,0.0,0.0,0.0,0.0,0.0,0.0,0.0,0.0,0.0,0.0,0.0,0.0,0.0,0.0,0.0,0.0,0.0,0.0,0.0,0.0,0.0,0.0,0.0,0.0,0.0,0.0,0.0,0.0,0.0,0.0,0.0,0.0,0.0,0.0,0.0,0.0,0.0,-10.5063,-10.9009,-11.1399,-11.0147,-11.0033,-11.0033,-11.0033,-11.0033,-10.973,-10.9009,-10.6429,0.0,0.0,0.0,0.0,0.0,0.0,0.0,0.0,0.0,0.0,0.0,0.0,0.0,0.0,0.0,0.0,0.0,0.0,0.0,0.0,0.0,0.0,0.0,0.0,0.0,0.0,0.0,0.0,0.0,0.0,0.0,0.0,0.0,0.0,0.0,0.0,0.0,0.0,0.0,0.0,0.0,0.0,0.0,0.0,0.0,0.0,0.0,0.0,0.0,0.0,0.0,0.0,0.0,0.0,0.0,0.0,0.0,0.0,0.0,0.0,0.0,0.0,0.0,0.0,0.0,0.0,0.0,0.0,0.0,0.0,0.0,0.0,0.0,0.0,0.0,0.0,0.0,0.0,0.0,0.0,0.0,0.0,0.0,0.0,0.0,0.0,0.0,0.0,0.0,0.0,0.0,0.0,0.0,0.0,0.0,0.0,0.0,0.0,0.0,0.0,0.0,-10.4584,-10.806,-11.0185,-11.0033,-11.0033,-11.0033,-11.0033,-11.0033,-10.8705,-10.5624,0.0,0.0,0.0,0.0,0.0,0.0,0.0,0.0,0.0,0.0,0.0,0.0,0.0,0.0,0.0,0.0,0.0,0.0,0.0,0.0,0.0,0.0,0.0,0.0,0.0,0.0,0.0,0.0,0.0,0.0,0.0,0.0,0.0,0.0,0.0,0.0,0.0,0.0,0.0,0.0,0.0,0.0,0.0,0.0,0.0,0.0,0.0,0.0,0.0,0.0,0.0,0.0,0.0,0.0,0.0,0.0,0.0,0.0,0.0,0.0,0.0,0.0,0.0,0.0,0.0,0.0,0.0,0.0,0.0,0.0,0.0,0.0,0.0,0.0,0.0,0.0,0.0,0.0,0.0,0.0,0.0,0.0,0.0,0.0,0.0,0.0,0.0,0.0,0.0,0.0,0.0,0.0,0.0,0.0,0.0,0.0,0.0,0.0,0.0,0.0,0.0,0.0,-10.4671,-10.9581,-11.2537,-11.1551,-11.1437,-11.1058,-11.0109,-10.9085,-10.7908,-10.6572,0.0,0.0,0.0,0.0,0.0,0.0,0.0,0.0,0.0,0.0,0.0,0.0,0.0,0.0,0.0,0.0,0.0,0.0,0.0,0.0,0.0,0.0,0.0,0.0,0.0,0.0,0.0,0.0,0.0,0.0,0.0,0.0,0.0,0.0,0.0,0.0,0.0,0.0,0.0,0.0,0.0,0.0,0.0,0.0,0.0,0.0,0.0,0.0,0.0,0.0,0.0,0.0,0.0,0.0,0.0,0.0,0.0,0.0,0.0,0.0,0.0,0.0,0.0,0.0,0.0,0.0,0.0,0.0,0.0,0.0,0.0,0.0,0.0,0.0,0.0,0.0,0.0,0.0,0.0,0.0,0.0,0.0,0.0,0.0,0.0,0.0,0.0,0.0,0.0,0.0,0.0,0.0,0.0,0.0,0.0,0.0,0.0,0.0,0.0,0.0,0.0,0.0,-10.4622,-11.0284,-11.3752,-11.2537,-11.2803,-11.2651,-11.1551,-10.948,-10.781,-10.6808,0.0,0.0,0.0,0.0,0.0,0.0,0.0,0.0,0.0,0.0,0.0,0.0,0.0,0.0,0.0,0.0,0.0,0.0,0.0,0.0,0.0,0.0,0.0,0.0,0.0,0.0,0.0,0.0,0.0,0.0,0.0,0.0,0.0,0.0,0.0,0.0,0.0,0.0,0.0,0.0,0.0,0.0,0.0,0.0,0.0,0.0,0.0,0.0,0.0,0.0,0.0,0.0,0.0,0.0,0.0,0.0,0.0,0.0,0.0,0.0,0.0,0.0,0.0,0.0,0.0,0.0,0.0,0.0,0.0,0.0,0.0,0.0,0.0,0.0,0.0,0.0,0.0,0.0,0.0,0.0,0.0,0.0,0.0,0.0,0.0,0.0,0.0,0.0,0.0,0.0,0.0,0.0,0.0,0.0,0.0,0.0,0.0,0.0,0.0,0.0,0.0,0.0,-10.4312,-10.9341,-11.2567,-11.2529,-11.3941,-11.4852,-11.4814,-11.1852,-10.8556,0.0,0.0,0.0,0.0,0.0,0.0,0.0,0.0,0.0,0.0,0.0,0.0,0.0,0.0,0.0,0.0,0.0,0.0,0.0,0.0,0.0,0.0,0.0,0.0,0.0,0.0,0.0,0.0,0.0,0.0,0.0,0.0,0.0,0.0,0.0,0.0,0.0,0.0,0.0,0.0,0.0,0.0,0.0,0.0,0.0,0.0,0.0,0.0,0.0,0.0,0.0,0.0,0.0,0.0,0.0,0.0,0.0,0.0,0.0,0.0,0.0,0.0,0.0,0.0,0.0,0.0,0.0,0.0,0.0,0.0,0.0,0.0,0.0,0.0,0.0,0.0,0.0,0.0,0.0,0.0,0.0,0.0,0.0,0.0,0.0,0.0,0.0,0.0,0.0,0.0,0.0,0.0,0.0,0.0,0.0,0.0,0.0,0.0,0.0,0.0,0.0,0.0,0.0,-10.3916,-10.8189,-11.1581,0.0,-11.5616,-11.5697,-11.3472,-11.0201,-10.7354,-10.5121,0.0,0.0,0.0,0.0,0.0,0.0,0.0,0.0,0.0,0.0,0.0,0.0,0.0,0.0,0.0,0.0,0.0,0.0,0.0,0.0,0.0,0.0,0.0,0.0,0.0,0.0,0.0,0.0,0.0,0.0,0.0,0.0,0.0,0.0,0.0,0.0,0.0,0.0,0.0,0.0,0.0,0.0,0.0,0.0,0.0,0.0,0.0,0.0,0.0,0.0,0.0,0.0,0.0,0.0,0.0,0.0,0.0,0.0,0.0,0.0,0.0,0.0,0.0,0.0,0.0,0.0,0.0,0.0,0.0,0.0,0.0,0.0,0.0,0.0,0.0,0.0,0.0,0.0,0.0,0.0,0.0,0.0,0.0,0.0,0.0,0.0,0.0,0.0,0.0,0.0,0.0,0.0,0.0,0.0,0.0,0.0,0.0,0.0,0.0,0.0,0.0,0.0,0.0,-10.7781,-11.1805,0.0,-11.6434,-11.659,-11.4542,-11.1313,-10.839,-10.6,0.0,0.0,0.0,0.0,0.0,0.0,0.0,0.0,0.0,0.0,0.0,0.0,0.0,0.0,0.0,0.0,0.0,0.0,0.0,0.0,0.0,0.0,0.0,0.0,0.0,0.0,0.0,0.0,0.0,0.0,0.0,0.0,0.0,0.0,0.0,0.0,0.0,0.0,0.0,0.0,0.0,0.0,0.0,0.0,0.0,0.0,0.0,0.0,0.0,0.0,0.0,0.0,0.0,0.0,0.0,0.0,0.0,0.0,0.0,0.0,0.0,0.0,0.0,0.0,0.0,0.0,0.0,0.0,0.0,0.0,0.0,0.0,0.0,0.0,0.0,0.0,0.0,0.0,0.0,0.0,0.0,0.0,0.0,0.0,0.0,0.0,0.0,0.0,0.0,0.0,0.0,0.0,0.0,0.0,0.0,0.0,0.0,0.0,0.0,0.0,0.0,0.0,0.0,-10.7646,-11.2455,-11.4639,-11.6174,-11.7048,-11.7048,-11.4163,-11.0859,-10.7328,-10.2344,0.0,0.0,0.0,0.0,0.0,0.0,0.0,0.0,0.0,0.0,0.0,0.0,0.0,0.0,0.0,0.0,0.0,0.0,0.0,0.0,0.0,0.0,0.0,0.0,0.0,0.0,0.0,0.0,0.0,0.0,0.0,0.0,0.0,0.0,0.0,0.0,0.0,0.0,0.0,0.0,0.0,0.0,0.0,0.0,0.0,0.0,0.0,0.0,0.0,0.0,0.0,0.0,0.0,0.0,0.0,0.0,0.0,0.0,0.0,0.0,0.0,0.0,0.0,0.0,0.0,0.0,0.0,0.0,0.0,0.0,0.0,0.0,0.0,0.0,0.0,0.0,0.0,0.0,0.0,0.0,0.0,0.0,0.0,0.0,0.0,0.0,0.0,0.0,0.0,0.0,0.0,0.0,0.0,0.0,0.0,0.0,0.0,0.0,0.0,0.0,0.0,0.0,-10.4527,-10.8051,-11.2392,-11.3382,-11.3707,-11.3707,-11.1809,-10.9104,-10.5575,-10.0496,0.0,0.0,0.0,0.0,0.0,0.0,0.0,0.0,0.0,0.0,0.0,0.0,0.0,0.0,0.0,0.0,0.0,0.0,0.0,0.0,0.0,0.0,0.0,0.0,0.0,0.0,0.0,0.0,0.0,0.0,0.0,0.0,0.0,0.0,0.0,0.0,0.0,0.0,0.0,0.0,0.0,0.0,0.0,0.0,0.0,0.0,0.0,0.0,0.0,0.0,0.0,0.0,0.0,0.0,0.0,0.0,0.0,0.0,0.0,0.0,0.0,0.0,0.0,0.0,0.0,0.0,0.0,0.0,0.0,0.0,0.0,0.0,0.0,0.0,0.0,0.0,0.0,0.0,0.0,0.0,0.0,0.0,0.0,0.0,0.0,0.0,0.0,0.0,0.0,0.0,0.0,0.0,0.0,0.0,0.0,0.0,0.0,0.0,0.0,0.0,0.0,0.0,-9.9981,-10.4136,-11.0416,-11.053,-11.0499,-11.1314,-11.0501,-10.8422,-10.4902,-9.9798,0.0,0.0,0.0,0.0,0.0,0.0,0.0,0.0,0.0,0.0,0.0,0.0,0.0,0.0,0.0,0.0,0.0,0.0,0.0,0.0,0.0,0.0,0.0,0.0,0.0,0.0,0.0,0.0,0.0,0.0,0.0,0.0,0.0,0.0,0.0,0.0,0.0,0.0,0.0,0.0,0.0,0.0,0.0,0.0,0.0,0.0,0.0,0.0,0.0,0.0,0.0,0.0,0.0,0.0,0.0,0.0,0.0,0.0,0.0,0.0,0.0,0.0,0.0,0.0,0.0,0.0,0.0,0.0,0.0,0.0,0.0,0.0,0.0,0.0,0.0,0.0,0.0,0.0,0.0,0.0,0.0,0.0,0.0,0.0,0.0,0.0,0.0,0.0,0.0,0.0,0.0,0.0,0.0,0.0,0.0,0.0,0.0,0.0,0.0,0.0,0.0,0.0,0.0,-10.08,-10.7389,-10.7163,-10.724,-10.9063,-10.9313,-10.7879,-10.4404,0.0,0.0,0.0,0.0,0.0,0.0,0.0,0.0,0.0,0.0,0.0,0.0,0.0,0.0,0.0,0.0,0.0,0.0,0.0,0.0,0.0,0.0,0.0,0.0,0.0,0.0,0.0,0.0,0.0,0.0,0.0,0.0,0.0,0.0,0.0,0.0,0.0,0.0,0.0,0.0,0.0,0.0,0.0,0.0,0.0,0.0,0.0,0.0,0.0,0.0,0.0,0.0,0.0,0.0,0.0,0.0,0.0,0.0,0.0,0.0,0.0,0.0,0.0,0.0,0.0,0.0,0.0,0.0,0.0,0.0,0.0,0.0,0.0,0.0,0.0,0.0,0.0,0.0,0.0,0.0,0.0,0.0,0.0,0.0,0.0,0.0,0.0,0.0,0.0,0.0,0.0,0.0,0.0,0.0,0.0,0.0,0.0,0.0,0.0,0.0,0.0,0.0,0.0,0.0,0.0,-9.9969,-10.177,-10.3567,-10.5299,-10.6636,-10.5901,-10.2479,0.0,0.0,0.0,0.0,0.0,0.0,0.0,0.0,0.0,0.0,0.0,0.0,0.0,0.0]}]]]